
<gpx xmlns="http://www.topografix.com/GPX/1/1" xmlns:gpxx="http://www.garmin.com/xmlschemas/WaypointExtension/v1" xmlns:xsi="http://www.w3.org/2001/XMLSchema-instance" version="1.1" creator="Adze - http://kobotsw.com/apps/adze" xsi:schemaLocation="http://www.topografix.com/GPX/1/1 http://www.topografix.com/GPX/1/1/gpx.xsd http://www.garmin.com/xmlschemas/WaypointExtension/v1 http://www8.garmin.com/xmlschemas/WaypointExtensionv1.xsd">
    <metadata>
        <name>Untitled Document</name>
        <link href="http://www.garmin.com"></link>
        <time>2018-02-26T03:53:42.609Z</time>
    </metadata>
    <trk>
        <name>Saturday</name>
        <extensions>
            <gpxx:TrackExtension>
                <gpxx:DisplayColor>DarkMagenta</gpxx:DisplayColor>
            </gpxx:TrackExtension>
        </extensions>
        <trkseg>
            <trkpt lon="100.897879" lat="12.764338">
                <ele>23.690000</ele>
                <time>2015-10-31T06:02:56Z</time>
            </trkpt>
            <trkpt lon="100.897877" lat="12.764341">
                <ele>28.020000</ele>
                <time>2015-10-31T06:02:58Z</time>
            </trkpt>
            <trkpt lon="100.897876" lat="12.764343">
                <ele>24.650000</ele>
                <time>2015-10-31T06:02:59Z</time>
            </trkpt>
            <trkpt lon="100.897870" lat="12.764344">
                <ele>27.530000</ele>
                <time>2015-10-31T06:03:02Z</time>
            </trkpt>
            <trkpt lon="100.897865" lat="12.764365">
                <ele>26.570000</ele>
                <time>2015-10-31T06:03:17Z</time>
            </trkpt>
            <trkpt lon="100.897878" lat="12.764536">
                <ele>26.090000</ele>
                <time>2015-10-31T06:03:31Z</time>
            </trkpt>
            <trkpt lon="100.897902" lat="12.764625">
                <ele>25.610000</ele>
                <time>2015-10-31T06:03:44Z</time>
            </trkpt>
            <trkpt lon="100.897905" lat="12.764637">
                <ele>26.090000</ele>
                <time>2015-10-31T06:03:45Z</time>
            </trkpt>
            <trkpt lon="100.897749" lat="12.764754">
                <ele>25.610000</ele>
                <time>2015-10-31T06:03:52Z</time>
            </trkpt>
            <trkpt lon="100.897592" lat="12.764829">
                <ele>25.130000</ele>
                <time>2015-10-31T06:03:56Z</time>
            </trkpt>
            <trkpt lon="100.897551" lat="12.764852">
                <ele>25.610000</ele>
                <time>2015-10-31T06:03:57Z</time>
            </trkpt>
            <trkpt lon="100.897507" lat="12.764871">
                <ele>25.130000</ele>
                <time>2015-10-31T06:03:58Z</time>
            </trkpt>
            <trkpt lon="100.897412" lat="12.764908">
                <ele>25.130000</ele>
                <time>2015-10-31T06:04:00Z</time>
            </trkpt>
            <trkpt lon="100.897361" lat="12.764922">
                <ele>25.130000</ele>
                <time>2015-10-31T06:04:01Z</time>
            </trkpt>
            <trkpt lon="100.897309" lat="12.764934">
                <ele>25.130000</ele>
                <time>2015-10-31T06:04:02Z</time>
            </trkpt>
            <trkpt lon="100.897258" lat="12.764940">
                <ele>25.130000</ele>
                <time>2015-10-31T06:04:03Z</time>
            </trkpt>
            <trkpt lon="100.897206" lat="12.764940">
                <ele>25.130000</ele>
                <time>2015-10-31T06:04:04Z</time>
            </trkpt>
            <trkpt lon="100.897154" lat="12.764935">
                <ele>24.650000</ele>
                <time>2015-10-31T06:04:05Z</time>
            </trkpt>
            <trkpt lon="100.897104" lat="12.764924">
                <ele>25.130000</ele>
                <time>2015-10-31T06:04:06Z</time>
            </trkpt>
            <trkpt lon="100.897058" lat="12.764904">
                <ele>25.130000</ele>
                <time>2015-10-31T06:04:07Z</time>
            </trkpt>
            <trkpt lon="100.897017" lat="12.764879">
                <ele>25.130000</ele>
                <time>2015-10-31T06:04:08Z</time>
            </trkpt>
            <trkpt lon="100.896979" lat="12.764853">
                <ele>25.130000</ele>
                <time>2015-10-31T06:04:09Z</time>
            </trkpt>
            <trkpt lon="100.896853" lat="12.764804">
                <ele>25.610000</ele>
                <time>2015-10-31T06:04:17Z</time>
            </trkpt>
            <trkpt lon="100.896843" lat="12.764815">
                <ele>25.130000</ele>
                <time>2015-10-31T06:04:21Z</time>
            </trkpt>
            <trkpt lon="100.896853" lat="12.764819">
                <ele>25.130000</ele>
                <time>2015-10-31T06:04:22Z</time>
            </trkpt>
            <trkpt lon="100.896867" lat="12.764825">
                <ele>25.130000</ele>
                <time>2015-10-31T06:04:23Z</time>
            </trkpt>
            <trkpt lon="100.896884" lat="12.764837">
                <ele>25.610000</ele>
                <time>2015-10-31T06:04:24Z</time>
            </trkpt>
            <trkpt lon="100.896903" lat="12.764853">
                <ele>24.650000</ele>
                <time>2015-10-31T06:04:25Z</time>
            </trkpt>
            <trkpt lon="100.896929" lat="12.764872">
                <ele>25.130000</ele>
                <time>2015-10-31T06:04:26Z</time>
            </trkpt>
            <trkpt lon="100.896963" lat="12.764892">
                <ele>25.130000</ele>
                <time>2015-10-31T06:04:27Z</time>
            </trkpt>
            <trkpt lon="100.897000" lat="12.764912">
                <ele>25.130000</ele>
                <time>2015-10-31T06:04:28Z</time>
            </trkpt>
            <trkpt lon="100.897083" lat="12.764948">
                <ele>25.130000</ele>
                <time>2015-10-31T06:04:30Z</time>
            </trkpt>
            <trkpt lon="100.897170" lat="12.764980">
                <ele>24.650000</ele>
                <time>2015-10-31T06:04:32Z</time>
            </trkpt>
            <trkpt lon="100.897204" lat="12.765011">
                <ele>25.130000</ele>
                <time>2015-10-31T06:04:33Z</time>
            </trkpt>
            <trkpt lon="100.897257" lat="12.765090">
                <ele>24.650000</ele>
                <time>2015-10-31T06:04:35Z</time>
            </trkpt>
            <trkpt lon="100.897305" lat="12.765174">
                <ele>24.650000</ele>
                <time>2015-10-31T06:04:37Z</time>
            </trkpt>
            <trkpt lon="100.897419" lat="12.765392">
                <ele>24.650000</ele>
                <time>2015-10-31T06:04:42Z</time>
            </trkpt>
            <trkpt lon="100.897547" lat="12.765624">
                <ele>24.650000</ele>
                <time>2015-10-31T06:04:48Z</time>
            </trkpt>
            <trkpt lon="100.897554" lat="12.765667">
                <ele>24.170000</ele>
                <time>2015-10-31T06:04:49Z</time>
            </trkpt>
            <trkpt lon="100.897561" lat="12.765762">
                <ele>24.170000</ele>
                <time>2015-10-31T06:04:51Z</time>
            </trkpt>
            <trkpt lon="100.897572" lat="12.765811">
                <ele>24.650000</ele>
                <time>2015-10-31T06:04:52Z</time>
            </trkpt>
            <trkpt lon="100.897592" lat="12.765858">
                <ele>24.650000</ele>
                <time>2015-10-31T06:04:53Z</time>
            </trkpt>
            <trkpt lon="100.897624" lat="12.765898">
                <ele>24.170000</ele>
                <time>2015-10-31T06:04:54Z</time>
            </trkpt>
            <trkpt lon="100.897665" lat="12.765931">
                <ele>23.690000</ele>
                <time>2015-10-31T06:04:55Z</time>
            </trkpt>
            <trkpt lon="100.897715" lat="12.765962">
                <ele>24.170000</ele>
                <time>2015-10-31T06:04:56Z</time>
            </trkpt>
            <trkpt lon="100.897872" lat="12.766076">
                <ele>24.170000</ele>
                <time>2015-10-31T06:04:59Z</time>
            </trkpt>
            <trkpt lon="100.897917" lat="12.766121">
                <ele>24.170000</ele>
                <time>2015-10-31T06:05:00Z</time>
            </trkpt>
            <trkpt lon="100.898444" lat="12.766685">
                <ele>23.690000</ele>
                <time>2015-10-31T06:05:12Z</time>
            </trkpt>
            <trkpt lon="100.898600" lat="12.766847">
                <ele>23.690000</ele>
                <time>2015-10-31T06:05:16Z</time>
            </trkpt>
            <trkpt lon="100.898638" lat="12.766889">
                <ele>24.170000</ele>
                <time>2015-10-31T06:05:17Z</time>
            </trkpt>
            <trkpt lon="100.898911" lat="12.767093">
                <ele>23.210000</ele>
                <time>2015-10-31T06:05:23Z</time>
            </trkpt>
            <trkpt lon="100.899200" lat="12.767200">
                <ele>23.690000</ele>
                <time>2015-10-31T06:05:29Z</time>
            </trkpt>
            <trkpt lon="100.899237" lat="12.767233">
                <ele>23.690000</ele>
                <time>2015-10-31T06:05:30Z</time>
            </trkpt>
            <trkpt lon="100.899273" lat="12.767593">
                <ele>24.170000</ele>
                <time>2015-10-31T06:05:37Z</time>
            </trkpt>
            <trkpt lon="100.899493" lat="12.767950">
                <ele>23.210000</ele>
                <time>2015-10-31T06:05:45Z</time>
            </trkpt>
            <trkpt lon="100.899908" lat="12.768160">
                <ele>23.690000</ele>
                <time>2015-10-31T06:05:54Z</time>
            </trkpt>
            <trkpt lon="100.900042" lat="12.768404">
                <ele>23.690000</ele>
                <time>2015-10-31T06:06:02Z</time>
            </trkpt>
            <trkpt lon="100.900112" lat="12.768515">
                <ele>24.170000</ele>
                <time>2015-10-31T06:06:05Z</time>
            </trkpt>
            <trkpt lon="100.900181" lat="12.768586">
                <ele>23.690000</ele>
                <time>2015-10-31T06:06:07Z</time>
            </trkpt>
            <trkpt lon="100.900419" lat="12.768762">
                <ele>23.210000</ele>
                <time>2015-10-31T06:06:13Z</time>
            </trkpt>
            <trkpt lon="100.900386" lat="12.769032">
                <ele>24.170000</ele>
                <time>2015-10-31T06:06:20Z</time>
            </trkpt>
            <trkpt lon="100.899677" lat="12.769496">
                <ele>23.690000</ele>
                <time>2015-10-31T06:06:34Z</time>
            </trkpt>
            <trkpt lon="100.898709" lat="12.770075">
                <ele>22.730000</ele>
                <time>2015-10-31T06:06:50Z</time>
            </trkpt>
            <trkpt lon="100.898304" lat="12.770304">
                <ele>21.770000</ele>
                <time>2015-10-31T06:06:57Z</time>
            </trkpt>
            <trkpt lon="100.898128" lat="12.770329">
                <ele>21.290000</ele>
                <time>2015-10-31T06:07:03Z</time>
            </trkpt>
            <trkpt lon="100.898006" lat="12.770198">
                <ele>20.810000</ele>
                <time>2015-10-31T06:07:08Z</time>
            </trkpt>
            <trkpt lon="100.897561" lat="12.769699">
                <ele>20.810000</ele>
                <time>2015-10-31T06:07:19Z</time>
            </trkpt>
            <trkpt lon="100.897159" lat="12.769274">
                <ele>20.320000</ele>
                <time>2015-10-31T06:07:28Z</time>
            </trkpt>
            <trkpt lon="100.896579" lat="12.768631">
                <ele>20.810000</ele>
                <time>2015-10-31T06:07:41Z</time>
            </trkpt>
            <trkpt lon="100.895928" lat="12.767989">
                <ele>20.810000</ele>
                <time>2015-10-31T06:07:55Z</time>
            </trkpt>
            <trkpt lon="100.895314" lat="12.767420">
                <ele>20.320000</ele>
                <time>2015-10-31T06:08:08Z</time>
            </trkpt>
            <trkpt lon="100.894430" lat="12.766644">
                <ele>19.840000</ele>
                <time>2015-10-31T06:08:24Z</time>
            </trkpt>
            <trkpt lon="100.893772" lat="12.766104">
                <ele>19.840000</ele>
                <time>2015-10-31T06:08:36Z</time>
            </trkpt>
            <trkpt lon="100.893666" lat="12.766023">
                <ele>19.360000</ele>
                <time>2015-10-31T06:08:38Z</time>
            </trkpt>
            <trkpt lon="100.893441" lat="12.765863">
                <ele>19.360000</ele>
                <time>2015-10-31T06:08:42Z</time>
            </trkpt>
            <trkpt lon="100.892538" lat="12.765182">
                <ele>18.880000</ele>
                <time>2015-10-31T06:08:57Z</time>
            </trkpt>
            <trkpt lon="100.892314" lat="12.765002">
                <ele>19.360000</ele>
                <time>2015-10-31T06:09:03Z</time>
            </trkpt>
            <trkpt lon="100.892280" lat="12.764978">
                <ele>19.360000</ele>
                <time>2015-10-31T06:09:04Z</time>
            </trkpt>
            <trkpt lon="100.892245" lat="12.764959">
                <ele>19.360000</ele>
                <time>2015-10-31T06:09:05Z</time>
            </trkpt>
            <trkpt lon="100.892032" lat="12.764784">
                <ele>19.840000</ele>
                <time>2015-10-31T06:09:15Z</time>
            </trkpt>
            <trkpt lon="100.891667" lat="12.764529">
                <ele>19.360000</ele>
                <time>2015-10-31T06:09:30Z</time>
            </trkpt>
            <trkpt lon="100.891365" lat="12.764302">
                <ele>19.360000</ele>
                <time>2015-10-31T06:09:40Z</time>
            </trkpt>
            <trkpt lon="100.891107" lat="12.764095">
                <ele>19.360000</ele>
                <time>2015-10-31T06:09:48Z</time>
            </trkpt>
            <trkpt lon="100.891085" lat="12.764059">
                <ele>19.840000</ele>
                <time>2015-10-31T06:09:49Z</time>
            </trkpt>
            <trkpt lon="100.891069" lat="12.764024">
                <ele>19.840000</ele>
                <time>2015-10-31T06:09:50Z</time>
            </trkpt>
            <trkpt lon="100.891066" lat="12.763990">
                <ele>19.840000</ele>
                <time>2015-10-31T06:09:51Z</time>
            </trkpt>
            <trkpt lon="100.891074" lat="12.763955">
                <ele>20.320000</ele>
                <time>2015-10-31T06:09:52Z</time>
            </trkpt>
            <trkpt lon="100.891091" lat="12.763921">
                <ele>20.810000</ele>
                <time>2015-10-31T06:09:53Z</time>
            </trkpt>
            <trkpt lon="100.891426" lat="12.763655">
                <ele>21.290000</ele>
                <time>2015-10-31T06:10:03Z</time>
            </trkpt>
            <trkpt lon="100.891471" lat="12.763634">
                <ele>21.290000</ele>
                <time>2015-10-31T06:10:04Z</time>
            </trkpt>
            <trkpt lon="100.891519" lat="12.763605">
                <ele>21.770000</ele>
                <time>2015-10-31T06:10:05Z</time>
            </trkpt>
            <trkpt lon="100.891562" lat="12.763570">
                <ele>20.810000</ele>
                <time>2015-10-31T06:10:06Z</time>
            </trkpt>
            <trkpt lon="100.891604" lat="12.763534">
                <ele>20.810000</ele>
                <time>2015-10-31T06:10:07Z</time>
            </trkpt>
            <trkpt lon="100.891647" lat="12.763496">
                <ele>20.320000</ele>
                <time>2015-10-31T06:10:08Z</time>
            </trkpt>
            <trkpt lon="100.892145" lat="12.762953">
                <ele>20.810000</ele>
                <time>2015-10-31T06:10:21Z</time>
            </trkpt>
            <trkpt lon="100.892180" lat="12.762928">
                <ele>20.320000</ele>
                <time>2015-10-31T06:10:22Z</time>
            </trkpt>
            <trkpt lon="100.892302" lat="12.762863">
                <ele>20.810000</ele>
                <time>2015-10-31T06:10:25Z</time>
            </trkpt>
            <trkpt lon="100.892344" lat="12.762849">
                <ele>20.320000</ele>
                <time>2015-10-31T06:10:26Z</time>
            </trkpt>
            <trkpt lon="100.892393" lat="12.762842">
                <ele>20.320000</ele>
                <time>2015-10-31T06:10:27Z</time>
            </trkpt>
            <trkpt lon="100.892442" lat="12.762843">
                <ele>20.320000</ele>
                <time>2015-10-31T06:10:28Z</time>
            </trkpt>
            <trkpt lon="100.892492" lat="12.762845">
                <ele>20.320000</ele>
                <time>2015-10-31T06:10:29Z</time>
            </trkpt>
            <trkpt lon="100.892595" lat="12.762856">
                <ele>20.320000</ele>
                <time>2015-10-31T06:10:31Z</time>
            </trkpt>
            <trkpt lon="100.892646" lat="12.762855">
                <ele>20.320000</ele>
                <time>2015-10-31T06:10:32Z</time>
            </trkpt>
            <trkpt lon="100.892744" lat="12.762843">
                <ele>20.320000</ele>
                <time>2015-10-31T06:10:34Z</time>
            </trkpt>
            <trkpt lon="100.892794" lat="12.762828">
                <ele>20.320000</ele>
                <time>2015-10-31T06:10:35Z</time>
            </trkpt>
            <trkpt lon="100.893150" lat="12.762823">
                <ele>20.320000</ele>
                <time>2015-10-31T06:10:45Z</time>
            </trkpt>
            <trkpt lon="100.893179" lat="12.762836">
                <ele>20.320000</ele>
                <time>2015-10-31T06:10:56Z</time>
            </trkpt>
            <trkpt lon="100.893180" lat="12.762824">
                <ele>20.320000</ele>
                <time>2015-10-31T06:10:57Z</time>
            </trkpt>
            <trkpt lon="100.893176" lat="12.762806">
                <ele>20.320000</ele>
                <time>2015-10-31T06:10:58Z</time>
            </trkpt>
            <trkpt lon="100.893162" lat="12.762788">
                <ele>20.320000</ele>
                <time>2015-10-31T06:10:59Z</time>
            </trkpt>
            <trkpt lon="100.893140" lat="12.762775">
                <ele>20.320000</ele>
                <time>2015-10-31T06:11:00Z</time>
            </trkpt>
            <trkpt lon="100.893115" lat="12.762766">
                <ele>20.320000</ele>
                <time>2015-10-31T06:11:01Z</time>
            </trkpt>
            <trkpt lon="100.893090" lat="12.762760">
                <ele>20.320000</ele>
                <time>2015-10-31T06:11:02Z</time>
            </trkpt>
            <trkpt lon="100.893069" lat="12.762755">
                <ele>20.320000</ele>
                <time>2015-10-31T06:11:03Z</time>
            </trkpt>
            <trkpt lon="100.892829" lat="12.762786">
                <ele>20.320000</ele>
                <time>2015-10-31T06:11:14Z</time>
            </trkpt>
            <trkpt lon="100.892411" lat="12.762805">
                <ele>20.320000</ele>
                <time>2015-10-31T06:11:30Z</time>
            </trkpt>
            <trkpt lon="100.892080" lat="12.762989">
                <ele>19.840000</ele>
                <time>2015-10-31T06:11:41Z</time>
            </trkpt>
            <trkpt lon="100.891632" lat="12.763492">
                <ele>19.840000</ele>
                <time>2015-10-31T06:11:58Z</time>
            </trkpt>
            <trkpt lon="100.891593" lat="12.763532">
                <ele>19.360000</ele>
                <time>2015-10-31T06:11:59Z</time>
            </trkpt>
            <trkpt lon="100.891545" lat="12.763572">
                <ele>19.360000</ele>
                <time>2015-10-31T06:12:00Z</time>
            </trkpt>
            <trkpt lon="100.891492" lat="12.763606">
                <ele>20.320000</ele>
                <time>2015-10-31T06:12:01Z</time>
            </trkpt>
            <trkpt lon="100.891438" lat="12.763630">
                <ele>19.840000</ele>
                <time>2015-10-31T06:12:02Z</time>
            </trkpt>
            <trkpt lon="100.891388" lat="12.763652">
                <ele>20.320000</ele>
                <time>2015-10-31T06:12:03Z</time>
            </trkpt>
            <trkpt lon="100.891349" lat="12.763674">
                <ele>20.320000</ele>
                <time>2015-10-31T06:12:04Z</time>
            </trkpt>
            <trkpt lon="100.891319" lat="12.763693">
                <ele>20.810000</ele>
                <time>2015-10-31T06:12:05Z</time>
            </trkpt>
            <trkpt lon="100.891008" lat="12.763900">
                <ele>18.880000</ele>
                <time>2015-10-31T06:12:16Z</time>
            </trkpt>
            <trkpt lon="100.890964" lat="12.763904">
                <ele>18.400000</ele>
                <time>2015-10-31T06:12:17Z</time>
            </trkpt>
            <trkpt lon="100.890920" lat="12.763895">
                <ele>18.400000</ele>
                <time>2015-10-31T06:12:18Z</time>
            </trkpt>
            <trkpt lon="100.890879" lat="12.763878">
                <ele>18.400000</ele>
                <time>2015-10-31T06:12:19Z</time>
            </trkpt>
            <trkpt lon="100.890839" lat="12.763857">
                <ele>18.400000</ele>
                <time>2015-10-31T06:12:20Z</time>
            </trkpt>
            <trkpt lon="100.890595" lat="12.763710">
                <ele>18.400000</ele>
                <time>2015-10-31T06:12:26Z</time>
            </trkpt>
            <trkpt lon="100.890153" lat="12.763484">
                <ele>17.920000</ele>
                <time>2015-10-31T06:12:39Z</time>
            </trkpt>
            <trkpt lon="100.889823" lat="12.763273">
                <ele>17.920000</ele>
                <time>2015-10-31T06:12:52Z</time>
            </trkpt>
            <trkpt lon="100.889537" lat="12.763101">
                <ele>17.920000</ele>
                <time>2015-10-31T06:13:04Z</time>
            </trkpt>
            <trkpt lon="100.889208" lat="12.762894">
                <ele>17.440000</ele>
                <time>2015-10-31T06:13:17Z</time>
            </trkpt>
            <trkpt lon="100.888566" lat="12.762658">
                <ele>17.440000</ele>
                <time>2015-10-31T06:13:31Z</time>
            </trkpt>
            <trkpt lon="100.888221" lat="12.762508">
                <ele>16.480000</ele>
                <time>2015-10-31T06:13:38Z</time>
            </trkpt>
            <trkpt lon="100.888083" lat="12.762431">
                <ele>16.960000</ele>
                <time>2015-10-31T06:13:41Z</time>
            </trkpt>
            <trkpt lon="100.887415" lat="12.762241">
                <ele>17.440000</ele>
                <time>2015-10-31T06:13:57Z</time>
            </trkpt>
            <trkpt lon="100.887130" lat="12.762140">
                <ele>16.480000</ele>
                <time>2015-10-31T06:14:03Z</time>
            </trkpt>
            <trkpt lon="100.886437" lat="12.761880">
                <ele>16.480000</ele>
                <time>2015-10-31T06:14:19Z</time>
            </trkpt>
            <trkpt lon="100.886395" lat="12.761864">
                <ele>16.480000</ele>
                <time>2015-10-31T06:14:20Z</time>
            </trkpt>
            <trkpt lon="100.885732" lat="12.761614">
                <ele>16.480000</ele>
                <time>2015-10-31T06:14:37Z</time>
            </trkpt>
            <trkpt lon="100.885591" lat="12.761582">
                <ele>16.480000</ele>
                <time>2015-10-31T06:14:43Z</time>
            </trkpt>
            <trkpt lon="100.885582" lat="12.761575">
                <ele>16.960000</ele>
                <time>2015-10-31T06:14:44Z</time>
            </trkpt>
            <trkpt lon="100.885534" lat="12.761548">
                <ele>16.000000</ele>
                <time>2015-10-31T06:14:50Z</time>
            </trkpt>
            <trkpt lon="100.885520" lat="12.761545">
                <ele>16.000000</ele>
                <time>2015-10-31T06:14:51Z</time>
            </trkpt>
            <trkpt lon="100.885507" lat="12.761540">
                <ele>16.480000</ele>
                <time>2015-10-31T06:14:52Z</time>
            </trkpt>
            <trkpt lon="100.885494" lat="12.761537">
                <ele>16.000000</ele>
                <time>2015-10-31T06:14:53Z</time>
            </trkpt>
            <trkpt lon="100.885478" lat="12.761533">
                <ele>16.000000</ele>
                <time>2015-10-31T06:14:54Z</time>
            </trkpt>
            <trkpt lon="100.885116" lat="12.761423">
                <ele>16.000000</ele>
                <time>2015-10-31T06:15:07Z</time>
            </trkpt>
            <trkpt lon="100.885094" lat="12.761399">
                <ele>16.000000</ele>
                <time>2015-10-31T06:15:08Z</time>
            </trkpt>
            <trkpt lon="100.885083" lat="12.761368">
                <ele>16.480000</ele>
                <time>2015-10-31T06:15:09Z</time>
            </trkpt>
            <trkpt lon="100.885086" lat="12.761330">
                <ele>16.000000</ele>
                <time>2015-10-31T06:15:10Z</time>
            </trkpt>
            <trkpt lon="100.885102" lat="12.761288">
                <ele>16.480000</ele>
                <time>2015-10-31T06:15:11Z</time>
            </trkpt>
            <trkpt lon="100.885123" lat="12.761245">
                <ele>16.480000</ele>
                <time>2015-10-31T06:15:12Z</time>
            </trkpt>
            <trkpt lon="100.885216" lat="12.760961">
                <ele>17.440000</ele>
                <time>2015-10-31T06:15:22Z</time>
            </trkpt>
            <trkpt lon="100.885201" lat="12.760943">
                <ele>17.440000</ele>
                <time>2015-10-31T06:15:23Z</time>
            </trkpt>
            <trkpt lon="100.885176" lat="12.760923">
                <ele>16.960000</ele>
                <time>2015-10-31T06:15:24Z</time>
            </trkpt>
            <trkpt lon="100.885032" lat="12.760856">
                <ele>16.480000</ele>
                <time>2015-10-31T06:15:27Z</time>
            </trkpt>
            <trkpt lon="100.884896" lat="12.760810">
                <ele>16.000000</ele>
                <time>2015-10-31T06:15:29Z</time>
            </trkpt>
            <trkpt lon="100.884648" lat="12.760703">
                <ele>15.520000</ele>
                <time>2015-10-31T06:15:33Z</time>
            </trkpt>
            <trkpt lon="100.884596" lat="12.760682">
                <ele>15.520000</ele>
                <time>2015-10-31T06:15:34Z</time>
            </trkpt>
            <trkpt lon="100.884274" lat="12.760524">
                <ele>16.000000</ele>
                <time>2015-10-31T06:15:45Z</time>
            </trkpt>
            <trkpt lon="100.884257" lat="12.760514">
                <ele>16.000000</ele>
                <time>2015-10-31T06:15:50Z</time>
            </trkpt>
            <trkpt lon="100.884244" lat="12.760504">
                <ele>16.000000</ele>
                <time>2015-10-31T06:15:51Z</time>
            </trkpt>
            <trkpt lon="100.884231" lat="12.760494">
                <ele>16.000000</ele>
                <time>2015-10-31T06:15:52Z</time>
            </trkpt>
            <trkpt lon="100.884217" lat="12.760486">
                <ele>16.000000</ele>
                <time>2015-10-31T06:15:53Z</time>
            </trkpt>
            <trkpt lon="100.884204" lat="12.760480">
                <ele>16.000000</ele>
                <time>2015-10-31T06:15:54Z</time>
            </trkpt>
            <trkpt lon="100.884195" lat="12.760481">
                <ele>16.000000</ele>
                <time>2015-10-31T06:16:06Z</time>
            </trkpt>
            <trkpt lon="100.884154" lat="12.760478">
                <ele>16.000000</ele>
                <time>2015-10-31T06:16:14Z</time>
            </trkpt>
            <trkpt lon="100.884133" lat="12.760465">
                <ele>15.520000</ele>
                <time>2015-10-31T06:16:15Z</time>
            </trkpt>
            <trkpt lon="100.883968" lat="12.760392">
                <ele>15.040000</ele>
                <time>2015-10-31T06:16:20Z</time>
            </trkpt>
            <trkpt lon="100.883927" lat="12.760370">
                <ele>15.040000</ele>
                <time>2015-10-31T06:16:21Z</time>
            </trkpt>
            <trkpt lon="100.883176" lat="12.760034">
                <ele>15.520000</ele>
                <time>2015-10-31T06:16:36Z</time>
            </trkpt>
            <trkpt lon="100.882894" lat="12.759893">
                <ele>15.520000</ele>
                <time>2015-10-31T06:16:41Z</time>
            </trkpt>
            <trkpt lon="100.882833" lat="12.759873">
                <ele>15.520000</ele>
                <time>2015-10-31T06:16:42Z</time>
            </trkpt>
            <trkpt lon="100.882769" lat="12.759856">
                <ele>15.520000</ele>
                <time>2015-10-31T06:16:43Z</time>
            </trkpt>
            <trkpt lon="100.882703" lat="12.759844">
                <ele>15.040000</ele>
                <time>2015-10-31T06:16:44Z</time>
            </trkpt>
            <trkpt lon="100.882637" lat="12.759836">
                <ele>15.040000</ele>
                <time>2015-10-31T06:16:45Z</time>
            </trkpt>
            <trkpt lon="100.881751" lat="12.759877">
                <ele>15.040000</ele>
                <time>2015-10-31T06:16:59Z</time>
            </trkpt>
            <trkpt lon="100.881698" lat="12.759865">
                <ele>15.040000</ele>
                <time>2015-10-31T06:17:00Z</time>
            </trkpt>
            <trkpt lon="100.881652" lat="12.759837">
                <ele>15.040000</ele>
                <time>2015-10-31T06:17:01Z</time>
            </trkpt>
            <trkpt lon="100.881620" lat="12.759795">
                <ele>15.040000</ele>
                <time>2015-10-31T06:17:02Z</time>
            </trkpt>
            <trkpt lon="100.881595" lat="12.759748">
                <ele>15.040000</ele>
                <time>2015-10-31T06:17:03Z</time>
            </trkpt>
            <trkpt lon="100.881576" lat="12.759700">
                <ele>15.040000</ele>
                <time>2015-10-31T06:17:04Z</time>
            </trkpt>
            <trkpt lon="100.881562" lat="12.759654">
                <ele>15.040000</ele>
                <time>2015-10-31T06:17:05Z</time>
            </trkpt>
            <trkpt lon="100.881550" lat="12.759613">
                <ele>15.040000</ele>
                <time>2015-10-31T06:17:06Z</time>
            </trkpt>
            <trkpt lon="100.881519" lat="12.759387">
                <ele>15.040000</ele>
                <time>2015-10-31T06:17:14Z</time>
            </trkpt>
            <trkpt lon="100.881508" lat="12.759376">
                <ele>15.040000</ele>
                <time>2015-10-31T06:17:15Z</time>
            </trkpt>
            <trkpt lon="100.881494" lat="12.759366">
                <ele>15.520000</ele>
                <time>2015-10-31T06:17:16Z</time>
            </trkpt>
            <trkpt lon="100.881471" lat="12.759359">
                <ele>15.040000</ele>
                <time>2015-10-31T06:17:17Z</time>
            </trkpt>
            <trkpt lon="100.881439" lat="12.759362">
                <ele>15.040000</ele>
                <time>2015-10-31T06:17:18Z</time>
            </trkpt>
            <trkpt lon="100.881399" lat="12.759371">
                <ele>15.040000</ele>
                <time>2015-10-31T06:17:19Z</time>
            </trkpt>
            <trkpt lon="100.881350" lat="12.759381">
                <ele>15.040000</ele>
                <time>2015-10-31T06:17:20Z</time>
            </trkpt>
            <trkpt lon="100.881296" lat="12.759387">
                <ele>15.040000</ele>
                <time>2015-10-31T06:17:21Z</time>
            </trkpt>
            <trkpt lon="100.880626" lat="12.759516">
                <ele>15.040000</ele>
                <time>2015-10-31T06:17:34Z</time>
            </trkpt>
            <trkpt lon="100.880615" lat="12.759523">
                <ele>14.560000</ele>
                <time>2015-10-31T06:17:35Z</time>
            </trkpt>
            <trkpt lon="100.880569" lat="12.759559">
                <ele>14.560000</ele>
                <time>2015-10-31T06:17:44Z</time>
            </trkpt>
            <trkpt lon="100.880558" lat="12.759561">
                <ele>14.560000</ele>
                <time>2015-10-31T06:17:45Z</time>
            </trkpt>
            <trkpt lon="100.880543" lat="12.759563">
                <ele>14.560000</ele>
                <time>2015-10-31T06:17:46Z</time>
            </trkpt>
            <trkpt lon="100.880216" lat="12.759578">
                <ele>14.560000</ele>
                <time>2015-10-31T06:17:56Z</time>
            </trkpt>
            <trkpt lon="100.880182" lat="12.759557">
                <ele>14.560000</ele>
                <time>2015-10-31T06:17:57Z</time>
            </trkpt>
            <trkpt lon="100.880157" lat="12.759523">
                <ele>14.560000</ele>
                <time>2015-10-31T06:17:58Z</time>
            </trkpt>
            <trkpt lon="100.880142" lat="12.759483">
                <ele>14.560000</ele>
                <time>2015-10-31T06:17:59Z</time>
            </trkpt>
            <trkpt lon="100.880136" lat="12.759440">
                <ele>14.560000</ele>
                <time>2015-10-31T06:18:00Z</time>
            </trkpt>
            <trkpt lon="100.880133" lat="12.759392">
                <ele>14.560000</ele>
                <time>2015-10-31T06:18:01Z</time>
            </trkpt>
            <trkpt lon="100.880136" lat="12.758627">
                <ele>14.560000</ele>
                <time>2015-10-31T06:18:16Z</time>
            </trkpt>
            <trkpt lon="100.880131" lat="12.757949">
                <ele>15.520000</ele>
                <time>2015-10-31T06:18:30Z</time>
            </trkpt>
            <trkpt lon="100.880128" lat="12.757896">
                <ele>15.520000</ele>
                <time>2015-10-31T06:18:31Z</time>
            </trkpt>
            <trkpt lon="100.880120" lat="12.757678">
                <ele>14.560000</ele>
                <time>2015-10-31T06:18:35Z</time>
            </trkpt>
            <trkpt lon="100.880119" lat="12.757624">
                <ele>14.560000</ele>
                <time>2015-10-31T06:18:36Z</time>
            </trkpt>
            <trkpt lon="100.880113" lat="12.757570">
                <ele>14.560000</ele>
                <time>2015-10-31T06:18:37Z</time>
            </trkpt>
            <trkpt lon="100.880103" lat="12.757514">
                <ele>15.040000</ele>
                <time>2015-10-31T06:18:38Z</time>
            </trkpt>
            <trkpt lon="100.880090" lat="12.757457">
                <ele>14.560000</ele>
                <time>2015-10-31T06:18:39Z</time>
            </trkpt>
            <trkpt lon="100.879898" lat="12.756644">
                <ele>14.080000</ele>
                <time>2015-10-31T06:18:54Z</time>
            </trkpt>
            <trkpt lon="100.879889" lat="12.756604">
                <ele>14.080000</ele>
                <time>2015-10-31T06:18:55Z</time>
            </trkpt>
            <trkpt lon="100.879846" lat="12.756445">
                <ele>15.040000</ele>
                <time>2015-10-31T06:18:59Z</time>
            </trkpt>
            <trkpt lon="100.879797" lat="12.756356">
                <ele>15.040000</ele>
                <time>2015-10-31T06:19:01Z</time>
            </trkpt>
            <trkpt lon="100.879761" lat="12.756318">
                <ele>15.520000</ele>
                <time>2015-10-31T06:19:02Z</time>
            </trkpt>
            <trkpt lon="100.879714" lat="12.756295">
                <ele>15.040000</ele>
                <time>2015-10-31T06:19:03Z</time>
            </trkpt>
            <trkpt lon="100.879665" lat="12.756277">
                <ele>15.040000</ele>
                <time>2015-10-31T06:19:04Z</time>
            </trkpt>
            <trkpt lon="100.879616" lat="12.756258">
                <ele>15.520000</ele>
                <time>2015-10-31T06:19:05Z</time>
            </trkpt>
            <trkpt lon="100.879465" lat="12.756262">
                <ele>15.040000</ele>
                <time>2015-10-31T06:19:08Z</time>
            </trkpt>
            <trkpt lon="100.879359" lat="12.756271">
                <ele>15.520000</ele>
                <time>2015-10-31T06:19:10Z</time>
            </trkpt>
            <trkpt lon="100.878876" lat="12.756487">
                <ele>15.040000</ele>
                <time>2015-10-31T06:19:22Z</time>
            </trkpt>
            <trkpt lon="100.878588" lat="12.756655">
                <ele>14.560000</ele>
                <time>2015-10-31T06:19:31Z</time>
            </trkpt>
            <trkpt lon="100.878292" lat="12.756751">
                <ele>14.560000</ele>
                <time>2015-10-31T06:19:43Z</time>
            </trkpt>
            <trkpt lon="100.878123" lat="12.756759">
                <ele>14.560000</ele>
                <time>2015-10-31T06:19:49Z</time>
            </trkpt>
            <trkpt lon="100.877630" lat="12.756840">
                <ele>15.040000</ele>
                <time>2015-10-31T06:20:03Z</time>
            </trkpt>
            <trkpt lon="100.877353" lat="12.756790">
                <ele>15.520000</ele>
                <time>2015-10-31T06:20:13Z</time>
            </trkpt>
            <trkpt lon="100.877293" lat="12.756677">
                <ele>16.960000</ele>
                <time>2015-10-31T06:20:19Z</time>
            </trkpt>
            <trkpt lon="100.877293" lat="12.756662">
                <ele>17.920000</ele>
                <time>2015-10-31T06:20:21Z</time>
            </trkpt>
            <trkpt lon="100.877111" lat="12.756630">
                <ele>17.440000</ele>
                <time>2015-10-31T06:20:30Z</time>
            </trkpt>
            <trkpt lon="100.876648" lat="12.756574">
                <ele>17.440000</ele>
                <time>2015-10-31T06:20:44Z</time>
            </trkpt>
            <trkpt lon="100.876228" lat="12.756532">
                <ele>17.440000</ele>
                <time>2015-10-31T06:20:58Z</time>
            </trkpt>
            <trkpt lon="100.876041" lat="12.756532">
                <ele>17.920000</ele>
                <time>2015-10-31T06:21:05Z</time>
            </trkpt>
            <trkpt lon="100.875901" lat="12.756411">
                <ele>18.400000</ele>
                <time>2015-10-31T06:21:13Z</time>
            </trkpt>
            <trkpt lon="100.875998" lat="12.756190">
                <ele>17.440000</ele>
                <time>2015-10-31T06:21:24Z</time>
            </trkpt>
            <trkpt lon="100.876141" lat="12.755953">
                <ele>16.480000</ele>
                <time>2015-10-31T06:21:33Z</time>
            </trkpt>
            <trkpt lon="100.876320" lat="12.755608">
                <ele>16.480000</ele>
                <time>2015-10-31T06:21:45Z</time>
            </trkpt>
            <trkpt lon="100.876440" lat="12.755354">
                <ele>17.440000</ele>
                <time>2015-10-31T06:21:53Z</time>
            </trkpt>
            <trkpt lon="100.876571" lat="12.755137">
                <ele>17.440000</ele>
                <time>2015-10-31T06:22:03Z</time>
            </trkpt>
            <trkpt lon="100.876626" lat="12.754972">
                <ele>17.440000</ele>
                <time>2015-10-31T06:22:13Z</time>
            </trkpt>
            <trkpt lon="100.876629" lat="12.754953">
                <ele>17.440000</ele>
                <time>2015-10-31T06:22:29Z</time>
            </trkpt>
            <trkpt lon="100.876550" lat="12.754795">
                <ele>17.920000</ele>
                <time>2015-10-31T06:22:42Z</time>
            </trkpt>
            <trkpt lon="100.876550" lat="12.754795">
                <ele>18.400000</ele>
                <time>2015-10-31T06:22:52Z</time>
            </trkpt>
            <trkpt lon="100.876523" lat="12.754764">
                <ele>18.880000</ele>
                <time>2015-10-31T06:23:03Z</time>
            </trkpt>
            <trkpt lon="100.876485" lat="12.754668">
                <ele>20.320000</ele>
                <time>2015-10-31T06:23:14Z</time>
            </trkpt>
            <trkpt lon="100.876487" lat="12.754622">
                <ele>18.880000</ele>
                <time>2015-10-31T06:23:18Z</time>
            </trkpt>
            <trkpt lon="100.876371" lat="12.754471">
                <ele>18.400000</ele>
                <time>2015-10-31T06:23:27Z</time>
            </trkpt>
            <trkpt lon="100.876286" lat="12.754206">
                <ele>18.400000</ele>
                <time>2015-10-31T06:23:37Z</time>
            </trkpt>
            <trkpt lon="100.876099" lat="12.754219">
                <ele>18.880000</ele>
                <time>2015-10-31T06:23:47Z</time>
            </trkpt>
            <trkpt lon="100.875949" lat="12.754101">
                <ele>20.320000</ele>
                <time>2015-10-31T06:23:56Z</time>
            </trkpt>
            <trkpt lon="100.875821" lat="12.753945">
                <ele>20.320000</ele>
                <time>2015-10-31T06:24:05Z</time>
            </trkpt>
            <trkpt lon="100.875743" lat="12.753805">
                <ele>20.320000</ele>
                <time>2015-10-31T06:24:12Z</time>
            </trkpt>
            <trkpt lon="100.875626" lat="12.753720">
                <ele>21.290000</ele>
                <time>2015-10-31T06:24:22Z</time>
            </trkpt>
            <trkpt lon="100.875593" lat="12.753670">
                <ele>22.250000</ele>
                <time>2015-10-31T06:24:32Z</time>
            </trkpt>
            <trkpt lon="100.875597" lat="12.753665">
                <ele>22.250000</ele>
                <time>2015-10-31T06:24:33Z</time>
            </trkpt>
            <trkpt lon="100.875575" lat="12.753639">
                <ele>22.250000</ele>
                <time>2015-10-31T06:24:36Z</time>
            </trkpt>
            <trkpt lon="100.875574" lat="12.753580">
                <ele>23.690000</ele>
                <time>2015-10-31T06:24:40Z</time>
            </trkpt>
            <trkpt lon="100.875672" lat="12.753499">
                <ele>27.530000</ele>
                <time>2015-10-31T06:24:52Z</time>
            </trkpt>
            <trkpt lon="100.875689" lat="12.753475">
                <ele>27.530000</ele>
                <time>2015-10-31T06:24:56Z</time>
            </trkpt>
            <trkpt lon="100.875712" lat="12.753414">
                <ele>27.530000</ele>
                <time>2015-10-31T06:25:05Z</time>
            </trkpt>
            <trkpt lon="100.875790" lat="12.753347">
                <ele>27.530000</ele>
                <time>2015-10-31T06:25:11Z</time>
            </trkpt>
            <trkpt lon="100.875947" lat="12.752995">
                <ele>27.050000</ele>
                <time>2015-10-31T06:25:24Z</time>
            </trkpt>
            <trkpt lon="100.875889" lat="12.752607">
                <ele>27.050000</ele>
                <time>2015-10-31T06:25:35Z</time>
            </trkpt>
            <trkpt lon="100.875635" lat="12.752264">
                <ele>27.530000</ele>
                <time>2015-10-31T06:25:46Z</time>
            </trkpt>
            <trkpt lon="100.875502" lat="12.752081">
                <ele>27.530000</ele>
                <time>2015-10-31T06:25:51Z</time>
            </trkpt>
            <trkpt lon="100.875148" lat="12.751612">
                <ele>27.050000</ele>
                <time>2015-10-31T06:26:04Z</time>
            </trkpt>
            <trkpt lon="100.875034" lat="12.751532">
                <ele>26.090000</ele>
                <time>2015-10-31T06:26:10Z</time>
            </trkpt>
            <trkpt lon="100.874991" lat="12.751488">
                <ele>24.170000</ele>
                <time>2015-10-31T06:26:12Z</time>
            </trkpt>
            <trkpt lon="100.874956" lat="12.751455">
                <ele>24.170000</ele>
                <time>2015-10-31T06:26:13Z</time>
            </trkpt>
            <trkpt lon="100.874905" lat="12.751431">
                <ele>23.690000</ele>
                <time>2015-10-31T06:26:14Z</time>
            </trkpt>
            <trkpt lon="100.874856" lat="12.751417">
                <ele>23.690000</ele>
                <time>2015-10-31T06:26:15Z</time>
            </trkpt>
            <trkpt lon="100.874813" lat="12.751413">
                <ele>24.170000</ele>
                <time>2015-10-31T06:26:16Z</time>
            </trkpt>
            <trkpt lon="100.874771" lat="12.751408">
                <ele>24.170000</ele>
                <time>2015-10-31T06:26:17Z</time>
            </trkpt>
            <trkpt lon="100.874732" lat="12.751401">
                <ele>24.650000</ele>
                <time>2015-10-31T06:26:18Z</time>
            </trkpt>
            <trkpt lon="100.874699" lat="12.751391">
                <ele>24.650000</ele>
                <time>2015-10-31T06:26:19Z</time>
            </trkpt>
            <trkpt lon="100.874419" lat="12.751367">
                <ele>26.570000</ele>
                <time>2015-10-31T06:26:29Z</time>
            </trkpt>
            <trkpt lon="100.873921" lat="12.751526">
                <ele>27.050000</ele>
                <time>2015-10-31T06:26:42Z</time>
            </trkpt>
            <trkpt lon="100.873881" lat="12.751536">
                <ele>27.050000</ele>
                <time>2015-10-31T06:26:43Z</time>
            </trkpt>
            <trkpt lon="100.873840" lat="12.751543">
                <ele>28.020000</ele>
                <time>2015-10-31T06:26:44Z</time>
            </trkpt>
            <trkpt lon="100.873756" lat="12.751565">
                <ele>27.050000</ele>
                <time>2015-10-31T06:26:46Z</time>
            </trkpt>
            <trkpt lon="100.873286" lat="12.751716">
                <ele>28.980000</ele>
                <time>2015-10-31T06:26:59Z</time>
            </trkpt>
            <trkpt lon="100.872907" lat="12.751839">
                <ele>31.380000</ele>
                <time>2015-10-31T06:27:12Z</time>
            </trkpt>
            <trkpt lon="100.872479" lat="12.751963">
                <ele>33.780000</ele>
                <time>2015-10-31T06:27:28Z</time>
            </trkpt>
            <trkpt lon="100.872191" lat="12.752068">
                <ele>35.230000</ele>
                <time>2015-10-31T06:27:40Z</time>
            </trkpt>
            <trkpt lon="100.871939" lat="12.752139">
                <ele>36.190000</ele>
                <time>2015-10-31T06:27:53Z</time>
            </trkpt>
            <trkpt lon="100.871912" lat="12.752162">
                <ele>36.190000</ele>
                <time>2015-10-31T06:27:55Z</time>
            </trkpt>
            <trkpt lon="100.871901" lat="12.752185">
                <ele>36.190000</ele>
                <time>2015-10-31T06:27:56Z</time>
            </trkpt>
            <trkpt lon="100.871884" lat="12.752206">
                <ele>36.190000</ele>
                <time>2015-10-31T06:27:57Z</time>
            </trkpt>
            <trkpt lon="100.871825" lat="12.752254">
                <ele>36.190000</ele>
                <time>2015-10-31T06:28:01Z</time>
            </trkpt>
            <trkpt lon="100.871802" lat="12.752265">
                <ele>36.670000</ele>
                <time>2015-10-31T06:28:03Z</time>
            </trkpt>
            <trkpt lon="100.871778" lat="12.752289">
                <ele>36.670000</ele>
                <time>2015-10-31T06:28:14Z</time>
            </trkpt>
            <trkpt lon="100.871776" lat="12.752313">
                <ele>36.190000</ele>
                <time>2015-10-31T06:28:29Z</time>
            </trkpt>
            <trkpt lon="100.871776" lat="12.752313">
                <ele>36.190000</ele>
                <time>2015-10-31T06:28:51Z</time>
            </trkpt>
            <trkpt lon="100.871772" lat="12.752311">
                <ele>35.710000</ele>
                <time>2015-10-31T06:29:19Z</time>
            </trkpt>
            <trkpt lon="100.871776" lat="12.752311">
                <ele>36.190000</ele>
                <time>2015-10-31T06:29:52Z</time>
            </trkpt>
            <trkpt lon="100.871776" lat="12.752311">
                <ele>35.710000</ele>
                <time>2015-10-31T06:30:21Z</time>
            </trkpt>
            <trkpt lon="100.871781" lat="12.752302">
                <ele>37.150000</ele>
                <time>2015-10-31T06:30:39Z</time>
            </trkpt>
            <trkpt lon="100.871799" lat="12.752295">
                <ele>36.670000</ele>
                <time>2015-10-31T06:30:50Z</time>
            </trkpt>
            <trkpt lon="100.871802" lat="12.752296">
                <ele>36.190000</ele>
                <time>2015-10-31T06:31:10Z</time>
            </trkpt>
            <trkpt lon="100.871802" lat="12.752296">
                <ele>32.340000</ele>
                <time>2015-10-31T06:31:13Z</time>
            </trkpt>
            <trkpt lon="100.871802" lat="12.752296">
                <ele>38.590000</ele>
                <time>2015-10-31T06:31:14Z</time>
            </trkpt>
            <trkpt lon="100.871802" lat="12.752296">
                <ele>37.630000</ele>
                <time>2015-10-31T06:31:15Z</time>
            </trkpt>
            <trkpt lon="100.871802" lat="12.752296">
                <ele>34.260000</ele>
                <time>2015-10-31T06:31:16Z</time>
            </trkpt>
            <trkpt lon="100.871802" lat="12.752296">
                <ele>37.630000</ele>
                <time>2015-10-31T06:31:17Z</time>
            </trkpt>
            <trkpt lon="100.871849" lat="12.752268">
                <ele>36.670000</ele>
                <time>2015-10-31T06:31:41Z</time>
            </trkpt>
            <trkpt lon="100.871891" lat="12.752310">
                <ele>36.190000</ele>
                <time>2015-10-31T06:31:48Z</time>
            </trkpt>
            <trkpt lon="100.871874" lat="12.752412">
                <ele>35.710000</ele>
                <time>2015-10-31T06:31:59Z</time>
            </trkpt>
            <trkpt lon="100.871848" lat="12.752420">
                <ele>35.710000</ele>
                <time>2015-10-31T06:32:02Z</time>
            </trkpt>
            <trkpt lon="100.871827" lat="12.752399">
                <ele>36.190000</ele>
                <time>2015-10-31T06:32:15Z</time>
            </trkpt>
            <trkpt lon="100.871827" lat="12.752399">
                <ele>36.670000</ele>
                <time>2015-10-31T06:32:35Z</time>
            </trkpt>
            <trkpt lon="100.871826" lat="12.752401">
                <ele>36.670000</ele>
                <time>2015-10-31T06:33:05Z</time>
            </trkpt>
            <trkpt lon="100.871817" lat="12.752388">
                <ele>37.150000</ele>
                <time>2015-10-31T06:33:20Z</time>
            </trkpt>
            <trkpt lon="100.871798" lat="12.752350">
                <ele>37.150000</ele>
                <time>2015-10-31T06:33:38Z</time>
            </trkpt>
            <trkpt lon="100.871786" lat="12.752313">
                <ele>37.150000</ele>
                <time>2015-10-31T06:33:57Z</time>
            </trkpt>
            <trkpt lon="100.871720" lat="12.752286">
                <ele>36.670000</ele>
                <time>2015-10-31T06:34:05Z</time>
            </trkpt>
            <trkpt lon="100.871686" lat="12.752297">
                <ele>37.150000</ele>
                <time>2015-10-31T06:34:09Z</time>
            </trkpt>
            <trkpt lon="100.871353" lat="12.752367">
                <ele>37.150000</ele>
                <time>2015-10-31T06:34:21Z</time>
            </trkpt>
            <trkpt lon="100.870560" lat="12.752602">
                <ele>33.300000</ele>
                <time>2015-10-31T06:34:36Z</time>
            </trkpt>
            <trkpt lon="100.869835" lat="12.752804">
                <ele>30.420000</ele>
                <time>2015-10-31T06:34:45Z</time>
            </trkpt>
            <trkpt lon="100.869588" lat="12.752885">
                <ele>28.980000</ele>
                <time>2015-10-31T06:34:48Z</time>
            </trkpt>
            <trkpt lon="100.868779" lat="12.753147">
                <ele>25.610000</ele>
                <time>2015-10-31T06:34:58Z</time>
            </trkpt>
            <trkpt lon="100.868594" lat="12.753207">
                <ele>25.610000</ele>
                <time>2015-10-31T06:35:01Z</time>
            </trkpt>
            <trkpt lon="100.868540" lat="12.753215">
                <ele>25.610000</ele>
                <time>2015-10-31T06:35:02Z</time>
            </trkpt>
            <trkpt lon="100.868487" lat="12.753205">
                <ele>25.130000</ele>
                <time>2015-10-31T06:35:03Z</time>
            </trkpt>
            <trkpt lon="100.868440" lat="12.753179">
                <ele>25.610000</ele>
                <time>2015-10-31T06:35:04Z</time>
            </trkpt>
            <trkpt lon="100.868379" lat="12.753099">
                <ele>25.610000</ele>
                <time>2015-10-31T06:35:06Z</time>
            </trkpt>
            <trkpt lon="100.868314" lat="12.752973">
                <ele>27.050000</ele>
                <time>2015-10-31T06:35:09Z</time>
            </trkpt>
            <trkpt lon="100.868120" lat="12.752731">
                <ele>30.420000</ele>
                <time>2015-10-31T06:35:18Z</time>
            </trkpt>
            <trkpt lon="100.867759" lat="12.752530">
                <ele>31.860000</ele>
                <time>2015-10-31T06:35:33Z</time>
            </trkpt>
            <trkpt lon="100.867448" lat="12.752343">
                <ele>32.340000</ele>
                <time>2015-10-31T06:35:42Z</time>
            </trkpt>
            <trkpt lon="100.866611" lat="12.751887">
                <ele>30.420000</ele>
                <time>2015-10-31T06:36:02Z</time>
            </trkpt>
            <trkpt lon="100.865848" lat="12.751425">
                <ele>29.940000</ele>
                <time>2015-10-31T06:36:17Z</time>
            </trkpt>
            <trkpt lon="100.865567" lat="12.751267">
                <ele>29.460000</ele>
                <time>2015-10-31T06:36:23Z</time>
            </trkpt>
            <trkpt lon="100.865406" lat="12.751215">
                <ele>28.980000</ele>
                <time>2015-10-31T06:36:26Z</time>
            </trkpt>
            <trkpt lon="100.864679" lat="12.750824">
                <ele>28.500000</ele>
                <time>2015-10-31T06:36:39Z</time>
            </trkpt>
            <trkpt lon="100.864004" lat="12.750457">
                <ele>28.500000</ele>
                <time>2015-10-31T06:36:52Z</time>
            </trkpt>
            <trkpt lon="100.863184" lat="12.750083">
                <ele>26.090000</ele>
                <time>2015-10-31T06:37:06Z</time>
            </trkpt>
            <trkpt lon="100.862823" lat="12.750081">
                <ele>24.650000</ele>
                <time>2015-10-31T06:37:13Z</time>
            </trkpt>
            <trkpt lon="100.862677" lat="12.750119">
                <ele>23.210000</ele>
                <time>2015-10-31T06:37:17Z</time>
            </trkpt>
            <trkpt lon="100.862579" lat="12.749876">
                <ele>24.170000</ele>
                <time>2015-10-31T06:37:25Z</time>
            </trkpt>
            <trkpt lon="100.862488" lat="12.749557">
                <ele>25.130000</ele>
                <time>2015-10-31T06:37:33Z</time>
            </trkpt>
            <trkpt lon="100.862234" lat="12.749557">
                <ele>24.650000</ele>
                <time>2015-10-31T06:37:39Z</time>
            </trkpt>
            <trkpt lon="100.861351" lat="12.749805">
                <ele>24.650000</ele>
                <time>2015-10-31T06:37:55Z</time>
            </trkpt>
            <trkpt lon="100.860514" lat="12.750039">
                <ele>24.170000</ele>
                <time>2015-10-31T06:38:09Z</time>
            </trkpt>
            <trkpt lon="100.859479" lat="12.750344">
                <ele>24.170000</ele>
                <time>2015-10-31T06:38:25Z</time>
            </trkpt>
            <trkpt lon="100.858642" lat="12.750568">
                <ele>22.250000</ele>
                <time>2015-10-31T06:38:37Z</time>
            </trkpt>
            <trkpt lon="100.858428" lat="12.750625">
                <ele>21.770000</ele>
                <time>2015-10-31T06:38:40Z</time>
            </trkpt>
            <trkpt lon="100.858326" lat="12.750901">
                <ele>21.290000</ele>
                <time>2015-10-31T06:38:46Z</time>
            </trkpt>
            <trkpt lon="100.858684" lat="12.751843">
                <ele>19.840000</ele>
                <time>2015-10-31T06:39:01Z</time>
            </trkpt>
            <trkpt lon="100.858813" lat="12.752165">
                <ele>18.880000</ele>
                <time>2015-10-31T06:39:06Z</time>
            </trkpt>
            <trkpt lon="100.858668" lat="12.752455">
                <ele>18.400000</ele>
                <time>2015-10-31T06:39:13Z</time>
            </trkpt>
            <trkpt lon="100.857681" lat="12.752738">
                <ele>17.440000</ele>
                <time>2015-10-31T06:39:29Z</time>
            </trkpt>
            <trkpt lon="100.857624" lat="12.752762">
                <ele>17.440000</ele>
                <time>2015-10-31T06:39:30Z</time>
            </trkpt>
            <trkpt lon="100.857225" lat="12.752710">
                <ele>16.480000</ele>
                <time>2015-10-31T06:39:37Z</time>
            </trkpt>
            <trkpt lon="100.857118" lat="12.752645">
                <ele>16.960000</ele>
                <time>2015-10-31T06:39:39Z</time>
            </trkpt>
            <trkpt lon="100.856329" lat="12.752226">
                <ele>16.960000</ele>
                <time>2015-10-31T06:39:53Z</time>
            </trkpt>
            <trkpt lon="100.855436" lat="12.751774">
                <ele>17.440000</ele>
                <time>2015-10-31T06:40:10Z</time>
            </trkpt>
            <trkpt lon="100.854563" lat="12.751318">
                <ele>17.440000</ele>
                <time>2015-10-31T06:40:26Z</time>
            </trkpt>
            <trkpt lon="100.853590" lat="12.750803">
                <ele>16.000000</ele>
                <time>2015-10-31T06:40:43Z</time>
            </trkpt>
            <trkpt lon="100.853396" lat="12.750697">
                <ele>16.480000</ele>
                <time>2015-10-31T06:40:47Z</time>
            </trkpt>
            <trkpt lon="100.853143" lat="12.750544">
                <ele>16.000000</ele>
                <time>2015-10-31T06:40:54Z</time>
            </trkpt>
            <trkpt lon="100.852790" lat="12.750369">
                <ele>16.000000</ele>
                <time>2015-10-31T06:41:04Z</time>
            </trkpt>
            <trkpt lon="100.852754" lat="12.750353">
                <ele>16.000000</ele>
                <time>2015-10-31T06:41:15Z</time>
            </trkpt>
            <trkpt lon="100.852725" lat="12.750326">
                <ele>16.480000</ele>
                <time>2015-10-31T06:41:27Z</time>
            </trkpt>
            <trkpt lon="100.852725" lat="12.750326">
                <ele>16.000000</ele>
                <time>2015-10-31T06:41:54Z</time>
            </trkpt>
            <trkpt lon="100.852724" lat="12.750325">
                <ele>16.000000</ele>
                <time>2015-10-31T06:42:11Z</time>
            </trkpt>
            <trkpt lon="100.852679" lat="12.750314">
                <ele>15.520000</ele>
                <time>2015-10-31T06:42:24Z</time>
            </trkpt>
            <trkpt lon="100.852679" lat="12.750314">
                <ele>15.520000</ele>
                <time>2015-10-31T06:42:27Z</time>
            </trkpt>
            <trkpt lon="100.852549" lat="12.750269">
                <ele>16.000000</ele>
                <time>2015-10-31T06:42:41Z</time>
            </trkpt>
            <trkpt lon="100.852543" lat="12.750270">
                <ele>16.000000</ele>
                <time>2015-10-31T06:42:58Z</time>
            </trkpt>
            <trkpt lon="100.852463" lat="12.750253">
                <ele>16.000000</ele>
                <time>2015-10-31T06:43:23Z</time>
            </trkpt>
            <trkpt lon="100.852436" lat="12.750252">
                <ele>16.000000</ele>
                <time>2015-10-31T06:43:24Z</time>
            </trkpt>
            <trkpt lon="100.852275" lat="12.750200">
                <ele>16.000000</ele>
                <time>2015-10-31T06:43:33Z</time>
            </trkpt>
            <trkpt lon="100.852227" lat="12.750131">
                <ele>15.040000</ele>
                <time>2015-10-31T06:43:47Z</time>
            </trkpt>
            <trkpt lon="100.852231" lat="12.750048">
                <ele>14.080000</ele>
                <time>2015-10-31T06:43:58Z</time>
            </trkpt>
            <trkpt lon="100.852244" lat="12.749984">
                <ele>14.560000</ele>
                <time>2015-10-31T06:44:09Z</time>
            </trkpt>
            <trkpt lon="100.852247" lat="12.749970">
                <ele>15.040000</ele>
                <time>2015-10-31T06:44:10Z</time>
            </trkpt>
            <trkpt lon="100.852224" lat="12.749852">
                <ele>15.520000</ele>
                <time>2015-10-31T06:44:17Z</time>
            </trkpt>
            <trkpt lon="100.852221" lat="12.749755">
                <ele>16.960000</ele>
                <time>2015-10-31T06:44:26Z</time>
            </trkpt>
            <trkpt lon="100.852178" lat="12.749579">
                <ele>18.880000</ele>
                <time>2015-10-31T06:44:40Z</time>
            </trkpt>
            <trkpt lon="100.852223" lat="12.749494">
                <ele>19.360000</ele>
                <time>2015-10-31T06:44:53Z</time>
            </trkpt>
            <trkpt lon="100.852238" lat="12.749420">
                <ele>19.840000</ele>
                <time>2015-10-31T06:45:05Z</time>
            </trkpt>
            <trkpt lon="100.852239" lat="12.749346">
                <ele>20.320000</ele>
                <time>2015-10-31T06:45:10Z</time>
            </trkpt>
            <trkpt lon="100.852166" lat="12.749165">
                <ele>21.290000</ele>
                <time>2015-10-31T06:45:23Z</time>
            </trkpt>
            <trkpt lon="100.852156" lat="12.749144">
                <ele>20.810000</ele>
                <time>2015-10-31T06:45:27Z</time>
            </trkpt>
            <trkpt lon="100.852106" lat="12.749048">
                <ele>21.290000</ele>
                <time>2015-10-31T06:45:34Z</time>
            </trkpt>
            <trkpt lon="100.852135" lat="12.749007">
                <ele>21.290000</ele>
                <time>2015-10-31T06:45:38Z</time>
            </trkpt>
            <trkpt lon="100.852222" lat="12.748828">
                <ele>22.250000</ele>
                <time>2015-10-31T06:45:51Z</time>
            </trkpt>
            <trkpt lon="100.852284" lat="12.748724">
                <ele>23.210000</ele>
                <time>2015-10-31T06:46:03Z</time>
            </trkpt>
            <trkpt lon="100.852303" lat="12.748695">
                <ele>23.210000</ele>
                <time>2015-10-31T06:46:05Z</time>
            </trkpt>
            <trkpt lon="100.852342" lat="12.748642">
                <ele>23.210000</ele>
                <time>2015-10-31T06:46:08Z</time>
            </trkpt>
            <trkpt lon="100.852473" lat="12.748547">
                <ele>23.690000</ele>
                <time>2015-10-31T06:46:19Z</time>
            </trkpt>
            <trkpt lon="100.852497" lat="12.748409">
                <ele>24.170000</ele>
                <time>2015-10-31T06:46:32Z</time>
            </trkpt>
            <trkpt lon="100.852546" lat="12.748295">
                <ele>24.650000</ele>
                <time>2015-10-31T06:46:38Z</time>
            </trkpt>
            <trkpt lon="100.852466" lat="12.748028">
                <ele>26.090000</ele>
                <time>2015-10-31T06:46:53Z</time>
            </trkpt>
            <trkpt lon="100.852437" lat="12.747907">
                <ele>27.530000</ele>
                <time>2015-10-31T06:47:03Z</time>
            </trkpt>
            <trkpt lon="100.852540" lat="12.747802">
                <ele>27.530000</ele>
                <time>2015-10-31T06:47:15Z</time>
            </trkpt>
            <trkpt lon="100.852625" lat="12.747721">
                <ele>28.020000</ele>
                <time>2015-10-31T06:47:22Z</time>
            </trkpt>
            <trkpt lon="100.852896" lat="12.747635">
                <ele>27.530000</ele>
                <time>2015-10-31T06:47:35Z</time>
            </trkpt>
            <trkpt lon="100.852918" lat="12.747633">
                <ele>27.530000</ele>
                <time>2015-10-31T06:47:36Z</time>
            </trkpt>
            <trkpt lon="100.853073" lat="12.747547">
                <ele>27.530000</ele>
                <time>2015-10-31T06:47:50Z</time>
            </trkpt>
            <trkpt lon="100.853082" lat="12.747529">
                <ele>28.020000</ele>
                <time>2015-10-31T06:47:51Z</time>
            </trkpt>
            <trkpt lon="100.853119" lat="12.747398">
                <ele>28.980000</ele>
                <time>2015-10-31T06:48:04Z</time>
            </trkpt>
            <trkpt lon="100.853134" lat="12.747385">
                <ele>29.460000</ele>
                <time>2015-10-31T06:48:27Z</time>
            </trkpt>
            <trkpt lon="100.853137" lat="12.747378">
                <ele>28.980000</ele>
                <time>2015-10-31T06:48:44Z</time>
            </trkpt>
            <trkpt lon="100.853148" lat="12.747355">
                <ele>27.530000</ele>
                <time>2015-10-31T06:49:01Z</time>
            </trkpt>
            <trkpt lon="100.853171" lat="12.747352">
                <ele>22.730000</ele>
                <time>2015-10-31T06:49:16Z</time>
            </trkpt>
            <trkpt lon="100.853176" lat="12.747348">
                <ele>27.050000</ele>
                <time>2015-10-31T06:49:17Z</time>
            </trkpt>
            <trkpt lon="100.853200" lat="12.747355">
                <ele>32.820000</ele>
                <time>2015-10-31T06:49:32Z</time>
            </trkpt>
            <trkpt lon="100.853200" lat="12.747356">
                <ele>28.980000</ele>
                <time>2015-10-31T06:49:33Z</time>
            </trkpt>
            <trkpt lon="100.853216" lat="12.747325">
                <ele>29.460000</ele>
                <time>2015-10-31T06:49:49Z</time>
            </trkpt>
            <trkpt lon="100.853250" lat="12.747300">
                <ele>29.460000</ele>
                <time>2015-10-31T06:49:54Z</time>
            </trkpt>
            <trkpt lon="100.853242" lat="12.747235">
                <ele>29.460000</ele>
                <time>2015-10-31T06:50:01Z</time>
            </trkpt>
            <trkpt lon="100.853407" lat="12.747208">
                <ele>29.460000</ele>
                <time>2015-10-31T06:50:10Z</time>
            </trkpt>
            <trkpt lon="100.853527" lat="12.747357">
                <ele>27.530000</ele>
                <time>2015-10-31T06:50:20Z</time>
            </trkpt>
            <trkpt lon="100.853580" lat="12.747449">
                <ele>27.530000</ele>
                <time>2015-10-31T06:50:25Z</time>
            </trkpt>
            <trkpt lon="100.853649" lat="12.747530">
                <ele>26.570000</ele>
                <time>2015-10-31T06:50:30Z</time>
            </trkpt>
            <trkpt lon="100.853693" lat="12.747635">
                <ele>26.090000</ele>
                <time>2015-10-31T06:50:36Z</time>
            </trkpt>
            <trkpt lon="100.853815" lat="12.747643">
                <ele>26.090000</ele>
                <time>2015-10-31T06:50:44Z</time>
            </trkpt>
            <trkpt lon="100.853865" lat="12.747649">
                <ele>26.570000</ele>
                <time>2015-10-31T06:50:47Z</time>
            </trkpt>
            <trkpt lon="100.853966" lat="12.747653">
                <ele>25.610000</ele>
                <time>2015-10-31T06:50:52Z</time>
            </trkpt>
            <trkpt lon="100.854037" lat="12.747726">
                <ele>25.130000</ele>
                <time>2015-10-31T06:51:02Z</time>
            </trkpt>
            <trkpt lon="100.854074" lat="12.747738">
                <ele>25.130000</ele>
                <time>2015-10-31T06:51:10Z</time>
            </trkpt>
            <trkpt lon="100.854194" lat="12.747752">
                <ele>24.650000</ele>
                <time>2015-10-31T06:51:17Z</time>
            </trkpt>
            <trkpt lon="100.854376" lat="12.747824">
                <ele>23.690000</ele>
                <time>2015-10-31T06:51:26Z</time>
            </trkpt>
            <trkpt lon="100.854486" lat="12.747876">
                <ele>21.770000</ele>
                <time>2015-10-31T06:51:30Z</time>
            </trkpt>
            <trkpt lon="100.854525" lat="12.747925">
                <ele>22.250000</ele>
                <time>2015-10-31T06:51:34Z</time>
            </trkpt>
            <trkpt lon="100.854532" lat="12.747963">
                <ele>21.290000</ele>
                <time>2015-10-31T06:51:36Z</time>
            </trkpt>
            <trkpt lon="100.854736" lat="12.748090">
                <ele>21.290000</ele>
                <time>2015-10-31T06:51:48Z</time>
            </trkpt>
            <trkpt lon="100.854798" lat="12.748114">
                <ele>24.170000</ele>
                <time>2015-10-31T06:52:00Z</time>
            </trkpt>
            <trkpt lon="100.854801" lat="12.748115">
                <ele>21.290000</ele>
                <time>2015-10-31T06:52:02Z</time>
            </trkpt>
            <trkpt lon="100.854801" lat="12.748115">
                <ele>21.770000</ele>
                <time>2015-10-31T06:52:03Z</time>
            </trkpt>
            <trkpt lon="100.854862" lat="12.748129">
                <ele>21.770000</ele>
                <time>2015-10-31T06:52:11Z</time>
            </trkpt>
            <trkpt lon="100.854923" lat="12.748164">
                <ele>21.770000</ele>
                <time>2015-10-31T06:52:19Z</time>
            </trkpt>
            <trkpt lon="100.855032" lat="12.748140">
                <ele>21.770000</ele>
                <time>2015-10-31T06:52:25Z</time>
            </trkpt>
            <trkpt lon="100.855072" lat="12.748065">
                <ele>21.770000</ele>
                <time>2015-10-31T06:52:29Z</time>
            </trkpt>
            <trkpt lon="100.855299" lat="12.747995">
                <ele>22.730000</ele>
                <time>2015-10-31T06:52:39Z</time>
            </trkpt>
            <trkpt lon="100.855290" lat="12.747912">
                <ele>22.730000</ele>
                <time>2015-10-31T06:52:47Z</time>
            </trkpt>
            <trkpt lon="100.855342" lat="12.747846">
                <ele>23.690000</ele>
                <time>2015-10-31T06:53:00Z</time>
            </trkpt>
            <trkpt lon="100.855352" lat="12.747840">
                <ele>23.690000</ele>
                <time>2015-10-31T06:53:04Z</time>
            </trkpt>
            <trkpt lon="100.855503" lat="12.747786">
                <ele>23.690000</ele>
                <time>2015-10-31T06:53:11Z</time>
            </trkpt>
            <trkpt lon="100.855557" lat="12.747762">
                <ele>23.210000</ele>
                <time>2015-10-31T06:53:13Z</time>
            </trkpt>
            <trkpt lon="100.855669" lat="12.747666">
                <ele>24.170000</ele>
                <time>2015-10-31T06:53:20Z</time>
            </trkpt>
            <trkpt lon="100.855718" lat="12.747670">
                <ele>23.690000</ele>
                <time>2015-10-31T06:53:23Z</time>
            </trkpt>
            <trkpt lon="100.855792" lat="12.747684">
                <ele>24.170000</ele>
                <time>2015-10-31T06:53:27Z</time>
            </trkpt>
            <trkpt lon="100.855806" lat="12.747664">
                <ele>24.170000</ele>
                <time>2015-10-31T06:53:29Z</time>
            </trkpt>
            <trkpt lon="100.855872" lat="12.747452">
                <ele>24.650000</ele>
                <time>2015-10-31T06:53:39Z</time>
            </trkpt>
            <trkpt lon="100.855848" lat="12.747390">
                <ele>24.650000</ele>
                <time>2015-10-31T06:53:42Z</time>
            </trkpt>
            <trkpt lon="100.855815" lat="12.747133">
                <ele>25.130000</ele>
                <time>2015-10-31T06:53:52Z</time>
            </trkpt>
            <trkpt lon="100.855836" lat="12.747082">
                <ele>26.090000</ele>
                <time>2015-10-31T06:53:54Z</time>
            </trkpt>
            <trkpt lon="100.855970" lat="12.746992">
                <ele>26.570000</ele>
                <time>2015-10-31T06:54:01Z</time>
            </trkpt>
            <trkpt lon="100.856159" lat="12.746816">
                <ele>27.530000</ele>
                <time>2015-10-31T06:54:14Z</time>
            </trkpt>
            <trkpt lon="100.856439" lat="12.746563">
                <ele>28.500000</ele>
                <time>2015-10-31T06:54:27Z</time>
            </trkpt>
            <trkpt lon="100.856519" lat="12.746522">
                <ele>28.980000</ele>
                <time>2015-10-31T06:54:30Z</time>
            </trkpt>
            <trkpt lon="100.856739" lat="12.746527">
                <ele>28.980000</ele>
                <time>2015-10-31T06:54:38Z</time>
            </trkpt>
            <trkpt lon="100.856791" lat="12.746537">
                <ele>28.980000</ele>
                <time>2015-10-31T06:54:40Z</time>
            </trkpt>
            <trkpt lon="100.857044" lat="12.746748">
                <ele>28.980000</ele>
                <time>2015-10-31T06:54:53Z</time>
            </trkpt>
            <trkpt lon="100.857082" lat="12.746755">
                <ele>28.500000</ele>
                <time>2015-10-31T06:54:57Z</time>
            </trkpt>
            <trkpt lon="100.857460" lat="12.746702">
                <ele>28.500000</ele>
                <time>2015-10-31T06:55:09Z</time>
            </trkpt>
            <trkpt lon="100.857574" lat="12.746683">
                <ele>28.500000</ele>
                <time>2015-10-31T06:55:14Z</time>
            </trkpt>
            <trkpt lon="100.857570" lat="12.746556">
                <ele>28.980000</ele>
                <time>2015-10-31T06:55:26Z</time>
            </trkpt>
            <trkpt lon="100.857584" lat="12.746481">
                <ele>29.460000</ele>
                <time>2015-10-31T06:55:38Z</time>
            </trkpt>
            <trkpt lon="100.857584" lat="12.746467">
                <ele>28.980000</ele>
                <time>2015-10-31T06:55:39Z</time>
            </trkpt>
            <trkpt lon="100.857580" lat="12.746433">
                <ele>29.460000</ele>
                <time>2015-10-31T06:55:41Z</time>
            </trkpt>
            <trkpt lon="100.857570" lat="12.746366">
                <ele>29.940000</ele>
                <time>2015-10-31T06:55:55Z</time>
            </trkpt>
            <trkpt lon="100.857569" lat="12.746361">
                <ele>29.940000</ele>
                <time>2015-10-31T06:56:13Z</time>
            </trkpt>
            <trkpt lon="100.857569" lat="12.746359">
                <ele>29.940000</ele>
                <time>2015-10-31T06:56:51Z</time>
            </trkpt>
            <trkpt lon="100.857570" lat="12.746356">
                <ele>29.940000</ele>
                <time>2015-10-31T06:57:23Z</time>
            </trkpt>
            <trkpt lon="100.857570" lat="12.746356">
                <ele>29.940000</ele>
                <time>2015-10-31T06:57:48Z</time>
            </trkpt>
            <trkpt lon="100.857575" lat="12.746350">
                <ele>29.940000</ele>
                <time>2015-10-31T06:58:11Z</time>
            </trkpt>
            <trkpt lon="100.857582" lat="12.746374">
                <ele>29.460000</ele>
                <time>2015-10-31T06:58:31Z</time>
            </trkpt>
            <trkpt lon="100.857594" lat="12.746418">
                <ele>29.460000</ele>
                <time>2015-10-31T06:58:43Z</time>
            </trkpt>
            <trkpt lon="100.857597" lat="12.746511">
                <ele>29.460000</ele>
                <time>2015-10-31T06:58:56Z</time>
            </trkpt>
            <trkpt lon="100.857593" lat="12.746524">
                <ele>28.980000</ele>
                <time>2015-10-31T06:59:16Z</time>
            </trkpt>
            <trkpt lon="100.857582" lat="12.746574">
                <ele>28.980000</ele>
                <time>2015-10-31T06:59:32Z</time>
            </trkpt>
            <trkpt lon="100.857593" lat="12.746596">
                <ele>28.500000</ele>
                <time>2015-10-31T06:59:49Z</time>
            </trkpt>
            <trkpt lon="100.857621" lat="12.746643">
                <ele>28.500000</ele>
                <time>2015-10-31T07:00:03Z</time>
            </trkpt>
            <trkpt lon="100.857621" lat="12.746643">
                <ele>28.500000</ele>
                <time>2015-10-31T07:00:25Z</time>
            </trkpt>
            <trkpt lon="100.857654" lat="12.746650">
                <ele>28.500000</ele>
                <time>2015-10-31T07:00:39Z</time>
            </trkpt>
            <trkpt lon="100.857700" lat="12.746672">
                <ele>28.500000</ele>
                <time>2015-10-31T07:00:55Z</time>
            </trkpt>
            <trkpt lon="100.857719" lat="12.746675">
                <ele>28.020000</ele>
                <time>2015-10-31T07:01:13Z</time>
            </trkpt>
            <trkpt lon="100.857741" lat="12.746689">
                <ele>28.020000</ele>
                <time>2015-10-31T07:01:30Z</time>
            </trkpt>
            <trkpt lon="100.857783" lat="12.746676">
                <ele>28.500000</ele>
                <time>2015-10-31T07:01:45Z</time>
            </trkpt>
            <trkpt lon="100.857804" lat="12.746663">
                <ele>28.500000</ele>
                <time>2015-10-31T07:01:51Z</time>
            </trkpt>
            <trkpt lon="100.857980" lat="12.746643">
                <ele>27.530000</ele>
                <time>2015-10-31T07:01:58Z</time>
            </trkpt>
            <trkpt lon="100.858235" lat="12.746543">
                <ele>28.500000</ele>
                <time>2015-10-31T07:02:09Z</time>
            </trkpt>
            <trkpt lon="100.858436" lat="12.746399">
                <ele>28.980000</ele>
                <time>2015-10-31T07:02:18Z</time>
            </trkpt>
            <trkpt lon="100.858588" lat="12.746331">
                <ele>28.500000</ele>
                <time>2015-10-31T07:02:23Z</time>
            </trkpt>
            <trkpt lon="100.858743" lat="12.746173">
                <ele>28.980000</ele>
                <time>2015-10-31T07:02:30Z</time>
            </trkpt>
            <trkpt lon="100.858825" lat="12.746092">
                <ele>28.980000</ele>
                <time>2015-10-31T07:02:36Z</time>
            </trkpt>
            <trkpt lon="100.858852" lat="12.746017">
                <ele>29.460000</ele>
                <time>2015-10-31T07:02:40Z</time>
            </trkpt>
            <trkpt lon="100.859107" lat="12.745917">
                <ele>28.500000</ele>
                <time>2015-10-31T07:02:50Z</time>
            </trkpt>
            <trkpt lon="100.859469" lat="12.745882">
                <ele>28.980000</ele>
                <time>2015-10-31T07:03:00Z</time>
            </trkpt>
            <trkpt lon="100.859525" lat="12.745873">
                <ele>29.460000</ele>
                <time>2015-10-31T07:03:02Z</time>
            </trkpt>
            <trkpt lon="100.859800" lat="12.745731">
                <ele>29.940000</ele>
                <time>2015-10-31T07:03:13Z</time>
            </trkpt>
            <trkpt lon="100.859878" lat="12.745685">
                <ele>30.420000</ele>
                <time>2015-10-31T07:03:17Z</time>
            </trkpt>
            <trkpt lon="100.859932" lat="12.745663">
                <ele>30.900000</ele>
                <time>2015-10-31T07:03:27Z</time>
            </trkpt>
            <trkpt lon="100.859942" lat="12.745657">
                <ele>30.420000</ele>
                <time>2015-10-31T07:03:45Z</time>
            </trkpt>
            <trkpt lon="100.859953" lat="12.745654">
                <ele>30.420000</ele>
                <time>2015-10-31T07:04:03Z</time>
            </trkpt>
            <trkpt lon="100.859939" lat="12.745660">
                <ele>30.420000</ele>
                <time>2015-10-31T07:04:31Z</time>
            </trkpt>
            <trkpt lon="100.859902" lat="12.745665">
                <ele>29.940000</ele>
                <time>2015-10-31T07:04:45Z</time>
            </trkpt>
            <trkpt lon="100.859878" lat="12.745661">
                <ele>30.420000</ele>
                <time>2015-10-31T07:05:04Z</time>
            </trkpt>
            <trkpt lon="100.859878" lat="12.745661">
                <ele>30.420000</ele>
                <time>2015-10-31T07:05:30Z</time>
            </trkpt>
            <trkpt lon="100.859878" lat="12.745661">
                <ele>30.420000</ele>
                <time>2015-10-31T07:06:01Z</time>
            </trkpt>
            <trkpt lon="100.859877" lat="12.745660">
                <ele>30.420000</ele>
                <time>2015-10-31T07:06:30Z</time>
            </trkpt>
            <trkpt lon="100.859877" lat="12.745660">
                <ele>30.420000</ele>
                <time>2015-10-31T07:06:58Z</time>
            </trkpt>
            <trkpt lon="100.859876" lat="12.745660">
                <ele>30.420000</ele>
                <time>2015-10-31T07:07:30Z</time>
            </trkpt>
            <trkpt lon="100.859846" lat="12.745691">
                <ele>30.420000</ele>
                <time>2015-10-31T07:07:45Z</time>
            </trkpt>
            <trkpt lon="100.859846" lat="12.745691">
                <ele>29.940000</ele>
                <time>2015-10-31T07:07:46Z</time>
            </trkpt>
            <trkpt lon="100.859828" lat="12.745706">
                <ele>30.420000</ele>
                <time>2015-10-31T07:07:48Z</time>
            </trkpt>
            <trkpt lon="100.859771" lat="12.745744">
                <ele>29.940000</ele>
                <time>2015-10-31T07:07:52Z</time>
            </trkpt>
            <trkpt lon="100.859574" lat="12.745865">
                <ele>29.460000</ele>
                <time>2015-10-31T07:08:04Z</time>
            </trkpt>
            <trkpt lon="100.859384" lat="12.745856">
                <ele>29.460000</ele>
                <time>2015-10-31T07:08:16Z</time>
            </trkpt>
            <trkpt lon="100.859325" lat="12.745843">
                <ele>28.980000</ele>
                <time>2015-10-31T07:08:29Z</time>
            </trkpt>
            <trkpt lon="100.859323" lat="12.745836">
                <ele>29.460000</ele>
                <time>2015-10-31T07:08:52Z</time>
            </trkpt>
            <trkpt lon="100.859282" lat="12.745809">
                <ele>29.460000</ele>
                <time>2015-10-31T07:09:06Z</time>
            </trkpt>
            <trkpt lon="100.859264" lat="12.745811">
                <ele>28.980000</ele>
                <time>2015-10-31T07:09:20Z</time>
            </trkpt>
            <trkpt lon="100.859094" lat="12.745874">
                <ele>28.500000</ele>
                <time>2015-10-31T07:09:34Z</time>
            </trkpt>
            <trkpt lon="100.859100" lat="12.745880">
                <ele>28.020000</ele>
                <time>2015-10-31T07:09:35Z</time>
            </trkpt>
            <trkpt lon="100.859098" lat="12.745962">
                <ele>28.020000</ele>
                <time>2015-10-31T07:09:40Z</time>
            </trkpt>
            <trkpt lon="100.859065" lat="12.746052">
                <ele>27.530000</ele>
                <time>2015-10-31T07:09:44Z</time>
            </trkpt>
            <trkpt lon="100.859026" lat="12.746113">
                <ele>28.020000</ele>
                <time>2015-10-31T07:09:48Z</time>
            </trkpt>
            <trkpt lon="100.858979" lat="12.746256">
                <ele>26.570000</ele>
                <time>2015-10-31T07:09:56Z</time>
            </trkpt>
            <trkpt lon="100.858944" lat="12.746353">
                <ele>26.570000</ele>
                <time>2015-10-31T07:10:03Z</time>
            </trkpt>
            <trkpt lon="100.858894" lat="12.746379">
                <ele>27.050000</ele>
                <time>2015-10-31T07:10:06Z</time>
            </trkpt>
            <trkpt lon="100.858838" lat="12.746426">
                <ele>26.570000</ele>
                <time>2015-10-31T07:10:10Z</time>
            </trkpt>
            <trkpt lon="100.858830" lat="12.746446">
                <ele>26.570000</ele>
                <time>2015-10-31T07:10:12Z</time>
            </trkpt>
            <trkpt lon="100.858847" lat="12.746561">
                <ele>25.610000</ele>
                <time>2015-10-31T07:10:21Z</time>
            </trkpt>
            <trkpt lon="100.858809" lat="12.746743">
                <ele>25.130000</ele>
                <time>2015-10-31T07:10:29Z</time>
            </trkpt>
            <trkpt lon="100.858812" lat="12.746845">
                <ele>25.130000</ele>
                <time>2015-10-31T07:10:36Z</time>
            </trkpt>
            <trkpt lon="100.858789" lat="12.746913">
                <ele>25.130000</ele>
                <time>2015-10-31T07:10:40Z</time>
            </trkpt>
            <trkpt lon="100.858794" lat="12.747057">
                <ele>24.650000</ele>
                <time>2015-10-31T07:10:46Z</time>
            </trkpt>
            <trkpt lon="100.858767" lat="12.747294">
                <ele>23.690000</ele>
                <time>2015-10-31T07:10:56Z</time>
            </trkpt>
            <trkpt lon="100.858820" lat="12.747490">
                <ele>23.690000</ele>
                <time>2015-10-31T07:11:06Z</time>
            </trkpt>
            <trkpt lon="100.858823" lat="12.747518">
                <ele>23.690000</ele>
                <time>2015-10-31T07:11:07Z</time>
            </trkpt>
            <trkpt lon="100.858819" lat="12.747568">
                <ele>23.690000</ele>
                <time>2015-10-31T07:11:09Z</time>
            </trkpt>
            <trkpt lon="100.858790" lat="12.747658">
                <ele>23.690000</ele>
                <time>2015-10-31T07:11:22Z</time>
            </trkpt>
            <trkpt lon="100.858790" lat="12.747658">
                <ele>23.210000</ele>
                <time>2015-10-31T07:11:51Z</time>
            </trkpt>
            <trkpt lon="100.858787" lat="12.747670">
                <ele>22.730000</ele>
                <time>2015-10-31T07:12:10Z</time>
            </trkpt>
            <trkpt lon="100.858748" lat="12.747706">
                <ele>23.210000</ele>
                <time>2015-10-31T07:12:13Z</time>
            </trkpt>
            <trkpt lon="100.858713" lat="12.747765">
                <ele>24.170000</ele>
                <time>2015-10-31T07:12:17Z</time>
            </trkpt>
            <trkpt lon="100.858584" lat="12.747796">
                <ele>24.650000</ele>
                <time>2015-10-31T07:12:25Z</time>
            </trkpt>
            <trkpt lon="100.858522" lat="12.747809">
                <ele>24.170000</ele>
                <time>2015-10-31T07:12:27Z</time>
            </trkpt>
            <trkpt lon="100.858477" lat="12.747805">
                <ele>24.170000</ele>
                <time>2015-10-31T07:12:29Z</time>
            </trkpt>
            <trkpt lon="100.858448" lat="12.747784">
                <ele>24.170000</ele>
                <time>2015-10-31T07:12:46Z</time>
            </trkpt>
            <trkpt lon="100.858421" lat="12.747771">
                <ele>24.650000</ele>
                <time>2015-10-31T07:13:21Z</time>
            </trkpt>
            <trkpt lon="100.858309" lat="12.747721">
                <ele>24.170000</ele>
                <time>2015-10-31T07:13:31Z</time>
            </trkpt>
            <trkpt lon="100.858300" lat="12.747727">
                <ele>24.650000</ele>
                <time>2015-10-31T07:13:44Z</time>
            </trkpt>
            <trkpt lon="100.858306" lat="12.747707">
                <ele>24.650000</ele>
                <time>2015-10-31T07:13:54Z</time>
            </trkpt>
            <trkpt lon="100.858296" lat="12.747698">
                <ele>24.650000</ele>
                <time>2015-10-31T07:13:56Z</time>
            </trkpt>
            <trkpt lon="100.858262" lat="12.747694">
                <ele>24.650000</ele>
                <time>2015-10-31T07:13:58Z</time>
            </trkpt>
            <trkpt lon="100.858186" lat="12.747709">
                <ele>24.650000</ele>
                <time>2015-10-31T07:14:02Z</time>
            </trkpt>
            <trkpt lon="100.857999" lat="12.747793">
                <ele>24.650000</ele>
                <time>2015-10-31T07:14:11Z</time>
            </trkpt>
            <trkpt lon="100.857941" lat="12.747850">
                <ele>24.170000</ele>
                <time>2015-10-31T07:14:16Z</time>
            </trkpt>
            <trkpt lon="100.857885" lat="12.747816">
                <ele>24.650000</ele>
                <time>2015-10-31T07:14:20Z</time>
            </trkpt>
            <trkpt lon="100.857833" lat="12.747684">
                <ele>25.610000</ele>
                <time>2015-10-31T07:14:27Z</time>
            </trkpt>
            <trkpt lon="100.857737" lat="12.747619">
                <ele>25.130000</ele>
                <time>2015-10-31T07:14:33Z</time>
            </trkpt>
            <trkpt lon="100.857665" lat="12.747529">
                <ele>25.610000</ele>
                <time>2015-10-31T07:14:45Z</time>
            </trkpt>
            <trkpt lon="100.857363" lat="12.747519">
                <ele>25.610000</ele>
                <time>2015-10-31T07:14:55Z</time>
            </trkpt>
            <trkpt lon="100.857328" lat="12.747498">
                <ele>25.610000</ele>
                <time>2015-10-31T07:14:57Z</time>
            </trkpt>
            <trkpt lon="100.857260" lat="12.747435">
                <ele>25.610000</ele>
                <time>2015-10-31T07:15:01Z</time>
            </trkpt>
            <trkpt lon="100.857049" lat="12.747311">
                <ele>26.570000</ele>
                <time>2015-10-31T07:15:14Z</time>
            </trkpt>
            <trkpt lon="100.856955" lat="12.747344">
                <ele>26.570000</ele>
                <time>2015-10-31T07:15:20Z</time>
            </trkpt>
            <trkpt lon="100.856880" lat="12.747364">
                <ele>26.090000</ele>
                <time>2015-10-31T07:15:27Z</time>
            </trkpt>
            <trkpt lon="100.856740" lat="12.747315">
                <ele>26.570000</ele>
                <time>2015-10-31T07:15:36Z</time>
            </trkpt>
            <trkpt lon="100.856644" lat="12.747302">
                <ele>26.090000</ele>
                <time>2015-10-31T07:15:42Z</time>
            </trkpt>
            <trkpt lon="100.856608" lat="12.747243">
                <ele>26.090000</ele>
                <time>2015-10-31T07:15:46Z</time>
            </trkpt>
            <trkpt lon="100.856549" lat="12.747228">
                <ele>26.570000</ele>
                <time>2015-10-31T07:15:50Z</time>
            </trkpt>
            <trkpt lon="100.856452" lat="12.747195">
                <ele>26.090000</ele>
                <time>2015-10-31T07:16:03Z</time>
            </trkpt>
            <trkpt lon="100.856402" lat="12.747109">
                <ele>26.090000</ele>
                <time>2015-10-31T07:16:14Z</time>
            </trkpt>
            <trkpt lon="100.856412" lat="12.747073">
                <ele>26.570000</ele>
                <time>2015-10-31T07:16:16Z</time>
            </trkpt>
            <trkpt lon="100.856284" lat="12.747015">
                <ele>26.570000</ele>
                <time>2015-10-31T07:16:25Z</time>
            </trkpt>
            <trkpt lon="100.856221" lat="12.747175">
                <ele>25.610000</ele>
                <time>2015-10-31T07:16:35Z</time>
            </trkpt>
            <trkpt lon="100.856203" lat="12.747353">
                <ele>25.130000</ele>
                <time>2015-10-31T07:16:45Z</time>
            </trkpt>
            <trkpt lon="100.856220" lat="12.747407">
                <ele>25.130000</ele>
                <time>2015-10-31T07:16:50Z</time>
            </trkpt>
            <trkpt lon="100.856250" lat="12.747464">
                <ele>25.130000</ele>
                <time>2015-10-31T07:16:55Z</time>
            </trkpt>
            <trkpt lon="100.856245" lat="12.747566">
                <ele>25.130000</ele>
                <time>2015-10-31T07:17:01Z</time>
            </trkpt>
            <trkpt lon="100.856303" lat="12.747624">
                <ele>24.650000</ele>
                <time>2015-10-31T07:17:05Z</time>
            </trkpt>
            <trkpt lon="100.856376" lat="12.747601">
                <ele>25.130000</ele>
                <time>2015-10-31T07:17:10Z</time>
            </trkpt>
            <trkpt lon="100.856500" lat="12.747610">
                <ele>25.130000</ele>
                <time>2015-10-31T07:17:17Z</time>
            </trkpt>
            <trkpt lon="100.856500" lat="12.747659">
                <ele>25.130000</ele>
                <time>2015-10-31T07:17:22Z</time>
            </trkpt>
            <trkpt lon="100.856559" lat="12.747716">
                <ele>24.650000</ele>
                <time>2015-10-31T07:17:28Z</time>
            </trkpt>
            <trkpt lon="100.856630" lat="12.747800">
                <ele>24.650000</ele>
                <time>2015-10-31T07:17:36Z</time>
            </trkpt>
            <trkpt lon="100.856668" lat="12.747960">
                <ele>24.170000</ele>
                <time>2015-10-31T07:17:46Z</time>
            </trkpt>
            <trkpt lon="100.856653" lat="12.747971">
                <ele>24.170000</ele>
                <time>2015-10-31T07:17:47Z</time>
            </trkpt>
            <trkpt lon="100.856569" lat="12.748177">
                <ele>23.210000</ele>
                <time>2015-10-31T07:17:58Z</time>
            </trkpt>
            <trkpt lon="100.856516" lat="12.748268">
                <ele>23.690000</ele>
                <time>2015-10-31T07:18:04Z</time>
            </trkpt>
            <trkpt lon="100.856485" lat="12.748299">
                <ele>23.210000</ele>
                <time>2015-10-31T07:18:06Z</time>
            </trkpt>
            <trkpt lon="100.856371" lat="12.748357">
                <ele>23.210000</ele>
                <time>2015-10-31T07:18:13Z</time>
            </trkpt>
            <trkpt lon="100.856299" lat="12.748348">
                <ele>23.210000</ele>
                <time>2015-10-31T07:18:18Z</time>
            </trkpt>
            <trkpt lon="100.856229" lat="12.748334">
                <ele>22.730000</ele>
                <time>2015-10-31T07:18:25Z</time>
            </trkpt>
            <trkpt lon="100.856064" lat="12.748386">
                <ele>22.250000</ele>
                <time>2015-10-31T07:18:37Z</time>
            </trkpt>
            <trkpt lon="100.856049" lat="12.748387">
                <ele>21.770000</ele>
                <time>2015-10-31T07:18:38Z</time>
            </trkpt>
            <trkpt lon="100.856003" lat="12.748362">
                <ele>21.770000</ele>
                <time>2015-10-31T07:18:42Z</time>
            </trkpt>
            <trkpt lon="100.855897" lat="12.748349">
                <ele>22.250000</ele>
                <time>2015-10-31T07:18:47Z</time>
            </trkpt>
            <trkpt lon="100.855780" lat="12.748339">
                <ele>20.810000</ele>
                <time>2015-10-31T07:18:53Z</time>
            </trkpt>
            <trkpt lon="100.855683" lat="12.748393">
                <ele>20.810000</ele>
                <time>2015-10-31T07:18:56Z</time>
            </trkpt>
            <trkpt lon="100.855249" lat="12.748406">
                <ele>20.320000</ele>
                <time>2015-10-31T07:19:09Z</time>
            </trkpt>
            <trkpt lon="100.855031" lat="12.748530">
                <ele>19.360000</ele>
                <time>2015-10-31T07:19:15Z</time>
            </trkpt>
            <trkpt lon="100.854909" lat="12.748628">
                <ele>18.880000</ele>
                <time>2015-10-31T07:19:18Z</time>
            </trkpt>
            <trkpt lon="100.854792" lat="12.748780">
                <ele>18.880000</ele>
                <time>2015-10-31T07:19:22Z</time>
            </trkpt>
            <trkpt lon="100.854583" lat="12.749259">
                <ele>18.400000</ele>
                <time>2015-10-31T07:19:34Z</time>
            </trkpt>
            <trkpt lon="100.854566" lat="12.749300">
                <ele>18.400000</ele>
                <time>2015-10-31T07:19:35Z</time>
            </trkpt>
            <trkpt lon="100.854396" lat="12.749637">
                <ele>17.440000</ele>
                <time>2015-10-31T07:19:46Z</time>
            </trkpt>
            <trkpt lon="100.854243" lat="12.749889">
                <ele>16.480000</ele>
                <time>2015-10-31T07:19:56Z</time>
            </trkpt>
            <trkpt lon="100.854076" lat="12.749966">
                <ele>16.000000</ele>
                <time>2015-10-31T07:20:01Z</time>
            </trkpt>
            <trkpt lon="100.853821" lat="12.750032">
                <ele>15.040000</ele>
                <time>2015-10-31T07:20:07Z</time>
            </trkpt>
            <trkpt lon="100.853613" lat="12.750318">
                <ele>14.560000</ele>
                <time>2015-10-31T07:20:15Z</time>
            </trkpt>
            <trkpt lon="100.853552" lat="12.750761">
                <ele>14.080000</ele>
                <time>2015-10-31T07:20:27Z</time>
            </trkpt>
            <trkpt lon="100.853613" lat="12.750808">
                <ele>14.080000</ele>
                <time>2015-10-31T07:20:29Z</time>
            </trkpt>
            <trkpt lon="100.853734" lat="12.750873">
                <ele>14.080000</ele>
                <time>2015-10-31T07:20:32Z</time>
            </trkpt>
            <trkpt lon="100.853792" lat="12.751070">
                <ele>13.120000</ele>
                <time>2015-10-31T07:20:37Z</time>
            </trkpt>
            <trkpt lon="100.853300" lat="12.751960">
                <ele>11.190000</ele>
                <time>2015-10-31T07:20:53Z</time>
            </trkpt>
            <trkpt lon="100.853266" lat="12.752019">
                <ele>10.230000</ele>
                <time>2015-10-31T07:20:54Z</time>
            </trkpt>
            <trkpt lon="100.852956" lat="12.752212">
                <ele>9.750000</ele>
                <time>2015-10-31T07:21:01Z</time>
            </trkpt>
            <trkpt lon="100.852669" lat="12.752230">
                <ele>8.790000</ele>
                <time>2015-10-31T07:21:09Z</time>
            </trkpt>
            <trkpt lon="100.852559" lat="12.752339">
                <ele>9.270000</ele>
                <time>2015-10-31T07:21:20Z</time>
            </trkpt>
            <trkpt lon="100.852510" lat="12.752322">
                <ele>9.270000</ele>
                <time>2015-10-31T07:21:31Z</time>
            </trkpt>
            <trkpt lon="100.852557" lat="12.752387">
                <ele>9.270000</ele>
                <time>2015-10-31T07:21:44Z</time>
            </trkpt>
            <trkpt lon="100.852557" lat="12.752387">
                <ele>8.790000</ele>
                <time>2015-10-31T07:22:11Z</time>
            </trkpt>
            <trkpt lon="100.852557" lat="12.752390">
                <ele>8.310000</ele>
                <time>2015-10-31T07:22:46Z</time>
            </trkpt>
            <trkpt lon="100.852556" lat="12.752388">
                <ele>8.790000</ele>
                <time>2015-10-31T07:23:22Z</time>
            </trkpt>
            <trkpt lon="100.852554" lat="12.752390">
                <ele>8.790000</ele>
                <time>2015-10-31T07:23:59Z</time>
            </trkpt>
            <trkpt lon="100.852555" lat="12.752386">
                <ele>8.310000</ele>
                <time>2015-10-31T07:24:36Z</time>
            </trkpt>
            <trkpt lon="100.852557" lat="12.752387">
                <ele>8.790000</ele>
                <time>2015-10-31T07:25:10Z</time>
            </trkpt>
            <trkpt lon="100.852558" lat="12.752387">
                <ele>8.790000</ele>
                <time>2015-10-31T07:25:44Z</time>
            </trkpt>
            <trkpt lon="100.852558" lat="12.752386">
                <ele>8.310000</ele>
                <time>2015-10-31T07:26:05Z</time>
            </trkpt>
            <trkpt lon="100.852557" lat="12.752387">
                <ele>8.310000</ele>
                <time>2015-10-31T07:26:37Z</time>
            </trkpt>
            <trkpt lon="100.852557" lat="12.752387">
                <ele>7.830000</ele>
                <time>2015-10-31T07:27:05Z</time>
            </trkpt>
            <trkpt lon="100.852558" lat="12.752389">
                <ele>7.830000</ele>
                <time>2015-10-31T07:27:35Z</time>
            </trkpt>
            <trkpt lon="100.852559" lat="12.752392">
                <ele>8.310000</ele>
                <time>2015-10-31T07:28:04Z</time>
            </trkpt>
            <trkpt lon="100.852555" lat="12.752393">
                <ele>8.310000</ele>
                <time>2015-10-31T07:28:35Z</time>
            </trkpt>
            <trkpt lon="100.852555" lat="12.752393">
                <ele>8.790000</ele>
                <time>2015-10-31T07:29:02Z</time>
            </trkpt>
            <trkpt lon="100.852555" lat="12.752393">
                <ele>8.310000</ele>
                <time>2015-10-31T07:29:28Z</time>
            </trkpt>
            <trkpt lon="100.852559" lat="12.752393">
                <ele>8.310000</ele>
                <time>2015-10-31T07:30:05Z</time>
            </trkpt>
            <trkpt lon="100.852558" lat="12.752397">
                <ele>8.790000</ele>
                <time>2015-10-31T07:30:36Z</time>
            </trkpt>
            <trkpt lon="100.852558" lat="12.752397">
                <ele>8.310000</ele>
                <time>2015-10-31T07:31:12Z</time>
            </trkpt>
            <trkpt lon="100.852559" lat="12.752401">
                <ele>8.310000</ele>
                <time>2015-10-31T07:31:54Z</time>
            </trkpt>
            <trkpt lon="100.852561" lat="12.752399">
                <ele>8.310000</ele>
                <time>2015-10-31T07:32:34Z</time>
            </trkpt>
            <trkpt lon="100.852561" lat="12.752399">
                <ele>8.310000</ele>
                <time>2015-10-31T07:33:10Z</time>
            </trkpt>
            <trkpt lon="100.852559" lat="12.752399">
                <ele>8.310000</ele>
                <time>2015-10-31T07:33:43Z</time>
            </trkpt>
            <trkpt lon="100.852560" lat="12.752398">
                <ele>7.830000</ele>
                <time>2015-10-31T07:34:11Z</time>
            </trkpt>
            <trkpt lon="100.852558" lat="12.752398">
                <ele>8.310000</ele>
                <time>2015-10-31T07:34:37Z</time>
            </trkpt>
            <trkpt lon="100.852558" lat="12.752398">
                <ele>8.310000</ele>
                <time>2015-10-31T07:35:10Z</time>
            </trkpt>
            <trkpt lon="100.852557" lat="12.752398">
                <ele>8.310000</ele>
                <time>2015-10-31T07:35:44Z</time>
            </trkpt>
            <trkpt lon="100.852559" lat="12.752396">
                <ele>8.790000</ele>
                <time>2015-10-31T07:36:16Z</time>
            </trkpt>
            <trkpt lon="100.852563" lat="12.752396">
                <ele>8.790000</ele>
                <time>2015-10-31T07:36:48Z</time>
            </trkpt>
            <trkpt lon="100.852561" lat="12.752393">
                <ele>7.830000</ele>
                <time>2015-10-31T07:37:16Z</time>
            </trkpt>
            <trkpt lon="100.852561" lat="12.752393">
                <ele>8.310000</ele>
                <time>2015-10-31T07:37:50Z</time>
            </trkpt>
            <trkpt lon="100.852562" lat="12.752393">
                <ele>8.310000</ele>
                <time>2015-10-31T07:38:16Z</time>
            </trkpt>
            <trkpt lon="100.852579" lat="12.752374">
                <ele>9.270000</ele>
                <time>2015-10-31T07:38:40Z</time>
            </trkpt>
            <trkpt lon="100.852618" lat="12.752327">
                <ele>9.750000</ele>
                <time>2015-10-31T07:38:54Z</time>
            </trkpt>
            <trkpt lon="100.852583" lat="12.752298">
                <ele>8.790000</ele>
                <time>2015-10-31T07:39:02Z</time>
            </trkpt>
            <trkpt lon="100.852596" lat="12.752303">
                <ele>8.790000</ele>
                <time>2015-10-31T07:39:16Z</time>
            </trkpt>
            <trkpt lon="100.852610" lat="12.752331">
                <ele>8.790000</ele>
                <time>2015-10-31T07:39:29Z</time>
            </trkpt>
            <trkpt lon="100.852610" lat="12.752331">
                <ele>9.270000</ele>
                <time>2015-10-31T07:39:48Z</time>
            </trkpt>
            <trkpt lon="100.852606" lat="12.752331">
                <ele>8.790000</ele>
                <time>2015-10-31T07:40:15Z</time>
            </trkpt>
            <trkpt lon="100.852606" lat="12.752331">
                <ele>9.270000</ele>
                <time>2015-10-31T07:40:33Z</time>
            </trkpt>
            <trkpt lon="100.852604" lat="12.752336">
                <ele>8.790000</ele>
                <time>2015-10-31T07:40:47Z</time>
            </trkpt>
            <trkpt lon="100.852604" lat="12.752336">
                <ele>9.270000</ele>
                <time>2015-10-31T07:41:09Z</time>
            </trkpt>
            <trkpt lon="100.852592" lat="12.752349">
                <ele>8.790000</ele>
                <time>2015-10-31T07:41:24Z</time>
            </trkpt>
            <trkpt lon="100.852571" lat="12.752370">
                <ele>7.350000</ele>
                <time>2015-10-31T07:41:38Z</time>
            </trkpt>
            <trkpt lon="100.852571" lat="12.752370">
                <ele>3.980000</ele>
                <time>2015-10-31T07:41:43Z</time>
            </trkpt>
            <trkpt lon="100.852571" lat="12.752370">
                <ele>3.980000</ele>
                <time>2015-10-31T07:41:44Z</time>
            </trkpt>
            <trkpt lon="100.852571" lat="12.752370">
                <ele>9.270000</ele>
                <time>2015-10-31T07:41:48Z</time>
            </trkpt>
            <trkpt lon="100.852571" lat="12.752370">
                <ele>7.830000</ele>
                <time>2015-10-31T07:41:49Z</time>
            </trkpt>
            <trkpt lon="100.852571" lat="12.752370">
                <ele>10.710000</ele>
                <time>2015-10-31T07:41:50Z</time>
            </trkpt>
            <trkpt lon="100.852571" lat="12.752370">
                <ele>7.830000</ele>
                <time>2015-10-31T07:41:54Z</time>
            </trkpt>
            <trkpt lon="100.852571" lat="12.752370">
                <ele>12.150000</ele>
                <time>2015-10-31T07:41:55Z</time>
            </trkpt>
            <trkpt lon="100.852571" lat="12.752370">
                <ele>7.830000</ele>
                <time>2015-10-31T07:41:56Z</time>
            </trkpt>
            <trkpt lon="100.852571" lat="12.752370">
                <ele>11.190000</ele>
                <time>2015-10-31T07:42:02Z</time>
            </trkpt>
            <trkpt lon="100.852571" lat="12.752370">
                <ele>3.500000</ele>
                <time>2015-10-31T07:42:05Z</time>
            </trkpt>
            <trkpt lon="100.852571" lat="12.752370">
                <ele>5.910000</ele>
                <time>2015-10-31T07:42:06Z</time>
            </trkpt>
            <trkpt lon="100.852571" lat="12.752370">
                <ele>13.120000</ele>
                <time>2015-10-31T07:42:07Z</time>
            </trkpt>
            <trkpt lon="100.852571" lat="12.752370">
                <ele>13.600000</ele>
                <time>2015-10-31T07:42:08Z</time>
            </trkpt>
            <trkpt lon="100.852571" lat="12.752370">
                <ele>12.150000</ele>
                <time>2015-10-31T07:42:11Z</time>
            </trkpt>
            <trkpt lon="100.852567" lat="12.752379">
                <ele>11.190000</ele>
                <time>2015-10-31T07:42:12Z</time>
            </trkpt>
            <trkpt lon="100.852482" lat="12.752706">
                <ele>8.790000</ele>
                <time>2015-10-31T07:42:24Z</time>
            </trkpt>
            <trkpt lon="100.852484" lat="12.752727">
                <ele>8.790000</ele>
                <time>2015-10-31T07:42:25Z</time>
            </trkpt>
            <trkpt lon="100.852586" lat="12.752814">
                <ele>8.790000</ele>
                <time>2015-10-31T07:42:29Z</time>
            </trkpt>
            <trkpt lon="100.853347" lat="12.753161">
                <ele>7.830000</ele>
                <time>2015-10-31T07:42:46Z</time>
            </trkpt>
            <trkpt lon="100.853525" lat="12.753260">
                <ele>8.310000</ele>
                <time>2015-10-31T07:42:50Z</time>
            </trkpt>
            <trkpt lon="100.853784" lat="12.753396">
                <ele>4.460000</ele>
                <time>2015-10-31T07:42:55Z</time>
            </trkpt>
            <trkpt lon="100.853834" lat="12.753423">
                <ele>8.790000</ele>
                <time>2015-10-31T07:42:56Z</time>
            </trkpt>
            <trkpt lon="100.853885" lat="12.753450">
                <ele>13.600000</ele>
                <time>2015-10-31T07:42:57Z</time>
            </trkpt>
            <trkpt lon="100.853934" lat="12.753479">
                <ele>8.310000</ele>
                <time>2015-10-31T07:42:58Z</time>
            </trkpt>
            <trkpt lon="100.854704" lat="12.753989">
                <ele>8.790000</ele>
                <time>2015-10-31T07:43:14Z</time>
            </trkpt>
            <trkpt lon="100.855485" lat="12.754503">
                <ele>9.270000</ele>
                <time>2015-10-31T07:43:31Z</time>
            </trkpt>
            <trkpt lon="100.856203" lat="12.754976">
                <ele>9.750000</ele>
                <time>2015-10-31T07:43:46Z</time>
            </trkpt>
            <trkpt lon="100.856454" lat="12.755126">
                <ele>10.230000</ele>
                <time>2015-10-31T07:43:51Z</time>
            </trkpt>
            <trkpt lon="100.856676" lat="12.755196">
                <ele>10.710000</ele>
                <time>2015-10-31T07:43:55Z</time>
            </trkpt>
            <trkpt lon="100.856790" lat="12.755213">
                <ele>9.750000</ele>
                <time>2015-10-31T07:43:57Z</time>
            </trkpt>
            <trkpt lon="100.857106" lat="12.755322">
                <ele>10.230000</ele>
                <time>2015-10-31T07:44:03Z</time>
            </trkpt>
            <trkpt lon="100.857416" lat="12.755327">
                <ele>10.710000</ele>
                <time>2015-10-31T07:44:09Z</time>
            </trkpt>
            <trkpt lon="100.857633" lat="12.755386">
                <ele>11.190000</ele>
                <time>2015-10-31T07:44:14Z</time>
            </trkpt>
            <trkpt lon="100.858398" lat="12.755914">
                <ele>11.190000</ele>
                <time>2015-10-31T07:44:31Z</time>
            </trkpt>
            <trkpt lon="100.858628" lat="12.756072">
                <ele>10.710000</ele>
                <time>2015-10-31T07:44:36Z</time>
            </trkpt>
            <trkpt lon="100.858756" lat="12.756175">
                <ele>10.710000</ele>
                <time>2015-10-31T07:44:39Z</time>
            </trkpt>
            <trkpt lon="100.859029" lat="12.756245">
                <ele>10.230000</ele>
                <time>2015-10-31T07:44:44Z</time>
            </trkpt>
            <trkpt lon="100.859755" lat="12.756022">
                <ele>10.230000</ele>
                <time>2015-10-31T07:44:58Z</time>
            </trkpt>
            <trkpt lon="100.859804" lat="12.756010">
                <ele>10.710000</ele>
                <time>2015-10-31T07:44:59Z</time>
            </trkpt>
            <trkpt lon="100.859853" lat="12.755997">
                <ele>10.710000</ele>
                <time>2015-10-31T07:45:00Z</time>
            </trkpt>
            <trkpt lon="100.860043" lat="12.755937">
                <ele>11.190000</ele>
                <time>2015-10-31T07:45:04Z</time>
            </trkpt>
            <trkpt lon="100.860092" lat="12.755926">
                <ele>11.190000</ele>
                <time>2015-10-31T07:45:05Z</time>
            </trkpt>
            <trkpt lon="100.860138" lat="12.755910">
                <ele>11.190000</ele>
                <time>2015-10-31T07:45:06Z</time>
            </trkpt>
            <trkpt lon="100.860228" lat="12.755874">
                <ele>11.190000</ele>
                <time>2015-10-31T07:45:08Z</time>
            </trkpt>
            <trkpt lon="100.860896" lat="12.755674">
                <ele>13.120000</ele>
                <time>2015-10-31T07:45:23Z</time>
            </trkpt>
            <trkpt lon="100.861621" lat="12.755443">
                <ele>14.560000</ele>
                <time>2015-10-31T07:45:41Z</time>
            </trkpt>
            <trkpt lon="100.862159" lat="12.755269">
                <ele>15.520000</ele>
                <time>2015-10-31T07:45:54Z</time>
            </trkpt>
            <trkpt lon="100.862282" lat="12.755223">
                <ele>16.480000</ele>
                <time>2015-10-31T07:45:57Z</time>
            </trkpt>
            <trkpt lon="100.862323" lat="12.755211">
                <ele>16.480000</ele>
                <time>2015-10-31T07:45:58Z</time>
            </trkpt>
            <trkpt lon="100.862999" lat="12.755010">
                <ele>17.920000</ele>
                <time>2015-10-31T07:46:15Z</time>
            </trkpt>
            <trkpt lon="100.863590" lat="12.754809">
                <ele>17.920000</ele>
                <time>2015-10-31T07:46:28Z</time>
            </trkpt>
            <trkpt lon="100.863778" lat="12.754756">
                <ele>18.880000</ele>
                <time>2015-10-31T07:46:32Z</time>
            </trkpt>
            <trkpt lon="100.863824" lat="12.754739">
                <ele>18.400000</ele>
                <time>2015-10-31T07:46:33Z</time>
            </trkpt>
            <trkpt lon="100.864653" lat="12.754482">
                <ele>18.400000</ele>
                <time>2015-10-31T07:46:50Z</time>
            </trkpt>
            <trkpt lon="100.864852" lat="12.754420">
                <ele>17.920000</ele>
                <time>2015-10-31T07:46:54Z</time>
            </trkpt>
            <trkpt lon="100.865619" lat="12.754177">
                <ele>17.920000</ele>
                <time>2015-10-31T07:47:09Z</time>
            </trkpt>
            <trkpt lon="100.866345" lat="12.753946">
                <ele>18.400000</ele>
                <time>2015-10-31T07:47:24Z</time>
            </trkpt>
            <trkpt lon="100.867052" lat="12.753724">
                <ele>19.840000</ele>
                <time>2015-10-31T07:47:41Z</time>
            </trkpt>
            <trkpt lon="100.867736" lat="12.753496">
                <ele>21.290000</ele>
                <time>2015-10-31T07:47:58Z</time>
            </trkpt>
            <trkpt lon="100.868391" lat="12.753292">
                <ele>22.730000</ele>
                <time>2015-10-31T07:48:15Z</time>
            </trkpt>
            <trkpt lon="100.868617" lat="12.753213">
                <ele>22.730000</ele>
                <time>2015-10-31T07:48:21Z</time>
            </trkpt>
            <trkpt lon="100.868660" lat="12.753205">
                <ele>22.730000</ele>
                <time>2015-10-31T07:48:22Z</time>
            </trkpt>
            <trkpt lon="100.869206" lat="12.753056">
                <ele>25.130000</ele>
                <time>2015-10-31T07:48:37Z</time>
            </trkpt>
            <trkpt lon="100.869738" lat="12.752883">
                <ele>27.530000</ele>
                <time>2015-10-31T07:48:54Z</time>
            </trkpt>
            <trkpt lon="100.870094" lat="12.752775">
                <ele>28.500000</ele>
                <time>2015-10-31T07:49:06Z</time>
            </trkpt>
            <trkpt lon="100.870475" lat="12.752661">
                <ele>29.940000</ele>
                <time>2015-10-31T07:49:20Z</time>
            </trkpt>
            <trkpt lon="100.870863" lat="12.752552">
                <ele>32.340000</ele>
                <time>2015-10-31T07:49:35Z</time>
            </trkpt>
            <trkpt lon="100.871306" lat="12.752391">
                <ele>33.300000</ele>
                <time>2015-10-31T07:49:51Z</time>
            </trkpt>
            <trkpt lon="100.871587" lat="12.752316">
                <ele>33.300000</ele>
                <time>2015-10-31T07:49:59Z</time>
            </trkpt>
            <trkpt lon="100.871717" lat="12.752272">
                <ele>33.300000</ele>
                <time>2015-10-31T07:50:02Z</time>
            </trkpt>
            <trkpt lon="100.872399" lat="12.752022">
                <ele>30.900000</ele>
                <time>2015-10-31T07:50:15Z</time>
            </trkpt>
            <trkpt lon="100.872918" lat="12.751867">
                <ele>28.020000</ele>
                <time>2015-10-31T07:50:23Z</time>
            </trkpt>
            <trkpt lon="100.872961" lat="12.751863">
                <ele>28.020000</ele>
                <time>2015-10-31T07:50:24Z</time>
            </trkpt>
            <trkpt lon="100.873005" lat="12.751865">
                <ele>27.530000</ele>
                <time>2015-10-31T07:50:25Z</time>
            </trkpt>
            <trkpt lon="100.873049" lat="12.751872">
                <ele>28.020000</ele>
                <time>2015-10-31T07:50:26Z</time>
            </trkpt>
            <trkpt lon="100.873092" lat="12.751890">
                <ele>27.530000</ele>
                <time>2015-10-31T07:50:27Z</time>
            </trkpt>
            <trkpt lon="100.873200" lat="12.752074">
                <ele>28.020000</ele>
                <time>2015-10-31T07:50:33Z</time>
            </trkpt>
            <trkpt lon="100.873262" lat="12.752387">
                <ele>28.020000</ele>
                <time>2015-10-31T07:50:43Z</time>
            </trkpt>
            <trkpt lon="100.873204" lat="12.752671">
                <ele>28.500000</ele>
                <time>2015-10-31T07:50:54Z</time>
            </trkpt>
            <trkpt lon="100.873109" lat="12.752854">
                <ele>29.940000</ele>
                <time>2015-10-31T07:51:06Z</time>
            </trkpt>
            <trkpt lon="100.873041" lat="12.753007">
                <ele>30.420000</ele>
                <time>2015-10-31T07:51:17Z</time>
            </trkpt>
            <trkpt lon="100.872978" lat="12.753141">
                <ele>31.860000</ele>
                <time>2015-10-31T07:51:31Z</time>
            </trkpt>
            <trkpt lon="100.872984" lat="12.753137">
                <ele>30.900000</ele>
                <time>2015-10-31T07:51:54Z</time>
            </trkpt>
            <trkpt lon="100.872969" lat="12.753170">
                <ele>31.860000</ele>
                <time>2015-10-31T07:52:07Z</time>
            </trkpt>
            <trkpt lon="100.872969" lat="12.753170">
                <ele>31.860000</ele>
                <time>2015-10-31T07:52:29Z</time>
            </trkpt>
            <trkpt lon="100.872962" lat="12.753169">
                <ele>31.380000</ele>
                <time>2015-10-31T07:52:43Z</time>
            </trkpt>
            <trkpt lon="100.872950" lat="12.753198">
                <ele>31.860000</ele>
                <time>2015-10-31T07:52:53Z</time>
            </trkpt>
            <trkpt lon="100.872937" lat="12.753199">
                <ele>31.860000</ele>
                <time>2015-10-31T07:53:07Z</time>
            </trkpt>
            <trkpt lon="100.872935" lat="12.753209">
                <ele>31.860000</ele>
                <time>2015-10-31T07:53:19Z</time>
            </trkpt>
            <trkpt lon="100.872928" lat="12.753267">
                <ele>32.340000</ele>
                <time>2015-10-31T07:53:29Z</time>
            </trkpt>
            <trkpt lon="100.872849" lat="12.753401">
                <ele>33.780000</ele>
                <time>2015-10-31T07:53:41Z</time>
            </trkpt>
            <trkpt lon="100.872798" lat="12.753421">
                <ele>34.740000</ele>
                <time>2015-10-31T07:53:57Z</time>
            </trkpt>
            <trkpt lon="100.872783" lat="12.753428">
                <ele>34.740000</ele>
                <time>2015-10-31T07:53:59Z</time>
            </trkpt>
            <trkpt lon="100.872673" lat="12.753439">
                <ele>37.630000</ele>
                <time>2015-10-31T07:54:13Z</time>
            </trkpt>
            <trkpt lon="100.872642" lat="12.753446">
                <ele>38.590000</ele>
                <time>2015-10-31T07:54:34Z</time>
            </trkpt>
            <trkpt lon="100.872639" lat="12.753450">
                <ele>38.590000</ele>
                <time>2015-10-31T07:54:54Z</time>
            </trkpt>
            <trkpt lon="100.872641" lat="12.753450">
                <ele>39.070000</ele>
                <time>2015-10-31T07:55:24Z</time>
            </trkpt>
            <trkpt lon="100.872641" lat="12.753450">
                <ele>39.070000</ele>
                <time>2015-10-31T07:55:51Z</time>
            </trkpt>
            <trkpt lon="100.872647" lat="12.753446">
                <ele>38.590000</ele>
                <time>2015-10-31T07:55:52Z</time>
            </trkpt>
            <trkpt lon="100.872607" lat="12.753423">
                <ele>37.150000</ele>
                <time>2015-10-31T07:56:03Z</time>
            </trkpt>
            <trkpt lon="100.872599" lat="12.753421">
                <ele>37.150000</ele>
                <time>2015-10-31T07:56:05Z</time>
            </trkpt>
            <trkpt lon="100.872474" lat="12.753372">
                <ele>37.150000</ele>
                <time>2015-10-31T07:56:16Z</time>
            </trkpt>
            <trkpt lon="100.872415" lat="12.753377">
                <ele>39.070000</ele>
                <time>2015-10-31T07:56:27Z</time>
            </trkpt>
            <trkpt lon="100.872417" lat="12.753389">
                <ele>39.550000</ele>
                <time>2015-10-31T07:56:29Z</time>
            </trkpt>
            <trkpt lon="100.872545" lat="12.753469">
                <ele>38.590000</ele>
                <time>2015-10-31T07:56:41Z</time>
            </trkpt>
            <trkpt lon="100.872587" lat="12.753514">
                <ele>40.510000</ele>
                <time>2015-10-31T07:56:49Z</time>
            </trkpt>
            <trkpt lon="100.872570" lat="12.753591">
                <ele>42.440000</ele>
                <time>2015-10-31T07:57:03Z</time>
            </trkpt>
            <trkpt lon="100.872552" lat="12.753607">
                <ele>43.880000</ele>
                <time>2015-10-31T07:57:06Z</time>
            </trkpt>
            <trkpt lon="100.872521" lat="12.753696">
                <ele>45.800000</ele>
                <time>2015-10-31T07:57:22Z</time>
            </trkpt>
            <trkpt lon="100.872537" lat="12.753708">
                <ele>45.320000</ele>
                <time>2015-10-31T07:57:31Z</time>
            </trkpt>
            <trkpt lon="100.872659" lat="12.753749">
                <ele>44.840000</ele>
                <time>2015-10-31T07:57:40Z</time>
            </trkpt>
            <trkpt lon="100.872748" lat="12.753767">
                <ele>42.440000</ele>
                <time>2015-10-31T07:57:46Z</time>
            </trkpt>
            <trkpt lon="100.872758" lat="12.753847">
                <ele>42.920000</ele>
                <time>2015-10-31T07:57:59Z</time>
            </trkpt>
            <trkpt lon="100.872768" lat="12.753876">
                <ele>43.400000</ele>
                <time>2015-10-31T07:58:17Z</time>
            </trkpt>
            <trkpt lon="100.872862" lat="12.753941">
                <ele>40.990000</ele>
                <time>2015-10-31T07:58:25Z</time>
            </trkpt>
            <trkpt lon="100.872895" lat="12.753939">
                <ele>40.030000</ele>
                <time>2015-10-31T07:58:28Z</time>
            </trkpt>
            <trkpt lon="100.872899" lat="12.754004">
                <ele>40.510000</ele>
                <time>2015-10-31T07:58:36Z</time>
            </trkpt>
            <trkpt lon="100.872850" lat="12.754071">
                <ele>41.470000</ele>
                <time>2015-10-31T07:58:49Z</time>
            </trkpt>
            <trkpt lon="100.872771" lat="12.754020">
                <ele>43.880000</ele>
                <time>2015-10-31T07:59:04Z</time>
            </trkpt>
            <trkpt lon="100.872713" lat="12.754013">
                <ele>46.280000</ele>
                <time>2015-10-31T07:59:19Z</time>
            </trkpt>
            <trkpt lon="100.872623" lat="12.754013">
                <ele>48.200000</ele>
                <time>2015-10-31T07:59:33Z</time>
            </trkpt>
            <trkpt lon="100.872600" lat="12.753999">
                <ele>49.650000</ele>
                <time>2015-10-31T07:59:37Z</time>
            </trkpt>
            <trkpt lon="100.872537" lat="12.753983">
                <ele>51.570000</ele>
                <time>2015-10-31T07:59:55Z</time>
            </trkpt>
            <trkpt lon="100.872513" lat="12.754049">
                <ele>53.490000</ele>
                <time>2015-10-31T08:00:11Z</time>
            </trkpt>
            <trkpt lon="100.872471" lat="12.754065">
                <ele>55.890000</ele>
                <time>2015-10-31T08:00:27Z</time>
            </trkpt>
            <trkpt lon="100.872460" lat="12.754086">
                <ele>55.410000</ele>
                <time>2015-10-31T08:00:41Z</time>
            </trkpt>
            <trkpt lon="100.872460" lat="12.754086">
                <ele>55.890000</ele>
                <time>2015-10-31T08:01:12Z</time>
            </trkpt>
            <trkpt lon="100.872462" lat="12.754095">
                <ele>55.890000</ele>
                <time>2015-10-31T08:01:20Z</time>
            </trkpt>
            <trkpt lon="100.872474" lat="12.754115">
                <ele>55.890000</ele>
                <time>2015-10-31T08:01:22Z</time>
            </trkpt>
            <trkpt lon="100.872563" lat="12.754129">
                <ele>52.050000</ele>
                <time>2015-10-31T08:01:28Z</time>
            </trkpt>
            <trkpt lon="100.872580" lat="12.754130">
                <ele>52.050000</ele>
                <time>2015-10-31T08:01:29Z</time>
            </trkpt>
            <trkpt lon="100.872676" lat="12.754158">
                <ele>49.650000</ele>
                <time>2015-10-31T08:01:34Z</time>
            </trkpt>
            <trkpt lon="100.872761" lat="12.754139">
                <ele>47.240000</ele>
                <time>2015-10-31T08:01:38Z</time>
            </trkpt>
            <trkpt lon="100.872779" lat="12.754140">
                <ele>45.320000</ele>
                <time>2015-10-31T08:01:39Z</time>
            </trkpt>
            <trkpt lon="100.872893" lat="12.754216">
                <ele>42.920000</ele>
                <time>2015-10-31T08:01:43Z</time>
            </trkpt>
            <trkpt lon="100.872915" lat="12.754266">
                <ele>43.400000</ele>
                <time>2015-10-31T08:01:46Z</time>
            </trkpt>
            <trkpt lon="100.872926" lat="12.754401">
                <ele>44.360000</ele>
                <time>2015-10-31T08:02:04Z</time>
            </trkpt>
            <trkpt lon="100.872988" lat="12.754490">
                <ele>42.920000</ele>
                <time>2015-10-31T08:02:10Z</time>
            </trkpt>
            <trkpt lon="100.872958" lat="12.754589">
                <ele>44.840000</ele>
                <time>2015-10-31T08:02:20Z</time>
            </trkpt>
            <trkpt lon="100.872944" lat="12.754583">
                <ele>44.840000</ele>
                <time>2015-10-31T08:02:22Z</time>
            </trkpt>
            <trkpt lon="100.872908" lat="12.754595">
                <ele>47.240000</ele>
                <time>2015-10-31T08:02:36Z</time>
            </trkpt>
            <trkpt lon="100.872908" lat="12.754595">
                <ele>46.760000</ele>
                <time>2015-10-31T08:02:41Z</time>
            </trkpt>
            <trkpt lon="100.872917" lat="12.754633">
                <ele>47.720000</ele>
                <time>2015-10-31T08:02:45Z</time>
            </trkpt>
            <trkpt lon="100.872947" lat="12.754706">
                <ele>47.720000</ele>
                <time>2015-10-31T08:02:58Z</time>
            </trkpt>
            <trkpt lon="100.872975" lat="12.754725">
                <ele>47.720000</ele>
                <time>2015-10-31T08:03:03Z</time>
            </trkpt>
            <trkpt lon="100.873034" lat="12.754705">
                <ele>45.320000</ele>
                <time>2015-10-31T08:03:07Z</time>
            </trkpt>
            <trkpt lon="100.873116" lat="12.754642">
                <ele>42.440000</ele>
                <time>2015-10-31T08:03:12Z</time>
            </trkpt>
            <trkpt lon="100.873169" lat="12.754682">
                <ele>40.990000</ele>
                <time>2015-10-31T08:03:16Z</time>
            </trkpt>
            <trkpt lon="100.873126" lat="12.754763">
                <ele>42.920000</ele>
                <time>2015-10-31T08:03:26Z</time>
            </trkpt>
            <trkpt lon="100.873060" lat="12.754828">
                <ele>45.320000</ele>
                <time>2015-10-31T08:03:40Z</time>
            </trkpt>
            <trkpt lon="100.873017" lat="12.754834">
                <ele>47.240000</ele>
                <time>2015-10-31T08:03:52Z</time>
            </trkpt>
            <trkpt lon="100.872984" lat="12.754853">
                <ele>48.680000</ele>
                <time>2015-10-31T08:04:07Z</time>
            </trkpt>
            <trkpt lon="100.873001" lat="12.754888">
                <ele>49.160000</ele>
                <time>2015-10-31T08:04:25Z</time>
            </trkpt>
            <trkpt lon="100.873106" lat="12.754920">
                <ele>45.320000</ele>
                <time>2015-10-31T08:04:31Z</time>
            </trkpt>
            <trkpt lon="100.873126" lat="12.754936">
                <ele>44.840000</ele>
                <time>2015-10-31T08:04:32Z</time>
            </trkpt>
            <trkpt lon="100.873185" lat="12.755056">
                <ele>44.840000</ele>
                <time>2015-10-31T08:04:41Z</time>
            </trkpt>
            <trkpt lon="100.873145" lat="12.755126">
                <ele>47.720000</ele>
                <time>2015-10-31T08:04:55Z</time>
            </trkpt>
            <trkpt lon="100.873159" lat="12.755169">
                <ele>47.240000</ele>
                <time>2015-10-31T08:05:09Z</time>
            </trkpt>
            <trkpt lon="100.873161" lat="12.755177">
                <ele>48.200000</ele>
                <time>2015-10-31T08:05:22Z</time>
            </trkpt>
            <trkpt lon="100.873255" lat="12.755265">
                <ele>45.320000</ele>
                <time>2015-10-31T08:05:29Z</time>
            </trkpt>
            <trkpt lon="100.873306" lat="12.755288">
                <ele>43.880000</ele>
                <time>2015-10-31T08:05:32Z</time>
            </trkpt>
            <trkpt lon="100.873338" lat="12.755259">
                <ele>41.470000</ele>
                <time>2015-10-31T08:05:35Z</time>
            </trkpt>
            <trkpt lon="100.873348" lat="12.755152">
                <ele>39.070000</ele>
                <time>2015-10-31T08:05:40Z</time>
            </trkpt>
            <trkpt lon="100.873314" lat="12.755105">
                <ele>40.030000</ele>
                <time>2015-10-31T08:05:46Z</time>
            </trkpt>
            <trkpt lon="100.873248" lat="12.755062">
                <ele>41.950000</ele>
                <time>2015-10-31T08:06:01Z</time>
            </trkpt>
            <trkpt lon="100.873258" lat="12.755042">
                <ele>40.990000</ele>
                <time>2015-10-31T08:06:09Z</time>
            </trkpt>
            <trkpt lon="100.873222" lat="12.754979">
                <ele>41.470000</ele>
                <time>2015-10-31T08:06:22Z</time>
            </trkpt>
            <trkpt lon="100.873206" lat="12.754927">
                <ele>41.470000</ele>
                <time>2015-10-31T08:06:30Z</time>
            </trkpt>
            <trkpt lon="100.873250" lat="12.754850">
                <ele>38.110000</ele>
                <time>2015-10-31T08:06:35Z</time>
            </trkpt>
            <trkpt lon="100.873269" lat="12.754846">
                <ele>38.110000</ele>
                <time>2015-10-31T08:06:36Z</time>
            </trkpt>
            <trkpt lon="100.873316" lat="12.754865">
                <ele>37.150000</ele>
                <time>2015-10-31T08:06:38Z</time>
            </trkpt>
            <trkpt lon="100.873341" lat="12.754891">
                <ele>36.670000</ele>
                <time>2015-10-31T08:06:39Z</time>
            </trkpt>
            <trkpt lon="100.873495" lat="12.755131">
                <ele>33.300000</ele>
                <time>2015-10-31T08:06:46Z</time>
            </trkpt>
            <trkpt lon="100.873584" lat="12.755358">
                <ele>31.860000</ele>
                <time>2015-10-31T08:06:50Z</time>
            </trkpt>
            <trkpt lon="100.873647" lat="12.755812">
                <ele>29.940000</ele>
                <time>2015-10-31T08:06:58Z</time>
            </trkpt>
            <trkpt lon="100.873675" lat="12.755962">
                <ele>29.460000</ele>
                <time>2015-10-31T08:07:01Z</time>
            </trkpt>
            <trkpt lon="100.873694" lat="12.756297">
                <ele>28.980000</ele>
                <time>2015-10-31T08:07:08Z</time>
            </trkpt>
            <trkpt lon="100.873698" lat="12.756577">
                <ele>28.500000</ele>
                <time>2015-10-31T08:07:14Z</time>
            </trkpt>
            <trkpt lon="100.873712" lat="12.756860">
                <ele>28.500000</ele>
                <time>2015-10-31T08:07:24Z</time>
            </trkpt>
            <trkpt lon="100.873770" lat="12.757241">
                <ele>28.500000</ele>
                <time>2015-10-31T08:07:35Z</time>
            </trkpt>
            <trkpt lon="100.873805" lat="12.757458">
                <ele>27.530000</ele>
                <time>2015-10-31T08:07:39Z</time>
            </trkpt>
            <trkpt lon="100.873814" lat="12.757553">
                <ele>27.530000</ele>
                <time>2015-10-31T08:07:41Z</time>
            </trkpt>
            <trkpt lon="100.873815" lat="12.757709">
                <ele>26.090000</ele>
                <time>2015-10-31T08:07:44Z</time>
            </trkpt>
            <trkpt lon="100.873810" lat="12.757872">
                <ele>25.610000</ele>
                <time>2015-10-31T08:07:47Z</time>
            </trkpt>
            <trkpt lon="100.873782" lat="12.758089">
                <ele>25.130000</ele>
                <time>2015-10-31T08:07:52Z</time>
            </trkpt>
            <trkpt lon="100.873759" lat="12.758191">
                <ele>25.130000</ele>
                <time>2015-10-31T08:08:02Z</time>
            </trkpt>
            <trkpt lon="100.873761" lat="12.758206">
                <ele>25.610000</ele>
                <time>2015-10-31T08:08:18Z</time>
            </trkpt>
            <trkpt lon="100.873843" lat="12.758442">
                <ele>23.210000</ele>
                <time>2015-10-31T08:08:28Z</time>
            </trkpt>
            <trkpt lon="100.873861" lat="12.758649">
                <ele>21.770000</ele>
                <time>2015-10-31T08:08:36Z</time>
            </trkpt>
            <trkpt lon="100.873922" lat="12.759025">
                <ele>20.810000</ele>
                <time>2015-10-31T08:08:46Z</time>
            </trkpt>
            <trkpt lon="100.874039" lat="12.759443">
                <ele>19.360000</ele>
                <time>2015-10-31T08:08:57Z</time>
            </trkpt>
            <trkpt lon="100.874109" lat="12.760008">
                <ele>19.840000</ele>
                <time>2015-10-31T08:09:10Z</time>
            </trkpt>
            <trkpt lon="100.874189" lat="12.760459">
                <ele>18.880000</ele>
                <time>2015-10-31T08:09:23Z</time>
            </trkpt>
            <trkpt lon="100.874179" lat="12.760513">
                <ele>18.880000</ele>
                <time>2015-10-31T08:09:25Z</time>
            </trkpt>
            <trkpt lon="100.874145" lat="12.760581">
                <ele>17.920000</ele>
                <time>2015-10-31T08:09:37Z</time>
            </trkpt>
            <trkpt lon="100.874154" lat="12.760568">
                <ele>19.360000</ele>
                <time>2015-10-31T08:09:49Z</time>
            </trkpt>
            <trkpt lon="100.874183" lat="12.760529">
                <ele>16.960000</ele>
                <time>2015-10-31T08:09:52Z</time>
            </trkpt>
            <trkpt lon="100.874250" lat="12.760421">
                <ele>16.000000</ele>
                <time>2015-10-31T08:09:55Z</time>
            </trkpt>
            <trkpt lon="100.874436" lat="12.760279">
                <ele>14.560000</ele>
                <time>2015-10-31T08:10:03Z</time>
            </trkpt>
            <trkpt lon="100.874362" lat="12.760165">
                <ele>14.560000</ele>
                <time>2015-10-31T08:10:08Z</time>
            </trkpt>
            <trkpt lon="100.874319" lat="12.760152">
                <ele>14.080000</ele>
                <time>2015-10-31T08:10:10Z</time>
            </trkpt>
            <trkpt lon="100.874223" lat="12.759811">
                <ele>14.080000</ele>
                <time>2015-10-31T08:10:20Z</time>
            </trkpt>
            <trkpt lon="100.874199" lat="12.759728">
                <ele>14.560000</ele>
                <time>2015-10-31T08:10:22Z</time>
            </trkpt>
            <trkpt lon="100.874271" lat="12.759494">
                <ele>14.080000</ele>
                <time>2015-10-31T08:10:31Z</time>
            </trkpt>
            <trkpt lon="100.874316" lat="12.759459">
                <ele>14.560000</ele>
                <time>2015-10-31T08:10:44Z</time>
            </trkpt>
            <trkpt lon="100.874348" lat="12.759444">
                <ele>15.040000</ele>
                <time>2015-10-31T08:10:49Z</time>
            </trkpt>
            <trkpt lon="100.874524" lat="12.759444">
                <ele>14.080000</ele>
                <time>2015-10-31T08:10:59Z</time>
            </trkpt>
            <trkpt lon="100.874720" lat="12.759310">
                <ele>14.080000</ele>
                <time>2015-10-31T08:11:07Z</time>
            </trkpt>
            <trkpt lon="100.874703" lat="12.759136">
                <ele>15.520000</ele>
                <time>2015-10-31T08:11:20Z</time>
            </trkpt>
            <trkpt lon="100.874688" lat="12.759124">
                <ele>14.560000</ele>
                <time>2015-10-31T08:11:21Z</time>
            </trkpt>
            <trkpt lon="100.874660" lat="12.759047">
                <ele>15.520000</ele>
                <time>2015-10-31T08:11:25Z</time>
            </trkpt>
            <trkpt lon="100.874557" lat="12.758817">
                <ele>18.400000</ele>
                <time>2015-10-31T08:11:38Z</time>
            </trkpt>
            <trkpt lon="100.874537" lat="12.758807">
                <ele>18.400000</ele>
                <time>2015-10-31T08:11:41Z</time>
            </trkpt>
            <trkpt lon="100.874404" lat="12.758843">
                <ele>17.920000</ele>
                <time>2015-10-31T08:11:49Z</time>
            </trkpt>
            <trkpt lon="100.874382" lat="12.758841">
                <ele>17.920000</ele>
                <time>2015-10-31T08:11:50Z</time>
            </trkpt>
            <trkpt lon="100.874229" lat="12.758846">
                <ele>17.440000</ele>
                <time>2015-10-31T08:11:57Z</time>
            </trkpt>
            <trkpt lon="100.874206" lat="12.758680">
                <ele>19.360000</ele>
                <time>2015-10-31T08:12:10Z</time>
            </trkpt>
            <trkpt lon="100.874184" lat="12.758638">
                <ele>19.840000</ele>
                <time>2015-10-31T08:12:29Z</time>
            </trkpt>
            <trkpt lon="100.874170" lat="12.758511">
                <ele>20.810000</ele>
                <time>2015-10-31T08:12:44Z</time>
            </trkpt>
            <trkpt lon="100.874192" lat="12.758488">
                <ele>21.290000</ele>
                <time>2015-10-31T08:12:50Z</time>
            </trkpt>
            <trkpt lon="100.874225" lat="12.758464">
                <ele>20.810000</ele>
                <time>2015-10-31T08:12:53Z</time>
            </trkpt>
            <trkpt lon="100.874289" lat="12.758426">
                <ele>20.810000</ele>
                <time>2015-10-31T08:13:02Z</time>
            </trkpt>
            <trkpt lon="100.874492" lat="12.758461">
                <ele>19.360000</ele>
                <time>2015-10-31T08:13:11Z</time>
            </trkpt>
            <trkpt lon="100.874528" lat="12.758420">
                <ele>19.840000</ele>
                <time>2015-10-31T08:13:13Z</time>
            </trkpt>
            <trkpt lon="100.874679" lat="12.758272">
                <ele>19.360000</ele>
                <time>2015-10-31T08:13:21Z</time>
            </trkpt>
            <trkpt lon="100.874889" lat="12.758311">
                <ele>17.440000</ele>
                <time>2015-10-31T08:13:28Z</time>
            </trkpt>
            <trkpt lon="100.874932" lat="12.758403">
                <ele>16.480000</ele>
                <time>2015-10-31T08:13:33Z</time>
            </trkpt>
            <trkpt lon="100.874823" lat="12.758380">
                <ele>17.440000</ele>
                <time>2015-10-31T08:13:43Z</time>
            </trkpt>
            <trkpt lon="100.874829" lat="12.758352">
                <ele>17.440000</ele>
                <time>2015-10-31T08:13:49Z</time>
            </trkpt>
            <trkpt lon="100.874834" lat="12.758310">
                <ele>18.400000</ele>
                <time>2015-10-31T08:14:04Z</time>
            </trkpt>
            <trkpt lon="100.874834" lat="12.758310">
                <ele>17.440000</ele>
                <time>2015-10-31T08:14:06Z</time>
            </trkpt>
            <trkpt lon="100.874834" lat="12.758310">
                <ele>17.440000</ele>
                <time>2015-10-31T08:14:35Z</time>
            </trkpt>
            <trkpt lon="100.874850" lat="12.758308">
                <ele>18.400000</ele>
                <time>2015-10-31T08:14:45Z</time>
            </trkpt>
            <trkpt lon="100.874959" lat="12.758362">
                <ele>16.960000</ele>
                <time>2015-10-31T08:14:51Z</time>
            </trkpt>
            <trkpt lon="100.874900" lat="12.758457">
                <ele>16.000000</ele>
                <time>2015-10-31T08:14:59Z</time>
            </trkpt>
            <trkpt lon="100.874861" lat="12.758353">
                <ele>17.440000</ele>
                <time>2015-10-31T08:15:10Z</time>
            </trkpt>
            <trkpt lon="100.874841" lat="12.758319">
                <ele>17.440000</ele>
                <time>2015-10-31T08:15:23Z</time>
            </trkpt>
            <trkpt lon="100.874844" lat="12.758310">
                <ele>18.400000</ele>
                <time>2015-10-31T08:15:39Z</time>
            </trkpt>
            <trkpt lon="100.874844" lat="12.758310">
                <ele>17.920000</ele>
                <time>2015-10-31T08:15:40Z</time>
            </trkpt>
            <trkpt lon="100.874984" lat="12.758388">
                <ele>16.000000</ele>
                <time>2015-10-31T08:15:47Z</time>
            </trkpt>
            <trkpt lon="100.874922" lat="12.758475">
                <ele>15.520000</ele>
                <time>2015-10-31T08:15:54Z</time>
            </trkpt>
            <trkpt lon="100.874899" lat="12.758458">
                <ele>15.520000</ele>
                <time>2015-10-31T08:15:56Z</time>
            </trkpt>
            <trkpt lon="100.874869" lat="12.758384">
                <ele>16.960000</ele>
                <time>2015-10-31T08:16:00Z</time>
            </trkpt>
            <trkpt lon="100.874775" lat="12.758396">
                <ele>18.400000</ele>
                <time>2015-10-31T08:16:06Z</time>
            </trkpt>
            <trkpt lon="100.874806" lat="12.758479">
                <ele>17.440000</ele>
                <time>2015-10-31T08:16:12Z</time>
            </trkpt>
            <trkpt lon="100.874740" lat="12.758526">
                <ele>17.920000</ele>
                <time>2015-10-31T08:16:25Z</time>
            </trkpt>
            <trkpt lon="100.874647" lat="12.758503">
                <ele>17.920000</ele>
                <time>2015-10-31T08:16:37Z</time>
            </trkpt>
            <trkpt lon="100.874604" lat="12.758509">
                <ele>18.880000</ele>
                <time>2015-10-31T08:16:44Z</time>
            </trkpt>
            <trkpt lon="100.874710" lat="12.758575">
                <ele>17.440000</ele>
                <time>2015-10-31T08:16:54Z</time>
            </trkpt>
            <trkpt lon="100.874709" lat="12.758634">
                <ele>16.960000</ele>
                <time>2015-10-31T08:17:01Z</time>
            </trkpt>
            <trkpt lon="100.874788" lat="12.758692">
                <ele>15.520000</ele>
                <time>2015-10-31T08:17:07Z</time>
            </trkpt>
            <trkpt lon="100.874801" lat="12.758740">
                <ele>14.560000</ele>
                <time>2015-10-31T08:17:09Z</time>
            </trkpt>
            <trkpt lon="100.874779" lat="12.758768">
                <ele>14.560000</ele>
                <time>2015-10-31T08:17:11Z</time>
            </trkpt>
            <trkpt lon="100.874737" lat="12.758783">
                <ele>14.560000</ele>
                <time>2015-10-31T08:17:14Z</time>
            </trkpt>
            <trkpt lon="100.874758" lat="12.758846">
                <ele>14.560000</ele>
                <time>2015-10-31T08:17:18Z</time>
            </trkpt>
            <trkpt lon="100.874778" lat="12.758896">
                <ele>14.080000</ele>
                <time>2015-10-31T08:17:21Z</time>
            </trkpt>
            <trkpt lon="100.874828" lat="12.758917">
                <ele>13.600000</ele>
                <time>2015-10-31T08:17:25Z</time>
            </trkpt>
            <trkpt lon="100.874866" lat="12.758868">
                <ele>13.600000</ele>
                <time>2015-10-31T08:17:34Z</time>
            </trkpt>
            <trkpt lon="100.874871" lat="12.758775">
                <ele>14.560000</ele>
                <time>2015-10-31T08:17:49Z</time>
            </trkpt>
            <trkpt lon="100.874882" lat="12.758738">
                <ele>15.040000</ele>
                <time>2015-10-31T08:18:00Z</time>
            </trkpt>
            <trkpt lon="100.874913" lat="12.758711">
                <ele>15.040000</ele>
                <time>2015-10-31T08:18:11Z</time>
            </trkpt>
            <trkpt lon="100.874930" lat="12.758697">
                <ele>15.040000</ele>
                <time>2015-10-31T08:18:19Z</time>
            </trkpt>
            <trkpt lon="100.875060" lat="12.758735">
                <ele>13.600000</ele>
                <time>2015-10-31T08:18:29Z</time>
            </trkpt>
            <trkpt lon="100.875111" lat="12.758785">
                <ele>12.150000</ele>
                <time>2015-10-31T08:18:32Z</time>
            </trkpt>
            <trkpt lon="100.875264" lat="12.758768">
                <ele>14.080000</ele>
                <time>2015-10-31T08:18:44Z</time>
            </trkpt>
            <trkpt lon="100.875308" lat="12.758740">
                <ele>14.560000</ele>
                <time>2015-10-31T08:18:58Z</time>
            </trkpt>
            <trkpt lon="100.875420" lat="12.758788">
                <ele>12.150000</ele>
                <time>2015-10-31T08:19:03Z</time>
            </trkpt>
            <trkpt lon="100.875577" lat="12.758722">
                <ele>13.120000</ele>
                <time>2015-10-31T08:19:10Z</time>
            </trkpt>
            <trkpt lon="100.875596" lat="12.758666">
                <ele>13.600000</ele>
                <time>2015-10-31T08:19:14Z</time>
            </trkpt>
            <trkpt lon="100.875574" lat="12.758527">
                <ele>14.560000</ele>
                <time>2015-10-31T08:19:26Z</time>
            </trkpt>
            <trkpt lon="100.875555" lat="12.758528">
                <ele>15.520000</ele>
                <time>2015-10-31T08:19:39Z</time>
            </trkpt>
            <trkpt lon="100.875523" lat="12.758544">
                <ele>15.040000</ele>
                <time>2015-10-31T08:19:43Z</time>
            </trkpt>
            <trkpt lon="100.875490" lat="12.758579">
                <ele>15.040000</ele>
                <time>2015-10-31T08:19:48Z</time>
            </trkpt>
            <trkpt lon="100.875457" lat="12.758598">
                <ele>14.080000</ele>
                <time>2015-10-31T08:20:04Z</time>
            </trkpt>
            <trkpt lon="100.875475" lat="12.758570">
                <ele>15.040000</ele>
                <time>2015-10-31T08:20:16Z</time>
            </trkpt>
            <trkpt lon="100.875480" lat="12.758568">
                <ele>14.080000</ele>
                <time>2015-10-31T08:20:18Z</time>
            </trkpt>
            <trkpt lon="100.875503" lat="12.758531">
                <ele>15.040000</ele>
                <time>2015-10-31T08:20:21Z</time>
            </trkpt>
            <trkpt lon="100.875570" lat="12.758455">
                <ele>15.040000</ele>
                <time>2015-10-31T08:20:30Z</time>
            </trkpt>
            <trkpt lon="100.875598" lat="12.758265">
                <ele>15.520000</ele>
                <time>2015-10-31T08:20:39Z</time>
            </trkpt>
            <trkpt lon="100.875618" lat="12.758223">
                <ele>15.520000</ele>
                <time>2015-10-31T08:20:50Z</time>
            </trkpt>
            <trkpt lon="100.875613" lat="12.758217">
                <ele>15.040000</ele>
                <time>2015-10-31T08:21:08Z</time>
            </trkpt>
            <trkpt lon="100.875559" lat="12.758092">
                <ele>14.560000</ele>
                <time>2015-10-31T08:21:15Z</time>
            </trkpt>
            <trkpt lon="100.875596" lat="12.758019">
                <ele>16.000000</ele>
                <time>2015-10-31T08:21:19Z</time>
            </trkpt>
            <trkpt lon="100.875566" lat="12.757920">
                <ele>16.000000</ele>
                <time>2015-10-31T08:21:24Z</time>
            </trkpt>
            <trkpt lon="100.875490" lat="12.757786">
                <ele>16.480000</ele>
                <time>2015-10-31T08:21:31Z</time>
            </trkpt>
            <trkpt lon="100.875396" lat="12.757858">
                <ele>16.960000</ele>
                <time>2015-10-31T08:21:41Z</time>
            </trkpt>
            <trkpt lon="100.875343" lat="12.757783">
                <ele>16.960000</ele>
                <time>2015-10-31T08:21:49Z</time>
            </trkpt>
            <trkpt lon="100.875375" lat="12.757679">
                <ele>16.480000</ele>
                <time>2015-10-31T08:21:55Z</time>
            </trkpt>
            <trkpt lon="100.875524" lat="12.757573">
                <ele>16.000000</ele>
                <time>2015-10-31T08:22:05Z</time>
            </trkpt>
            <trkpt lon="100.875571" lat="12.757483">
                <ele>16.960000</ele>
                <time>2015-10-31T08:22:10Z</time>
            </trkpt>
            <trkpt lon="100.875528" lat="12.757460">
                <ele>16.000000</ele>
                <time>2015-10-31T08:22:14Z</time>
            </trkpt>
            <trkpt lon="100.875456" lat="12.757463">
                <ele>16.480000</ele>
                <time>2015-10-31T08:22:18Z</time>
            </trkpt>
            <trkpt lon="100.875388" lat="12.757566">
                <ele>16.480000</ele>
                <time>2015-10-31T08:22:25Z</time>
            </trkpt>
            <trkpt lon="100.875324" lat="12.757527">
                <ele>16.480000</ele>
                <time>2015-10-31T08:22:29Z</time>
            </trkpt>
            <trkpt lon="100.875267" lat="12.757470">
                <ele>16.960000</ele>
                <time>2015-10-31T08:22:33Z</time>
            </trkpt>
            <trkpt lon="100.875211" lat="12.757454">
                <ele>17.440000</ele>
                <time>2015-10-31T08:22:37Z</time>
            </trkpt>
            <trkpt lon="100.875117" lat="12.757450">
                <ele>17.920000</ele>
                <time>2015-10-31T08:22:42Z</time>
            </trkpt>
            <trkpt lon="100.875117" lat="12.757495">
                <ele>18.400000</ele>
                <time>2015-10-31T08:22:47Z</time>
            </trkpt>
            <trkpt lon="100.875241" lat="12.757582">
                <ele>16.960000</ele>
                <time>2015-10-31T08:22:55Z</time>
            </trkpt>
            <trkpt lon="100.875160" lat="12.757621">
                <ele>17.440000</ele>
                <time>2015-10-31T08:23:00Z</time>
            </trkpt>
            <trkpt lon="100.875013" lat="12.757690">
                <ele>18.880000</ele>
                <time>2015-10-31T08:23:08Z</time>
            </trkpt>
            <trkpt lon="100.874915" lat="12.757697">
                <ele>18.880000</ele>
                <time>2015-10-31T08:23:13Z</time>
            </trkpt>
            <trkpt lon="100.874849" lat="12.757703">
                <ele>19.840000</ele>
                <time>2015-10-31T08:23:17Z</time>
            </trkpt>
            <trkpt lon="100.874781" lat="12.757703">
                <ele>19.840000</ele>
                <time>2015-10-31T08:23:22Z</time>
            </trkpt>
            <trkpt lon="100.874745" lat="12.757717">
                <ele>20.810000</ele>
                <time>2015-10-31T08:23:32Z</time>
            </trkpt>
            <trkpt lon="100.874746" lat="12.757714">
                <ele>19.840000</ele>
                <time>2015-10-31T08:23:56Z</time>
            </trkpt>
            <trkpt lon="100.874746" lat="12.757714">
                <ele>20.810000</ele>
                <time>2015-10-31T08:23:58Z</time>
            </trkpt>
            <trkpt lon="100.874764" lat="12.757687">
                <ele>20.320000</ele>
                <time>2015-10-31T08:24:13Z</time>
            </trkpt>
            <trkpt lon="100.874759" lat="12.757681">
                <ele>20.320000</ele>
                <time>2015-10-31T08:24:41Z</time>
            </trkpt>
            <trkpt lon="100.874774" lat="12.757636">
                <ele>20.810000</ele>
                <time>2015-10-31T08:24:48Z</time>
            </trkpt>
            <trkpt lon="100.874886" lat="12.757526">
                <ele>19.840000</ele>
                <time>2015-10-31T08:24:56Z</time>
            </trkpt>
            <trkpt lon="100.874891" lat="12.757460">
                <ele>19.840000</ele>
                <time>2015-10-31T08:25:00Z</time>
            </trkpt>
            <trkpt lon="100.874713" lat="12.757398">
                <ele>20.810000</ele>
                <time>2015-10-31T08:25:10Z</time>
            </trkpt>
            <trkpt lon="100.874615" lat="12.757346">
                <ele>21.290000</ele>
                <time>2015-10-31T08:25:16Z</time>
            </trkpt>
            <trkpt lon="100.874653" lat="12.757295">
                <ele>21.290000</ele>
                <time>2015-10-31T08:25:22Z</time>
            </trkpt>
            <trkpt lon="100.874830" lat="12.757261">
                <ele>19.360000</ele>
                <time>2015-10-31T08:25:32Z</time>
            </trkpt>
            <trkpt lon="100.874961" lat="12.757385">
                <ele>19.360000</ele>
                <time>2015-10-31T08:25:39Z</time>
            </trkpt>
            <trkpt lon="100.875047" lat="12.757362">
                <ele>18.400000</ele>
                <time>2015-10-31T08:25:43Z</time>
            </trkpt>
            <trkpt lon="100.875120" lat="12.757283">
                <ele>17.920000</ele>
                <time>2015-10-31T08:25:48Z</time>
            </trkpt>
            <trkpt lon="100.875272" lat="12.757350">
                <ele>17.920000</ele>
                <time>2015-10-31T08:25:59Z</time>
            </trkpt>
            <trkpt lon="100.875270" lat="12.757340">
                <ele>17.440000</ele>
                <time>2015-10-31T08:26:00Z</time>
            </trkpt>
            <trkpt lon="100.875259" lat="12.757221">
                <ele>20.320000</ele>
                <time>2015-10-31T08:26:11Z</time>
            </trkpt>
            <trkpt lon="100.875259" lat="12.757221">
                <ele>16.960000</ele>
                <time>2015-10-31T08:26:13Z</time>
            </trkpt>
            <trkpt lon="100.875268" lat="12.757219">
                <ele>19.360000</ele>
                <time>2015-10-31T08:26:26Z</time>
            </trkpt>
            <trkpt lon="100.875275" lat="12.757198">
                <ele>19.840000</ele>
                <time>2015-10-31T08:26:33Z</time>
            </trkpt>
            <trkpt lon="100.875266" lat="12.756989">
                <ele>19.840000</ele>
                <time>2015-10-31T08:26:44Z</time>
            </trkpt>
            <trkpt lon="100.875266" lat="12.756986">
                <ele>15.040000</ele>
                <time>2015-10-31T08:26:55Z</time>
            </trkpt>
            <trkpt lon="100.875266" lat="12.756986">
                <ele>20.320000</ele>
                <time>2015-10-31T08:26:56Z</time>
            </trkpt>
            <trkpt lon="100.875262" lat="12.756957">
                <ele>20.810000</ele>
                <time>2015-10-31T08:27:10Z</time>
            </trkpt>
            <trkpt lon="100.875262" lat="12.756956">
                <ele>20.320000</ele>
                <time>2015-10-31T08:27:11Z</time>
            </trkpt>
            <trkpt lon="100.875262" lat="12.756973">
                <ele>19.360000</ele>
                <time>2015-10-31T08:27:14Z</time>
            </trkpt>
            <trkpt lon="100.875263" lat="12.757045">
                <ele>19.360000</ele>
                <time>2015-10-31T08:27:26Z</time>
            </trkpt>
            <trkpt lon="100.875271" lat="12.757014">
                <ele>19.840000</ele>
                <time>2015-10-31T08:27:37Z</time>
            </trkpt>
            <trkpt lon="100.875283" lat="12.756966">
                <ele>19.840000</ele>
                <time>2015-10-31T08:27:41Z</time>
            </trkpt>
            <trkpt lon="100.875310" lat="12.756942">
                <ele>18.880000</ele>
                <time>2015-10-31T08:27:44Z</time>
            </trkpt>
            <trkpt lon="100.875360" lat="12.756920">
                <ele>16.960000</ele>
                <time>2015-10-31T08:27:47Z</time>
            </trkpt>
            <trkpt lon="100.875407" lat="12.756952">
                <ele>16.000000</ele>
                <time>2015-10-31T08:27:49Z</time>
            </trkpt>
            <trkpt lon="100.875451" lat="12.756989">
                <ele>15.040000</ele>
                <time>2015-10-31T08:27:51Z</time>
            </trkpt>
            <trkpt lon="100.875510" lat="12.757009">
                <ele>16.000000</ele>
                <time>2015-10-31T08:28:04Z</time>
            </trkpt>
            <trkpt lon="100.875542" lat="12.757004">
                <ele>14.560000</ele>
                <time>2015-10-31T08:28:06Z</time>
            </trkpt>
            <trkpt lon="100.875618" lat="12.756991">
                <ele>14.560000</ele>
                <time>2015-10-31T08:28:11Z</time>
            </trkpt>
            <trkpt lon="100.875695" lat="12.757079">
                <ele>16.960000</ele>
                <time>2015-10-31T08:28:24Z</time>
            </trkpt>
            <trkpt lon="100.875731" lat="12.757083">
                <ele>16.960000</ele>
                <time>2015-10-31T08:28:29Z</time>
            </trkpt>
            <trkpt lon="100.875807" lat="12.757051">
                <ele>15.520000</ele>
                <time>2015-10-31T08:28:38Z</time>
            </trkpt>
            <trkpt lon="100.875842" lat="12.757066">
                <ele>13.600000</ele>
                <time>2015-10-31T08:28:41Z</time>
            </trkpt>
            <trkpt lon="100.875824" lat="12.757158">
                <ele>14.080000</ele>
                <time>2015-10-31T08:28:53Z</time>
            </trkpt>
            <trkpt lon="100.875834" lat="12.757221">
                <ele>15.040000</ele>
                <time>2015-10-31T08:28:59Z</time>
            </trkpt>
            <trkpt lon="100.875876" lat="12.757272">
                <ele>14.080000</ele>
                <time>2015-10-31T08:29:04Z</time>
            </trkpt>
            <trkpt lon="100.875950" lat="12.757357">
                <ele>14.560000</ele>
                <time>2015-10-31T08:29:19Z</time>
            </trkpt>
            <trkpt lon="100.876076" lat="12.757391">
                <ele>11.670000</ele>
                <time>2015-10-31T08:29:30Z</time>
            </trkpt>
            <trkpt lon="100.876097" lat="12.757396">
                <ele>12.150000</ele>
                <time>2015-10-31T08:29:46Z</time>
            </trkpt>
            <trkpt lon="100.876105" lat="12.757386">
                <ele>11.190000</ele>
                <time>2015-10-31T08:29:48Z</time>
            </trkpt>
            <trkpt lon="100.876112" lat="12.757283">
                <ele>11.190000</ele>
                <time>2015-10-31T08:29:56Z</time>
            </trkpt>
            <trkpt lon="100.876107" lat="12.757276">
                <ele>11.190000</ele>
                <time>2015-10-31T08:29:57Z</time>
            </trkpt>
            <trkpt lon="100.876076" lat="12.757256">
                <ele>11.670000</ele>
                <time>2015-10-31T08:30:01Z</time>
            </trkpt>
            <trkpt lon="100.876034" lat="12.757249">
                <ele>12.630000</ele>
                <time>2015-10-31T08:30:07Z</time>
            </trkpt>
            <trkpt lon="100.876003" lat="12.757201">
                <ele>13.600000</ele>
                <time>2015-10-31T08:30:17Z</time>
            </trkpt>
            <trkpt lon="100.875982" lat="12.757153">
                <ele>12.630000</ele>
                <time>2015-10-31T08:30:21Z</time>
            </trkpt>
            <trkpt lon="100.875999" lat="12.757119">
                <ele>12.150000</ele>
                <time>2015-10-31T08:30:31Z</time>
            </trkpt>
            <trkpt lon="100.876036" lat="12.757089">
                <ele>12.630000</ele>
                <time>2015-10-31T08:30:35Z</time>
            </trkpt>
            <trkpt lon="100.876047" lat="12.757069">
                <ele>11.670000</ele>
                <time>2015-10-31T08:30:37Z</time>
            </trkpt>
            <trkpt lon="100.876015" lat="12.757031">
                <ele>12.150000</ele>
                <time>2015-10-31T08:30:43Z</time>
            </trkpt>
            <trkpt lon="100.875952" lat="12.756980">
                <ele>13.120000</ele>
                <time>2015-10-31T08:30:56Z</time>
            </trkpt>
            <trkpt lon="100.875979" lat="12.756927">
                <ele>11.670000</ele>
                <time>2015-10-31T08:30:59Z</time>
            </trkpt>
            <trkpt lon="100.876143" lat="12.756885">
                <ele>11.190000</ele>
                <time>2015-10-31T08:31:07Z</time>
            </trkpt>
            <trkpt lon="100.876174" lat="12.756851">
                <ele>11.190000</ele>
                <time>2015-10-31T08:31:10Z</time>
            </trkpt>
            <trkpt lon="100.876153" lat="12.756784">
                <ele>10.710000</ele>
                <time>2015-10-31T08:31:14Z</time>
            </trkpt>
            <trkpt lon="100.876138" lat="12.756657">
                <ele>10.710000</ele>
                <time>2015-10-31T08:31:23Z</time>
            </trkpt>
            <trkpt lon="100.876075" lat="12.756608">
                <ele>10.710000</ele>
                <time>2015-10-31T08:31:28Z</time>
            </trkpt>
            <trkpt lon="100.875925" lat="12.756639">
                <ele>12.150000</ele>
                <time>2015-10-31T08:31:39Z</time>
            </trkpt>
            <trkpt lon="100.875841" lat="12.756683">
                <ele>12.150000</ele>
                <time>2015-10-31T08:31:46Z</time>
            </trkpt>
            <trkpt lon="100.875778" lat="12.756744">
                <ele>12.630000</ele>
                <time>2015-10-31T08:31:59Z</time>
            </trkpt>
            <trkpt lon="100.875776" lat="12.756742">
                <ele>12.150000</ele>
                <time>2015-10-31T08:32:23Z</time>
            </trkpt>
            <trkpt lon="100.875726" lat="12.756759">
                <ele>12.630000</ele>
                <time>2015-10-31T08:32:39Z</time>
            </trkpt>
            <trkpt lon="100.875675" lat="12.756767">
                <ele>13.120000</ele>
                <time>2015-10-31T08:32:55Z</time>
            </trkpt>
            <trkpt lon="100.875666" lat="12.756765">
                <ele>12.150000</ele>
                <time>2015-10-31T08:33:10Z</time>
            </trkpt>
            <trkpt lon="100.875666" lat="12.756765">
                <ele>11.190000</ele>
                <time>2015-10-31T08:33:48Z</time>
            </trkpt>
            <trkpt lon="100.875643" lat="12.756729">
                <ele>13.120000</ele>
                <time>2015-10-31T08:34:13Z</time>
            </trkpt>
            <trkpt lon="100.875614" lat="12.756690">
                <ele>13.120000</ele>
                <time>2015-10-31T08:34:19Z</time>
            </trkpt>
            <trkpt lon="100.875495" lat="12.756641">
                <ele>13.600000</ele>
                <time>2015-10-31T08:34:33Z</time>
            </trkpt>
            <trkpt lon="100.875490" lat="12.756607">
                <ele>13.120000</ele>
                <time>2015-10-31T08:34:55Z</time>
            </trkpt>
            <trkpt lon="100.875491" lat="12.756603">
                <ele>13.120000</ele>
                <time>2015-10-31T08:35:20Z</time>
            </trkpt>
            <trkpt lon="100.875493" lat="12.756602">
                <ele>13.120000</ele>
                <time>2015-10-31T08:35:55Z</time>
            </trkpt>
            <trkpt lon="100.875494" lat="12.756597">
                <ele>13.120000</ele>
                <time>2015-10-31T08:36:25Z</time>
            </trkpt>
            <trkpt lon="100.875494" lat="12.756597">
                <ele>13.600000</ele>
                <time>2015-10-31T08:36:48Z</time>
            </trkpt>
            <trkpt lon="100.875381" lat="12.756609">
                <ele>14.560000</ele>
                <time>2015-10-31T08:37:00Z</time>
            </trkpt>
            <trkpt lon="100.875342" lat="12.756614">
                <ele>14.560000</ele>
                <time>2015-10-31T08:37:03Z</time>
            </trkpt>
            <trkpt lon="100.875270" lat="12.756653">
                <ele>15.040000</ele>
                <time>2015-10-31T08:37:15Z</time>
            </trkpt>
            <trkpt lon="100.875140" lat="12.756703">
                <ele>15.520000</ele>
                <time>2015-10-31T08:37:27Z</time>
            </trkpt>
            <trkpt lon="100.875055" lat="12.756761">
                <ele>16.480000</ele>
                <time>2015-10-31T08:37:38Z</time>
            </trkpt>
            <trkpt lon="100.874985" lat="12.756771">
                <ele>16.000000</ele>
                <time>2015-10-31T08:37:48Z</time>
            </trkpt>
            <trkpt lon="100.874943" lat="12.756822">
                <ele>16.960000</ele>
                <time>2015-10-31T08:37:53Z</time>
            </trkpt>
            <trkpt lon="100.874923" lat="12.756878">
                <ele>16.960000</ele>
                <time>2015-10-31T08:37:57Z</time>
            </trkpt>
            <trkpt lon="100.874819" lat="12.756951">
                <ele>17.920000</ele>
                <time>2015-10-31T08:38:09Z</time>
            </trkpt>
            <trkpt lon="100.874750" lat="12.756972">
                <ele>18.400000</ele>
                <time>2015-10-31T08:38:19Z</time>
            </trkpt>
            <trkpt lon="100.874613" lat="12.756943">
                <ele>18.880000</ele>
                <time>2015-10-31T08:38:33Z</time>
            </trkpt>
            <trkpt lon="100.874490" lat="12.756952">
                <ele>19.360000</ele>
                <time>2015-10-31T08:38:45Z</time>
            </trkpt>
            <trkpt lon="100.874464" lat="12.756970">
                <ele>20.320000</ele>
                <time>2015-10-31T08:38:50Z</time>
            </trkpt>
            <trkpt lon="100.874350" lat="12.757019">
                <ele>20.320000</ele>
                <time>2015-10-31T08:39:04Z</time>
            </trkpt>
            <trkpt lon="100.874292" lat="12.757062">
                <ele>20.810000</ele>
                <time>2015-10-31T08:39:16Z</time>
            </trkpt>
            <trkpt lon="100.874194" lat="12.757086">
                <ele>21.770000</ele>
                <time>2015-10-31T08:39:29Z</time>
            </trkpt>
            <trkpt lon="100.874181" lat="12.757082">
                <ele>21.770000</ele>
                <time>2015-10-31T08:39:30Z</time>
            </trkpt>
            <trkpt lon="100.874060" lat="12.757082">
                <ele>23.690000</ele>
                <time>2015-10-31T08:39:44Z</time>
            </trkpt>
            <trkpt lon="100.874005" lat="12.757099">
                <ele>23.690000</ele>
                <time>2015-10-31T08:39:50Z</time>
            </trkpt>
            <trkpt lon="100.873912" lat="12.757103">
                <ele>24.650000</ele>
                <time>2015-10-31T08:40:08Z</time>
            </trkpt>
            <trkpt lon="100.873884" lat="12.757050">
                <ele>25.130000</ele>
                <time>2015-10-31T08:40:16Z</time>
            </trkpt>
            <trkpt lon="100.873780" lat="12.757029">
                <ele>25.130000</ele>
                <time>2015-10-31T08:40:27Z</time>
            </trkpt>
            <trkpt lon="100.873703" lat="12.757021">
                <ele>26.090000</ele>
                <time>2015-10-31T08:40:41Z</time>
            </trkpt>
            <trkpt lon="100.873691" lat="12.757043">
                <ele>25.610000</ele>
                <time>2015-10-31T08:40:44Z</time>
            </trkpt>
            <trkpt lon="100.873675" lat="12.757102">
                <ele>26.570000</ele>
                <time>2015-10-31T08:40:58Z</time>
            </trkpt>
            <trkpt lon="100.873705" lat="12.757242">
                <ele>26.090000</ele>
                <time>2015-10-31T08:41:14Z</time>
            </trkpt>
            <trkpt lon="100.873801" lat="12.757635">
                <ele>23.690000</ele>
                <time>2015-10-31T08:41:25Z</time>
            </trkpt>
            <trkpt lon="100.873773" lat="12.758097">
                <ele>22.730000</ele>
                <time>2015-10-31T08:41:37Z</time>
            </trkpt>
            <trkpt lon="100.873771" lat="12.758248">
                <ele>21.770000</ele>
                <time>2015-10-31T08:41:49Z</time>
            </trkpt>
            <trkpt lon="100.873771" lat="12.758248">
                <ele>18.880000</ele>
                <time>2015-10-31T08:42:02Z</time>
            </trkpt>
            <trkpt lon="100.873771" lat="12.758248">
                <ele>22.250000</ele>
                <time>2015-10-31T08:42:03Z</time>
            </trkpt>
            <trkpt lon="100.873773" lat="12.758248">
                <ele>21.770000</ele>
                <time>2015-10-31T08:42:27Z</time>
            </trkpt>
            <trkpt lon="100.873773" lat="12.758248">
                <ele>22.250000</ele>
                <time>2015-10-31T08:42:53Z</time>
            </trkpt>
            <trkpt lon="100.873745" lat="12.758269">
                <ele>22.730000</ele>
                <time>2015-10-31T08:43:17Z</time>
            </trkpt>
            <trkpt lon="100.873642" lat="12.758271">
                <ele>24.170000</ele>
                <time>2015-10-31T08:43:31Z</time>
            </trkpt>
            <trkpt lon="100.873622" lat="12.758266">
                <ele>24.170000</ele>
                <time>2015-10-31T08:43:33Z</time>
            </trkpt>
            <trkpt lon="100.873480" lat="12.758133">
                <ele>26.090000</ele>
                <time>2015-10-31T08:43:51Z</time>
            </trkpt>
            <trkpt lon="100.873429" lat="12.758077">
                <ele>26.570000</ele>
                <time>2015-10-31T08:43:58Z</time>
            </trkpt>
            <trkpt lon="100.873436" lat="12.757987">
                <ele>27.530000</ele>
                <time>2015-10-31T08:44:06Z</time>
            </trkpt>
            <trkpt lon="100.873371" lat="12.757950">
                <ele>28.020000</ele>
                <time>2015-10-31T08:44:21Z</time>
            </trkpt>
            <trkpt lon="100.873371" lat="12.757953">
                <ele>27.530000</ele>
                <time>2015-10-31T08:44:35Z</time>
            </trkpt>
            <trkpt lon="100.873223" lat="12.757965">
                <ele>26.570000</ele>
                <time>2015-10-31T08:44:42Z</time>
            </trkpt>
            <trkpt lon="100.873230" lat="12.758193">
                <ele>25.130000</ele>
                <time>2015-10-31T08:44:52Z</time>
            </trkpt>
            <trkpt lon="100.873280" lat="12.758286">
                <ele>25.130000</ele>
                <time>2015-10-31T08:44:56Z</time>
            </trkpt>
            <trkpt lon="100.873063" lat="12.758404">
                <ele>25.610000</ele>
                <time>2015-10-31T08:45:06Z</time>
            </trkpt>
            <trkpt lon="100.872825" lat="12.758423">
                <ele>27.530000</ele>
                <time>2015-10-31T08:45:23Z</time>
            </trkpt>
            <trkpt lon="100.872707" lat="12.758451">
                <ele>29.460000</ele>
                <time>2015-10-31T08:45:36Z</time>
            </trkpt>
            <trkpt lon="100.872611" lat="12.758508">
                <ele>31.860000</ele>
                <time>2015-10-31T08:45:51Z</time>
            </trkpt>
            <trkpt lon="100.872562" lat="12.758545">
                <ele>32.820000</ele>
                <time>2015-10-31T08:46:08Z</time>
            </trkpt>
            <trkpt lon="100.872542" lat="12.758620">
                <ele>31.860000</ele>
                <time>2015-10-31T08:46:24Z</time>
            </trkpt>
            <trkpt lon="100.872569" lat="12.758662">
                <ele>29.940000</ele>
                <time>2015-10-31T08:46:44Z</time>
            </trkpt>
            <trkpt lon="100.872591" lat="12.758691">
                <ele>29.460000</ele>
                <time>2015-10-31T08:46:48Z</time>
            </trkpt>
            <trkpt lon="100.872623" lat="12.758725">
                <ele>28.020000</ele>
                <time>2015-10-31T08:46:51Z</time>
            </trkpt>
            <trkpt lon="100.872620" lat="12.758780">
                <ele>28.020000</ele>
                <time>2015-10-31T08:46:54Z</time>
            </trkpt>
            <trkpt lon="100.872564" lat="12.758885">
                <ele>27.050000</ele>
                <time>2015-10-31T08:47:08Z</time>
            </trkpt>
            <trkpt lon="100.872520" lat="12.758914">
                <ele>28.500000</ele>
                <time>2015-10-31T08:47:27Z</time>
            </trkpt>
            <trkpt lon="100.872521" lat="12.758921">
                <ele>28.500000</ele>
                <time>2015-10-31T08:47:50Z</time>
            </trkpt>
            <trkpt lon="100.872520" lat="12.758926">
                <ele>28.500000</ele>
                <time>2015-10-31T08:48:08Z</time>
            </trkpt>
            <trkpt lon="100.872520" lat="12.758938">
                <ele>28.500000</ele>
                <time>2015-10-31T08:48:26Z</time>
            </trkpt>
            <trkpt lon="100.872527" lat="12.759068">
                <ele>26.090000</ele>
                <time>2015-10-31T08:48:33Z</time>
            </trkpt>
            <trkpt lon="100.872600" lat="12.759022">
                <ele>23.690000</ele>
                <time>2015-10-31T08:48:40Z</time>
            </trkpt>
            <trkpt lon="100.872632" lat="12.759019">
                <ele>23.210000</ele>
                <time>2015-10-31T08:48:42Z</time>
            </trkpt>
            <trkpt lon="100.872689" lat="12.758914">
                <ele>25.130000</ele>
                <time>2015-10-31T08:48:55Z</time>
            </trkpt>
            <trkpt lon="100.872699" lat="12.758909">
                <ele>25.130000</ele>
                <time>2015-10-31T08:48:57Z</time>
            </trkpt>
            <trkpt lon="100.872735" lat="12.758853">
                <ele>25.610000</ele>
                <time>2015-10-31T08:49:09Z</time>
            </trkpt>
            <trkpt lon="100.872728" lat="12.758818">
                <ele>25.610000</ele>
                <time>2015-10-31T08:49:33Z</time>
            </trkpt>
            <trkpt lon="100.872773" lat="12.758791">
                <ele>23.210000</ele>
                <time>2015-10-31T08:49:53Z</time>
            </trkpt>
            <trkpt lon="100.872817" lat="12.758827">
                <ele>22.730000</ele>
                <time>2015-10-31T08:50:01Z</time>
            </trkpt>
            <trkpt lon="100.872799" lat="12.758884">
                <ele>22.730000</ele>
                <time>2015-10-31T08:50:14Z</time>
            </trkpt>
            <trkpt lon="100.872797" lat="12.758937">
                <ele>20.810000</ele>
                <time>2015-10-31T08:50:20Z</time>
            </trkpt>
            <trkpt lon="100.872828" lat="12.758946">
                <ele>20.320000</ele>
                <time>2015-10-31T08:50:23Z</time>
            </trkpt>
            <trkpt lon="100.872947" lat="12.758985">
                <ele>17.920000</ele>
                <time>2015-10-31T08:50:29Z</time>
            </trkpt>
            <trkpt lon="100.873166" lat="12.759105">
                <ele>16.000000</ele>
                <time>2015-10-31T08:50:38Z</time>
            </trkpt>
            <trkpt lon="100.873168" lat="12.759130">
                <ele>15.520000</ele>
                <time>2015-10-31T08:50:39Z</time>
            </trkpt>
            <trkpt lon="100.873232" lat="12.759376">
                <ele>16.000000</ele>
                <time>2015-10-31T08:50:51Z</time>
            </trkpt>
            <trkpt lon="100.873217" lat="12.759446">
                <ele>16.000000</ele>
                <time>2015-10-31T08:51:04Z</time>
            </trkpt>
            <trkpt lon="100.873198" lat="12.759465">
                <ele>16.480000</ele>
                <time>2015-10-31T08:51:24Z</time>
            </trkpt>
            <trkpt lon="100.873136" lat="12.759505">
                <ele>16.960000</ele>
                <time>2015-10-31T08:51:32Z</time>
            </trkpt>
            <trkpt lon="100.873064" lat="12.759605">
                <ele>17.440000</ele>
                <time>2015-10-31T08:51:43Z</time>
            </trkpt>
            <trkpt lon="100.873065" lat="12.759613">
                <ele>17.440000</ele>
                <time>2015-10-31T08:51:44Z</time>
            </trkpt>
            <trkpt lon="100.873084" lat="12.759672">
                <ele>17.920000</ele>
                <time>2015-10-31T08:51:48Z</time>
            </trkpt>
            <trkpt lon="100.873109" lat="12.759705">
                <ele>17.440000</ele>
                <time>2015-10-31T08:51:50Z</time>
            </trkpt>
            <trkpt lon="100.873152" lat="12.759863">
                <ele>16.960000</ele>
                <time>2015-10-31T08:51:56Z</time>
            </trkpt>
            <trkpt lon="100.873194" lat="12.759934">
                <ele>16.960000</ele>
                <time>2015-10-31T08:52:00Z</time>
            </trkpt>
            <trkpt lon="100.873224" lat="12.759953">
                <ele>16.480000</ele>
                <time>2015-10-31T08:52:02Z</time>
            </trkpt>
            <trkpt lon="100.873271" lat="12.759942">
                <ele>16.480000</ele>
                <time>2015-10-31T08:52:05Z</time>
            </trkpt>
            <trkpt lon="100.873414" lat="12.760181">
                <ele>16.000000</ele>
                <time>2015-10-31T08:52:16Z</time>
            </trkpt>
            <trkpt lon="100.873409" lat="12.760242">
                <ele>17.440000</ele>
                <time>2015-10-31T08:52:20Z</time>
            </trkpt>
            <trkpt lon="100.873432" lat="12.760257">
                <ele>16.960000</ele>
                <time>2015-10-31T08:52:22Z</time>
            </trkpt>
            <trkpt lon="100.873575" lat="12.760265">
                <ele>18.400000</ele>
                <time>2015-10-31T08:52:33Z</time>
            </trkpt>
            <trkpt lon="100.873585" lat="12.760263">
                <ele>18.400000</ele>
                <time>2015-10-31T08:52:36Z</time>
            </trkpt>
            <trkpt lon="100.873735" lat="12.760326">
                <ele>17.440000</ele>
                <time>2015-10-31T08:52:44Z</time>
            </trkpt>
            <trkpt lon="100.873787" lat="12.760400">
                <ele>17.440000</ele>
                <time>2015-10-31T08:52:48Z</time>
            </trkpt>
            <trkpt lon="100.873737" lat="12.760646">
                <ele>18.400000</ele>
                <time>2015-10-31T08:52:59Z</time>
            </trkpt>
            <trkpt lon="100.873706" lat="12.760713">
                <ele>18.880000</ele>
                <time>2015-10-31T08:53:11Z</time>
            </trkpt>
            <trkpt lon="100.873706" lat="12.760814">
                <ele>18.880000</ele>
                <time>2015-10-31T08:53:25Z</time>
            </trkpt>
            <trkpt lon="100.873700" lat="12.760836">
                <ele>19.360000</ele>
                <time>2015-10-31T08:53:36Z</time>
            </trkpt>
            <trkpt lon="100.873716" lat="12.760888">
                <ele>19.840000</ele>
                <time>2015-10-31T08:53:40Z</time>
            </trkpt>
            <trkpt lon="100.873558" lat="12.761004">
                <ele>21.770000</ele>
                <time>2015-10-31T08:53:55Z</time>
            </trkpt>
            <trkpt lon="100.873523" lat="12.761041">
                <ele>21.770000</ele>
                <time>2015-10-31T08:53:59Z</time>
            </trkpt>
            <trkpt lon="100.873419" lat="12.761123">
                <ele>23.690000</ele>
                <time>2015-10-31T08:54:15Z</time>
            </trkpt>
            <trkpt lon="100.873391" lat="12.761150">
                <ele>23.690000</ele>
                <time>2015-10-31T08:54:37Z</time>
            </trkpt>
            <trkpt lon="100.873303" lat="12.761247">
                <ele>26.090000</ele>
                <time>2015-10-31T08:54:52Z</time>
            </trkpt>
            <trkpt lon="100.873284" lat="12.761293">
                <ele>26.570000</ele>
                <time>2015-10-31T08:54:56Z</time>
            </trkpt>
            <trkpt lon="100.873166" lat="12.761375">
                <ele>27.050000</ele>
                <time>2015-10-31T08:55:10Z</time>
            </trkpt>
            <trkpt lon="100.873152" lat="12.761381">
                <ele>27.530000</ele>
                <time>2015-10-31T08:55:30Z</time>
            </trkpt>
            <trkpt lon="100.873153" lat="12.761379">
                <ele>27.530000</ele>
                <time>2015-10-31T08:55:51Z</time>
            </trkpt>
            <trkpt lon="100.873013" lat="12.761614">
                <ele>27.530000</ele>
                <time>2015-10-31T08:56:03Z</time>
            </trkpt>
            <trkpt lon="100.872994" lat="12.761656">
                <ele>28.020000</ele>
                <time>2015-10-31T08:56:05Z</time>
            </trkpt>
            <trkpt lon="100.872913" lat="12.761697">
                <ele>28.500000</ele>
                <time>2015-10-31T08:56:10Z</time>
            </trkpt>
            <trkpt lon="100.872781" lat="12.761662">
                <ele>28.980000</ele>
                <time>2015-10-31T08:56:18Z</time>
            </trkpt>
            <trkpt lon="100.872719" lat="12.761636">
                <ele>29.940000</ele>
                <time>2015-10-31T08:56:23Z</time>
            </trkpt>
            <trkpt lon="100.872609" lat="12.761628">
                <ele>31.380000</ele>
                <time>2015-10-31T08:56:37Z</time>
            </trkpt>
            <trkpt lon="100.872597" lat="12.761632">
                <ele>31.380000</ele>
                <time>2015-10-31T08:56:38Z</time>
            </trkpt>
            <trkpt lon="100.872480" lat="12.761765">
                <ele>31.380000</ele>
                <time>2015-10-31T08:56:50Z</time>
            </trkpt>
            <trkpt lon="100.872375" lat="12.761759">
                <ele>32.820000</ele>
                <time>2015-10-31T08:57:03Z</time>
            </trkpt>
            <trkpt lon="100.872272" lat="12.761711">
                <ele>34.740000</ele>
                <time>2015-10-31T08:57:17Z</time>
            </trkpt>
            <trkpt lon="100.872249" lat="12.761684">
                <ele>34.740000</ele>
                <time>2015-10-31T08:57:35Z</time>
            </trkpt>
            <trkpt lon="100.872210" lat="12.761664">
                <ele>35.230000</ele>
                <time>2015-10-31T08:57:55Z</time>
            </trkpt>
            <trkpt lon="100.872072" lat="12.761650">
                <ele>36.670000</ele>
                <time>2015-10-31T08:58:09Z</time>
            </trkpt>
            <trkpt lon="100.871995" lat="12.761617">
                <ele>37.150000</ele>
                <time>2015-10-31T08:58:22Z</time>
            </trkpt>
            <trkpt lon="100.871974" lat="12.761622">
                <ele>37.150000</ele>
                <time>2015-10-31T08:58:45Z</time>
            </trkpt>
            <trkpt lon="100.871879" lat="12.761557">
                <ele>38.110000</ele>
                <time>2015-10-31T08:58:58Z</time>
            </trkpt>
            <trkpt lon="100.871778" lat="12.761544">
                <ele>39.070000</ele>
                <time>2015-10-31T08:59:09Z</time>
            </trkpt>
            <trkpt lon="100.871740" lat="12.761586">
                <ele>39.070000</ele>
                <time>2015-10-31T08:59:14Z</time>
            </trkpt>
            <trkpt lon="100.871679" lat="12.761690">
                <ele>40.510000</ele>
                <time>2015-10-31T08:59:30Z</time>
            </trkpt>
            <trkpt lon="100.871624" lat="12.761801">
                <ele>41.470000</ele>
                <time>2015-10-31T08:59:44Z</time>
            </trkpt>
            <trkpt lon="100.871561" lat="12.761902">
                <ele>41.950000</ele>
                <time>2015-10-31T08:59:57Z</time>
            </trkpt>
            <trkpt lon="100.871545" lat="12.761969">
                <ele>41.950000</ele>
                <time>2015-10-31T09:00:11Z</time>
            </trkpt>
            <trkpt lon="100.871404" lat="12.762060">
                <ele>43.400000</ele>
                <time>2015-10-31T09:00:23Z</time>
            </trkpt>
            <trkpt lon="100.871321" lat="12.762088">
                <ele>44.840000</ele>
                <time>2015-10-31T09:00:36Z</time>
            </trkpt>
            <trkpt lon="100.871202" lat="12.762110">
                <ele>46.760000</ele>
                <time>2015-10-31T09:00:50Z</time>
            </trkpt>
            <trkpt lon="100.871169" lat="12.762144">
                <ele>45.800000</ele>
                <time>2015-10-31T09:01:08Z</time>
            </trkpt>
            <trkpt lon="100.871159" lat="12.762246">
                <ele>44.360000</ele>
                <time>2015-10-31T09:01:13Z</time>
            </trkpt>
            <trkpt lon="100.871255" lat="12.762371">
                <ele>41.950000</ele>
                <time>2015-10-31T09:01:23Z</time>
            </trkpt>
            <trkpt lon="100.871259" lat="12.762398">
                <ele>41.470000</ele>
                <time>2015-10-31T09:01:25Z</time>
            </trkpt>
            <trkpt lon="100.871326" lat="12.762427">
                <ele>39.550000</ele>
                <time>2015-10-31T09:01:29Z</time>
            </trkpt>
            <trkpt lon="100.871441" lat="12.762457">
                <ele>37.630000</ele>
                <time>2015-10-31T09:01:33Z</time>
            </trkpt>
            <trkpt lon="100.871690" lat="12.762559">
                <ele>34.260000</ele>
                <time>2015-10-31T09:01:40Z</time>
            </trkpt>
            <trkpt lon="100.871836" lat="12.762713">
                <ele>31.860000</ele>
                <time>2015-10-31T09:01:50Z</time>
            </trkpt>
            <trkpt lon="100.871737" lat="12.762868">
                <ele>30.420000</ele>
                <time>2015-10-31T09:02:00Z</time>
            </trkpt>
            <trkpt lon="100.871619" lat="12.762963">
                <ele>29.460000</ele>
                <time>2015-10-31T09:02:10Z</time>
            </trkpt>
            <trkpt lon="100.871660" lat="12.762999">
                <ele>29.460000</ele>
                <time>2015-10-31T09:02:22Z</time>
            </trkpt>
            <trkpt lon="100.871724" lat="12.762980">
                <ele>28.020000</ele>
                <time>2015-10-31T09:02:37Z</time>
            </trkpt>
            <trkpt lon="100.871727" lat="12.762978">
                <ele>28.020000</ele>
                <time>2015-10-31T09:02:53Z</time>
            </trkpt>
            <trkpt lon="100.871727" lat="12.762978">
                <ele>28.020000</ele>
                <time>2015-10-31T09:03:22Z</time>
            </trkpt>
            <trkpt lon="100.871814" lat="12.762980">
                <ele>27.530000</ele>
                <time>2015-10-31T09:03:38Z</time>
            </trkpt>
            <trkpt lon="100.871840" lat="12.762990">
                <ele>27.050000</ele>
                <time>2015-10-31T09:03:40Z</time>
            </trkpt>
            <trkpt lon="100.872055" lat="12.763056">
                <ele>27.050000</ele>
                <time>2015-10-31T09:03:53Z</time>
            </trkpt>
            <trkpt lon="100.872092" lat="12.763144">
                <ele>28.020000</ele>
                <time>2015-10-31T09:04:06Z</time>
            </trkpt>
            <trkpt lon="100.872129" lat="12.763205">
                <ele>27.530000</ele>
                <time>2015-10-31T09:04:15Z</time>
            </trkpt>
            <trkpt lon="100.872179" lat="12.763207">
                <ele>20.320000</ele>
                <time>2015-10-31T09:04:24Z</time>
            </trkpt>
            <trkpt lon="100.872183" lat="12.763207">
                <ele>26.570000</ele>
                <time>2015-10-31T09:04:25Z</time>
            </trkpt>
            <trkpt lon="100.872191" lat="12.763205">
                <ele>11.670000</ele>
                <time>2015-10-31T09:04:27Z</time>
            </trkpt>
            <trkpt lon="100.872197" lat="12.763205">
                <ele>24.170000</ele>
                <time>2015-10-31T09:04:28Z</time>
            </trkpt>
            <trkpt lon="100.872208" lat="12.763204">
                <ele>26.090000</ele>
                <time>2015-10-31T09:04:30Z</time>
            </trkpt>
            <trkpt lon="100.872242" lat="12.763190">
                <ele>30.900000</ele>
                <time>2015-10-31T09:04:37Z</time>
            </trkpt>
            <trkpt lon="100.872247" lat="12.763187">
                <ele>34.740000</ele>
                <time>2015-10-31T09:04:38Z</time>
            </trkpt>
            <trkpt lon="100.872251" lat="12.763184">
                <ele>26.090000</ele>
                <time>2015-10-31T09:04:39Z</time>
            </trkpt>
            <trkpt lon="100.872257" lat="12.763180">
                <ele>23.690000</ele>
                <time>2015-10-31T09:04:40Z</time>
            </trkpt>
            <trkpt lon="100.872260" lat="12.763178">
                <ele>26.090000</ele>
                <time>2015-10-31T09:04:41Z</time>
            </trkpt>
            <trkpt lon="100.872284" lat="12.763161">
                <ele>25.130000</ele>
                <time>2015-10-31T09:04:46Z</time>
            </trkpt>
            <trkpt lon="100.872299" lat="12.763150">
                <ele>38.110000</ele>
                <time>2015-10-31T09:04:49Z</time>
            </trkpt>
            <trkpt lon="100.872301" lat="12.763149">
                <ele>31.380000</ele>
                <time>2015-10-31T09:04:50Z</time>
            </trkpt>
            <trkpt lon="100.872305" lat="12.763146">
                <ele>30.420000</ele>
                <time>2015-10-31T09:04:51Z</time>
            </trkpt>
            <trkpt lon="100.872213" lat="12.763232">
                <ele>24.170000</ele>
                <time>2015-10-31T09:04:58Z</time>
            </trkpt>
            <trkpt lon="100.872213" lat="12.763232">
                <ele>25.130000</ele>
                <time>2015-10-31T09:04:59Z</time>
            </trkpt>
            <trkpt lon="100.872213" lat="12.763232">
                <ele>28.020000</ele>
                <time>2015-10-31T09:05:02Z</time>
            </trkpt>
            <trkpt lon="100.872225" lat="12.763245">
                <ele>27.530000</ele>
                <time>2015-10-31T09:05:09Z</time>
            </trkpt>
            <trkpt lon="100.872323" lat="12.763407">
                <ele>27.530000</ele>
                <time>2015-10-31T09:05:21Z</time>
            </trkpt>
            <trkpt lon="100.872330" lat="12.763410">
                <ele>27.530000</ele>
                <time>2015-10-31T09:05:22Z</time>
            </trkpt>
            <trkpt lon="100.872487" lat="12.763513">
                <ele>25.610000</ele>
                <time>2015-10-31T09:05:32Z</time>
            </trkpt>
            <trkpt lon="100.872792" lat="12.763701">
                <ele>25.130000</ele>
                <time>2015-10-31T09:05:45Z</time>
            </trkpt>
            <trkpt lon="100.872808" lat="12.763775">
                <ele>25.610000</ele>
                <time>2015-10-31T09:05:52Z</time>
            </trkpt>
            <trkpt lon="100.872800" lat="12.763920">
                <ele>27.050000</ele>
                <time>2015-10-31T09:06:04Z</time>
            </trkpt>
            <trkpt lon="100.872860" lat="12.764004">
                <ele>27.050000</ele>
                <time>2015-10-31T09:06:15Z</time>
            </trkpt>
            <trkpt lon="100.873118" lat="12.764072">
                <ele>24.650000</ele>
                <time>2015-10-31T09:06:26Z</time>
            </trkpt>
            <trkpt lon="100.873218" lat="12.764117">
                <ele>24.650000</ele>
                <time>2015-10-31T09:06:30Z</time>
            </trkpt>
            <trkpt lon="100.873297" lat="12.764206">
                <ele>24.170000</ele>
                <time>2015-10-31T09:06:34Z</time>
            </trkpt>
            <trkpt lon="100.873415" lat="12.764349">
                <ele>24.170000</ele>
                <time>2015-10-31T09:06:46Z</time>
            </trkpt>
            <trkpt lon="100.873447" lat="12.764403">
                <ele>25.130000</ele>
                <time>2015-10-31T09:07:02Z</time>
            </trkpt>
            <trkpt lon="100.873442" lat="12.764412">
                <ele>24.650000</ele>
                <time>2015-10-31T09:07:21Z</time>
            </trkpt>
            <trkpt lon="100.873607" lat="12.764556">
                <ele>23.690000</ele>
                <time>2015-10-31T09:07:31Z</time>
            </trkpt>
            <trkpt lon="100.873684" lat="12.764750">
                <ele>22.730000</ele>
                <time>2015-10-31T09:07:41Z</time>
            </trkpt>
            <trkpt lon="100.873670" lat="12.764769">
                <ele>23.210000</ele>
                <time>2015-10-31T09:07:43Z</time>
            </trkpt>
            <trkpt lon="100.873667" lat="12.764848">
                <ele>22.730000</ele>
                <time>2015-10-31T09:07:46Z</time>
            </trkpt>
            <trkpt lon="100.873605" lat="12.764886">
                <ele>23.690000</ele>
                <time>2015-10-31T09:07:50Z</time>
            </trkpt>
            <trkpt lon="100.873518" lat="12.764908">
                <ele>23.690000</ele>
                <time>2015-10-31T09:07:54Z</time>
            </trkpt>
            <trkpt lon="100.873415" lat="12.765083">
                <ele>23.690000</ele>
                <time>2015-10-31T09:08:06Z</time>
            </trkpt>
            <trkpt lon="100.873360" lat="12.765182">
                <ele>23.690000</ele>
                <time>2015-10-31T09:08:20Z</time>
            </trkpt>
            <trkpt lon="100.873333" lat="12.765202">
                <ele>23.210000</ele>
                <time>2015-10-31T09:08:30Z</time>
            </trkpt>
            <trkpt lon="100.873272" lat="12.765249">
                <ele>23.210000</ele>
                <time>2015-10-31T09:08:35Z</time>
            </trkpt>
            <trkpt lon="100.873160" lat="12.765345">
                <ele>23.210000</ele>
                <time>2015-10-31T09:08:42Z</time>
            </trkpt>
            <trkpt lon="100.873112" lat="12.765366">
                <ele>23.690000</ele>
                <time>2015-10-31T09:08:44Z</time>
            </trkpt>
            <trkpt lon="100.873005" lat="12.765456">
                <ele>24.170000</ele>
                <time>2015-10-31T09:08:53Z</time>
            </trkpt>
            <trkpt lon="100.872986" lat="12.765490">
                <ele>23.210000</ele>
                <time>2015-10-31T09:09:10Z</time>
            </trkpt>
            <trkpt lon="100.872986" lat="12.765490">
                <ele>23.690000</ele>
                <time>2015-10-31T09:09:37Z</time>
            </trkpt>
            <trkpt lon="100.872983" lat="12.765490">
                <ele>24.170000</ele>
                <time>2015-10-31T09:09:56Z</time>
            </trkpt>
            <trkpt lon="100.872951" lat="12.765512">
                <ele>23.690000</ele>
                <time>2015-10-31T09:10:12Z</time>
            </trkpt>
            <trkpt lon="100.872782" lat="12.765623">
                <ele>24.170000</ele>
                <time>2015-10-31T09:10:23Z</time>
            </trkpt>
            <trkpt lon="100.872742" lat="12.765636">
                <ele>24.650000</ele>
                <time>2015-10-31T09:10:26Z</time>
            </trkpt>
            <trkpt lon="100.872708" lat="12.765674">
                <ele>24.170000</ele>
                <time>2015-10-31T09:10:29Z</time>
            </trkpt>
            <trkpt lon="100.872572" lat="12.765846">
                <ele>24.650000</ele>
                <time>2015-10-31T09:10:39Z</time>
            </trkpt>
            <trkpt lon="100.872560" lat="12.765919">
                <ele>24.170000</ele>
                <time>2015-10-31T09:10:44Z</time>
            </trkpt>
            <trkpt lon="100.872507" lat="12.765960">
                <ele>23.690000</ele>
                <time>2015-10-31T09:10:48Z</time>
            </trkpt>
            <trkpt lon="100.872438" lat="12.766022">
                <ele>23.690000</ele>
                <time>2015-10-31T09:10:53Z</time>
            </trkpt>
            <trkpt lon="100.872353" lat="12.766048">
                <ele>21.290000</ele>
                <time>2015-10-31T09:10:57Z</time>
            </trkpt>
            <trkpt lon="100.872209" lat="12.766203">
                <ele>22.250000</ele>
                <time>2015-10-31T09:11:07Z</time>
            </trkpt>
            <trkpt lon="100.872109" lat="12.766151">
                <ele>23.690000</ele>
                <time>2015-10-31T09:11:22Z</time>
            </trkpt>
            <trkpt lon="100.872152" lat="12.766076">
                <ele>24.170000</ele>
                <time>2015-10-31T09:11:34Z</time>
            </trkpt>
            <trkpt lon="100.872157" lat="12.766075">
                <ele>23.690000</ele>
                <time>2015-10-31T09:11:36Z</time>
            </trkpt>
            <trkpt lon="100.872214" lat="12.766060">
                <ele>24.650000</ele>
                <time>2015-10-31T09:11:40Z</time>
            </trkpt>
            <trkpt lon="100.872239" lat="12.766019">
                <ele>23.210000</ele>
                <time>2015-10-31T09:11:42Z</time>
            </trkpt>
            <trkpt lon="100.872251" lat="12.765966">
                <ele>22.730000</ele>
                <time>2015-10-31T09:11:45Z</time>
            </trkpt>
            <trkpt lon="100.872216" lat="12.765865">
                <ele>24.650000</ele>
                <time>2015-10-31T09:11:57Z</time>
            </trkpt>
            <trkpt lon="100.872129" lat="12.765832">
                <ele>26.090000</ele>
                <time>2015-10-31T09:12:09Z</time>
            </trkpt>
            <trkpt lon="100.872094" lat="12.765870">
                <ele>25.610000</ele>
                <time>2015-10-31T09:12:21Z</time>
            </trkpt>
            <trkpt lon="100.872102" lat="12.765863">
                <ele>25.610000</ele>
                <time>2015-10-31T09:12:23Z</time>
            </trkpt>
            <trkpt lon="100.872109" lat="12.765837">
                <ele>25.130000</ele>
                <time>2015-10-31T09:12:35Z</time>
            </trkpt>
            <trkpt lon="100.872109" lat="12.765837">
                <ele>24.650000</ele>
                <time>2015-10-31T09:12:59Z</time>
            </trkpt>
            <trkpt lon="100.872111" lat="12.765833">
                <ele>24.650000</ele>
                <time>2015-10-31T09:13:27Z</time>
            </trkpt>
            <trkpt lon="100.872112" lat="12.765835">
                <ele>24.650000</ele>
                <time>2015-10-31T09:14:01Z</time>
            </trkpt>
            <trkpt lon="100.872106" lat="12.765840">
                <ele>25.610000</ele>
                <time>2015-10-31T09:14:35Z</time>
            </trkpt>
            <trkpt lon="100.872106" lat="12.765840">
                <ele>25.610000</ele>
                <time>2015-10-31T09:14:58Z</time>
            </trkpt>
            <trkpt lon="100.872108" lat="12.765839">
                <ele>24.650000</ele>
                <time>2015-10-31T09:15:22Z</time>
            </trkpt>
            <trkpt lon="100.872110" lat="12.765838">
                <ele>24.650000</ele>
                <time>2015-10-31T09:15:56Z</time>
            </trkpt>
            <trkpt lon="100.872110" lat="12.765838">
                <ele>25.130000</ele>
                <time>2015-10-31T09:16:28Z</time>
            </trkpt>
            <trkpt lon="100.872112" lat="12.765835">
                <ele>24.650000</ele>
                <time>2015-10-31T09:16:58Z</time>
            </trkpt>
            <trkpt lon="100.872108" lat="12.765859">
                <ele>25.610000</ele>
                <time>2015-10-31T09:17:12Z</time>
            </trkpt>
            <trkpt lon="100.872068" lat="12.765883">
                <ele>25.610000</ele>
                <time>2015-10-31T09:17:26Z</time>
            </trkpt>
            <trkpt lon="100.871923" lat="12.765886">
                <ele>25.610000</ele>
                <time>2015-10-31T09:17:41Z</time>
            </trkpt>
            <trkpt lon="100.871796" lat="12.765834">
                <ele>26.090000</ele>
                <time>2015-10-31T09:17:53Z</time>
            </trkpt>
            <trkpt lon="100.871776" lat="12.765685">
                <ele>27.530000</ele>
                <time>2015-10-31T09:18:08Z</time>
            </trkpt>
            <trkpt lon="100.871888" lat="12.765615">
                <ele>27.050000</ele>
                <time>2015-10-31T09:18:23Z</time>
            </trkpt>
            <trkpt lon="100.871850" lat="12.765524">
                <ele>27.530000</ele>
                <time>2015-10-31T09:18:35Z</time>
            </trkpt>
            <trkpt lon="100.871845" lat="12.765496">
                <ele>28.020000</ele>
                <time>2015-10-31T09:18:38Z</time>
            </trkpt>
            <trkpt lon="100.871864" lat="12.765342">
                <ele>28.500000</ele>
                <time>2015-10-31T09:18:53Z</time>
            </trkpt>
            <trkpt lon="100.871827" lat="12.765210">
                <ele>28.980000</ele>
                <time>2015-10-31T09:19:07Z</time>
            </trkpt>
            <trkpt lon="100.871779" lat="12.765175">
                <ele>29.940000</ele>
                <time>2015-10-31T09:19:13Z</time>
            </trkpt>
            <trkpt lon="100.871708" lat="12.765199">
                <ele>29.940000</ele>
                <time>2015-10-31T09:19:21Z</time>
            </trkpt>
            <trkpt lon="100.871653" lat="12.765132">
                <ele>30.900000</ele>
                <time>2015-10-31T09:19:32Z</time>
            </trkpt>
            <trkpt lon="100.871598" lat="12.765047">
                <ele>31.380000</ele>
                <time>2015-10-31T09:19:45Z</time>
            </trkpt>
            <trkpt lon="100.871571" lat="12.765049">
                <ele>31.380000</ele>
                <time>2015-10-31T09:19:59Z</time>
            </trkpt>
            <trkpt lon="100.871491" lat="12.765028">
                <ele>31.860000</ele>
                <time>2015-10-31T09:20:11Z</time>
            </trkpt>
            <trkpt lon="100.871429" lat="12.765025">
                <ele>32.820000</ele>
                <time>2015-10-31T09:20:26Z</time>
            </trkpt>
            <trkpt lon="100.871365" lat="12.765013">
                <ele>32.820000</ele>
                <time>2015-10-31T09:20:46Z</time>
            </trkpt>
            <trkpt lon="100.871337" lat="12.764989">
                <ele>33.300000</ele>
                <time>2015-10-31T09:20:49Z</time>
            </trkpt>
            <trkpt lon="100.871317" lat="12.764979">
                <ele>33.300000</ele>
                <time>2015-10-31T09:20:51Z</time>
            </trkpt>
            <trkpt lon="100.871245" lat="12.764933">
                <ele>34.260000</ele>
                <time>2015-10-31T09:21:01Z</time>
            </trkpt>
            <trkpt lon="100.871137" lat="12.764937">
                <ele>34.260000</ele>
                <time>2015-10-31T09:21:14Z</time>
            </trkpt>
            <trkpt lon="100.871049" lat="12.764944">
                <ele>34.260000</ele>
                <time>2015-10-31T09:21:28Z</time>
            </trkpt>
            <trkpt lon="100.870997" lat="12.764960">
                <ele>32.340000</ele>
                <time>2015-10-31T09:21:46Z</time>
            </trkpt>
            <trkpt lon="100.870983" lat="12.764967">
                <ele>31.380000</ele>
                <time>2015-10-31T09:22:01Z</time>
            </trkpt>
            <trkpt lon="100.870968" lat="12.765027">
                <ele>33.300000</ele>
                <time>2015-10-31T09:22:15Z</time>
            </trkpt>
            <trkpt lon="100.870997" lat="12.765152">
                <ele>32.820000</ele>
                <time>2015-10-31T09:22:28Z</time>
            </trkpt>
            <trkpt lon="100.871024" lat="12.765167">
                <ele>32.340000</ele>
                <time>2015-10-31T09:22:43Z</time>
            </trkpt>
            <trkpt lon="100.871079" lat="12.765177">
                <ele>30.900000</ele>
                <time>2015-10-31T09:23:00Z</time>
            </trkpt>
            <trkpt lon="100.871084" lat="12.765185">
                <ele>30.420000</ele>
                <time>2015-10-31T09:23:01Z</time>
            </trkpt>
            <trkpt lon="100.871099" lat="12.765283">
                <ele>31.380000</ele>
                <time>2015-10-31T09:23:13Z</time>
            </trkpt>
            <trkpt lon="100.871143" lat="12.765418">
                <ele>30.420000</ele>
                <time>2015-10-31T09:23:26Z</time>
            </trkpt>
            <trkpt lon="100.871221" lat="12.765539">
                <ele>29.460000</ele>
                <time>2015-10-31T09:23:39Z</time>
            </trkpt>
            <trkpt lon="100.871251" lat="12.765570">
                <ele>28.980000</ele>
                <time>2015-10-31T09:23:43Z</time>
            </trkpt>
            <trkpt lon="100.871299" lat="12.765617">
                <ele>28.500000</ele>
                <time>2015-10-31T09:23:57Z</time>
            </trkpt>
            <trkpt lon="100.871297" lat="12.765630">
                <ele>28.500000</ele>
                <time>2015-10-31T09:23:58Z</time>
            </trkpt>
            <trkpt lon="100.871288" lat="12.765724">
                <ele>28.500000</ele>
                <time>2015-10-31T09:24:07Z</time>
            </trkpt>
            <trkpt lon="100.871352" lat="12.765735">
                <ele>27.050000</ele>
                <time>2015-10-31T09:24:14Z</time>
            </trkpt>
            <trkpt lon="100.871372" lat="12.765789">
                <ele>26.570000</ele>
                <time>2015-10-31T09:24:19Z</time>
            </trkpt>
            <trkpt lon="100.871347" lat="12.765879">
                <ele>27.050000</ele>
                <time>2015-10-31T09:24:27Z</time>
            </trkpt>
            <trkpt lon="100.871422" lat="12.765981">
                <ele>26.090000</ele>
                <time>2015-10-31T09:24:41Z</time>
            </trkpt>
            <trkpt lon="100.871422" lat="12.765981">
                <ele>21.290000</ele>
                <time>2015-10-31T09:24:46Z</time>
            </trkpt>
            <trkpt lon="100.871422" lat="12.765981">
                <ele>36.670000</ele>
                <time>2015-10-31T09:24:47Z</time>
            </trkpt>
            <trkpt lon="100.871422" lat="12.765981">
                <ele>22.730000</ele>
                <time>2015-10-31T09:24:48Z</time>
            </trkpt>
            <trkpt lon="100.871422" lat="12.765981">
                <ele>17.440000</ele>
                <time>2015-10-31T09:24:49Z</time>
            </trkpt>
            <trkpt lon="100.871422" lat="12.765981">
                <ele>23.690000</ele>
                <time>2015-10-31T09:24:50Z</time>
            </trkpt>
            <trkpt lon="100.871422" lat="12.765981">
                <ele>24.650000</ele>
                <time>2015-10-31T09:24:52Z</time>
            </trkpt>
            <trkpt lon="100.871422" lat="12.765981">
                <ele>29.460000</ele>
                <time>2015-10-31T09:25:19Z</time>
            </trkpt>
            <trkpt lon="100.871422" lat="12.765981">
                <ele>18.880000</ele>
                <time>2015-10-31T09:25:20Z</time>
            </trkpt>
            <trkpt lon="100.871422" lat="12.765981">
                <ele>25.130000</ele>
                <time>2015-10-31T09:25:21Z</time>
            </trkpt>
            <trkpt lon="100.871422" lat="12.765981">
                <ele>29.460000</ele>
                <time>2015-10-31T09:25:24Z</time>
            </trkpt>
            <trkpt lon="100.871422" lat="12.765981">
                <ele>23.210000</ele>
                <time>2015-10-31T09:25:25Z</time>
            </trkpt>
            <trkpt lon="100.871422" lat="12.765981">
                <ele>23.210000</ele>
                <time>2015-10-31T09:25:26Z</time>
            </trkpt>
            <trkpt lon="100.871422" lat="12.765981">
                <ele>25.130000</ele>
                <time>2015-10-31T09:25:28Z</time>
            </trkpt>
            <trkpt lon="100.871422" lat="12.765981">
                <ele>25.610000</ele>
                <time>2015-10-31T09:25:46Z</time>
            </trkpt>
            <trkpt lon="100.871422" lat="12.765981">
                <ele>23.210000</ele>
                <time>2015-10-31T09:26:02Z</time>
            </trkpt>
            <trkpt lon="100.871422" lat="12.765981">
                <ele>25.130000</ele>
                <time>2015-10-31T09:26:07Z</time>
            </trkpt>
            <trkpt lon="100.871422" lat="12.765981">
                <ele>22.250000</ele>
                <time>2015-10-31T09:26:10Z</time>
            </trkpt>
            <trkpt lon="100.871422" lat="12.765981">
                <ele>24.650000</ele>
                <time>2015-10-31T09:26:12Z</time>
            </trkpt>
            <trkpt lon="100.871422" lat="12.765981">
                <ele>28.500000</ele>
                <time>2015-10-31T09:26:20Z</time>
            </trkpt>
            <trkpt lon="100.871422" lat="12.765981">
                <ele>21.290000</ele>
                <time>2015-10-31T09:26:21Z</time>
            </trkpt>
            <trkpt lon="100.871426" lat="12.765994">
                <ele>24.650000</ele>
                <time>2015-10-31T09:26:24Z</time>
            </trkpt>
            <trkpt lon="100.871426" lat="12.765996">
                <ele>24.170000</ele>
                <time>2015-10-31T09:26:47Z</time>
            </trkpt>
            <trkpt lon="100.871426" lat="12.765996">
                <ele>24.650000</ele>
                <time>2015-10-31T09:27:16Z</time>
            </trkpt>
            <trkpt lon="100.871426" lat="12.765996">
                <ele>24.650000</ele>
                <time>2015-10-31T09:27:42Z</time>
            </trkpt>
            <trkpt lon="100.871426" lat="12.765996">
                <ele>34.260000</ele>
                <time>2015-10-31T09:27:43Z</time>
            </trkpt>
            <trkpt lon="100.871404" lat="12.765984">
                <ele>28.020000</ele>
                <time>2015-10-31T09:27:44Z</time>
            </trkpt>
            <trkpt lon="100.871426" lat="12.765982">
                <ele>26.090000</ele>
                <time>2015-10-31T09:27:53Z</time>
            </trkpt>
            <trkpt lon="100.871438" lat="12.766007">
                <ele>25.130000</ele>
                <time>2015-10-31T09:27:56Z</time>
            </trkpt>
            <trkpt lon="100.871410" lat="12.766056">
                <ele>25.130000</ele>
                <time>2015-10-31T09:28:00Z</time>
            </trkpt>
            <trkpt lon="100.871459" lat="12.766093">
                <ele>24.170000</ele>
                <time>2015-10-31T09:28:04Z</time>
            </trkpt>
            <trkpt lon="100.871498" lat="12.766178">
                <ele>23.690000</ele>
                <time>2015-10-31T09:28:09Z</time>
            </trkpt>
            <trkpt lon="100.871606" lat="12.766289">
                <ele>20.810000</ele>
                <time>2015-10-31T09:28:15Z</time>
            </trkpt>
            <trkpt lon="100.871570" lat="12.766446">
                <ele>22.250000</ele>
                <time>2015-10-31T09:28:23Z</time>
            </trkpt>
            <trkpt lon="100.871567" lat="12.766525">
                <ele>22.730000</ele>
                <time>2015-10-31T09:28:28Z</time>
            </trkpt>
            <trkpt lon="100.871613" lat="12.766572">
                <ele>21.290000</ele>
                <time>2015-10-31T09:28:31Z</time>
            </trkpt>
            <trkpt lon="100.871646" lat="12.766610">
                <ele>20.810000</ele>
                <time>2015-10-31T09:28:33Z</time>
            </trkpt>
            <trkpt lon="100.871597" lat="12.766721">
                <ele>19.840000</ele>
                <time>2015-10-31T09:28:37Z</time>
            </trkpt>
            <trkpt lon="100.871527" lat="12.766762">
                <ele>20.810000</ele>
                <time>2015-10-31T09:28:40Z</time>
            </trkpt>
            <trkpt lon="100.871455" lat="12.766750">
                <ele>21.290000</ele>
                <time>2015-10-31T09:28:44Z</time>
            </trkpt>
            <trkpt lon="100.871384" lat="12.766740">
                <ele>22.250000</ele>
                <time>2015-10-31T09:28:48Z</time>
            </trkpt>
            <trkpt lon="100.871318" lat="12.766784">
                <ele>22.250000</ele>
                <time>2015-10-31T09:28:52Z</time>
            </trkpt>
            <trkpt lon="100.871287" lat="12.766818">
                <ele>22.730000</ele>
                <time>2015-10-31T09:28:55Z</time>
            </trkpt>
            <trkpt lon="100.871166" lat="12.767022">
                <ele>21.770000</ele>
                <time>2015-10-31T09:29:03Z</time>
            </trkpt>
            <trkpt lon="100.871165" lat="12.767074">
                <ele>21.290000</ele>
                <time>2015-10-31T09:29:05Z</time>
            </trkpt>
            <trkpt lon="100.870984" lat="12.767202">
                <ele>22.250000</ele>
                <time>2015-10-31T09:29:16Z</time>
            </trkpt>
            <trkpt lon="100.870941" lat="12.767194">
                <ele>22.730000</ele>
                <time>2015-10-31T09:29:18Z</time>
            </trkpt>
            <trkpt lon="100.870882" lat="12.767223">
                <ele>22.730000</ele>
                <time>2015-10-31T09:29:21Z</time>
            </trkpt>
            <trkpt lon="100.870847" lat="12.767254">
                <ele>22.730000</ele>
                <time>2015-10-31T09:29:23Z</time>
            </trkpt>
            <trkpt lon="100.870795" lat="12.767350">
                <ele>22.730000</ele>
                <time>2015-10-31T09:29:29Z</time>
            </trkpt>
            <trkpt lon="100.870724" lat="12.767382">
                <ele>23.690000</ele>
                <time>2015-10-31T09:29:35Z</time>
            </trkpt>
            <trkpt lon="100.870651" lat="12.767422">
                <ele>24.650000</ele>
                <time>2015-10-31T09:29:47Z</time>
            </trkpt>
            <trkpt lon="100.870529" lat="12.767446">
                <ele>25.610000</ele>
                <time>2015-10-31T09:30:07Z</time>
            </trkpt>
            <trkpt lon="100.870516" lat="12.767449">
                <ele>26.090000</ele>
                <time>2015-10-31T09:30:19Z</time>
            </trkpt>
            <trkpt lon="100.870502" lat="12.767458">
                <ele>25.610000</ele>
                <time>2015-10-31T09:30:23Z</time>
            </trkpt>
            <trkpt lon="100.870439" lat="12.767583">
                <ele>25.130000</ele>
                <time>2015-10-31T09:30:30Z</time>
            </trkpt>
            <trkpt lon="100.870400" lat="12.767633">
                <ele>25.130000</ele>
                <time>2015-10-31T09:30:40Z</time>
            </trkpt>
            <trkpt lon="100.870604" lat="12.767755">
                <ele>21.770000</ele>
                <time>2015-10-31T09:30:50Z</time>
            </trkpt>
            <trkpt lon="100.870622" lat="12.767833">
                <ele>21.770000</ele>
                <time>2015-10-31T09:30:53Z</time>
            </trkpt>
            <trkpt lon="100.870599" lat="12.768187">
                <ele>23.210000</ele>
                <time>2015-10-31T09:31:07Z</time>
            </trkpt>
            <trkpt lon="100.870698" lat="12.768308">
                <ele>23.210000</ele>
                <time>2015-10-31T09:31:14Z</time>
            </trkpt>
            <trkpt lon="100.870752" lat="12.768305">
                <ele>22.250000</ele>
                <time>2015-10-31T09:31:17Z</time>
            </trkpt>
            <trkpt lon="100.870952" lat="12.768380">
                <ele>18.880000</ele>
                <time>2015-10-31T09:31:28Z</time>
            </trkpt>
            <trkpt lon="100.871051" lat="12.768478">
                <ele>17.920000</ele>
                <time>2015-10-31T09:31:36Z</time>
            </trkpt>
            <trkpt lon="100.871009" lat="12.768527">
                <ele>17.920000</ele>
                <time>2015-10-31T09:31:46Z</time>
            </trkpt>
            <trkpt lon="100.870990" lat="12.768597">
                <ele>18.400000</ele>
                <time>2015-10-31T09:31:57Z</time>
            </trkpt>
            <trkpt lon="100.870999" lat="12.768736">
                <ele>18.400000</ele>
                <time>2015-10-31T09:32:04Z</time>
            </trkpt>
            <trkpt lon="100.871035" lat="12.768826">
                <ele>17.440000</ele>
                <time>2015-10-31T09:32:09Z</time>
            </trkpt>
            <trkpt lon="100.871104" lat="12.768843">
                <ele>16.000000</ele>
                <time>2015-10-31T09:32:12Z</time>
            </trkpt>
            <trkpt lon="100.871162" lat="12.768847">
                <ele>15.040000</ele>
                <time>2015-10-31T09:32:14Z</time>
            </trkpt>
            <trkpt lon="100.871232" lat="12.768873">
                <ele>14.080000</ele>
                <time>2015-10-31T09:32:22Z</time>
            </trkpt>
            <trkpt lon="100.871285" lat="12.768870">
                <ele>13.120000</ele>
                <time>2015-10-31T09:32:24Z</time>
            </trkpt>
            <trkpt lon="100.871442" lat="12.768831">
                <ele>10.710000</ele>
                <time>2015-10-31T09:32:31Z</time>
            </trkpt>
            <trkpt lon="100.871522" lat="12.768801">
                <ele>9.270000</ele>
                <time>2015-10-31T09:32:34Z</time>
            </trkpt>
            <trkpt lon="100.871632" lat="12.768710">
                <ele>6.870000</ele>
                <time>2015-10-31T09:32:37Z</time>
            </trkpt>
            <trkpt lon="100.871671" lat="12.768672">
                <ele>6.390000</ele>
                <time>2015-10-31T09:32:38Z</time>
            </trkpt>
            <trkpt lon="100.871771" lat="12.768596">
                <ele>5.420000</ele>
                <time>2015-10-31T09:32:40Z</time>
            </trkpt>
            <trkpt lon="100.871858" lat="12.768532">
                <ele>4.940000</ele>
                <time>2015-10-31T09:32:45Z</time>
            </trkpt>
            <trkpt lon="100.871860" lat="12.768532">
                <ele>4.460000</ele>
                <time>2015-10-31T09:33:25Z</time>
            </trkpt>
            <trkpt lon="100.871860" lat="12.768532">
                <ele>3.980000</ele>
                <time>2015-10-31T09:33:58Z</time>
            </trkpt>
            <trkpt lon="100.871855" lat="12.768537">
                <ele>3.500000</ele>
                <time>2015-10-31T09:34:33Z</time>
            </trkpt>
            <trkpt lon="100.871855" lat="12.768538">
                <ele>3.500000</ele>
                <time>2015-10-31T09:35:11Z</time>
            </trkpt>
            <trkpt lon="100.871851" lat="12.768543">
                <ele>3.020000</ele>
                <time>2015-10-31T09:35:48Z</time>
            </trkpt>
            <trkpt lon="100.871857" lat="12.768543">
                <ele>3.500000</ele>
                <time>2015-10-31T09:36:15Z</time>
            </trkpt>
            <trkpt lon="100.871857" lat="12.768543">
                <ele>3.020000</ele>
                <time>2015-10-31T09:36:46Z</time>
            </trkpt>
            <trkpt lon="100.871858" lat="12.768544">
                <ele>3.020000</ele>
                <time>2015-10-31T09:37:21Z</time>
            </trkpt>
            <trkpt lon="100.871861" lat="12.768544">
                <ele>3.020000</ele>
                <time>2015-10-31T09:37:53Z</time>
            </trkpt>
            <trkpt lon="100.871864" lat="12.768547">
                <ele>3.020000</ele>
                <time>2015-10-31T09:38:30Z</time>
            </trkpt>
            <trkpt lon="100.871866" lat="12.768546">
                <ele>3.020000</ele>
                <time>2015-10-31T09:39:01Z</time>
            </trkpt>
            <trkpt lon="100.871867" lat="12.768547">
                <ele>3.020000</ele>
                <time>2015-10-31T09:39:28Z</time>
            </trkpt>
            <trkpt lon="100.871898" lat="12.768493">
                <ele>2.540000</ele>
                <time>2015-10-31T09:39:51Z</time>
            </trkpt>
            <trkpt lon="100.871900" lat="12.768490">
                <ele>2.540000</ele>
                <time>2015-10-31T09:40:07Z</time>
            </trkpt>
            <trkpt lon="100.871907" lat="12.768475">
                <ele>2.540000</ele>
                <time>2015-10-31T09:40:08Z</time>
            </trkpt>
            <trkpt lon="100.872047" lat="12.768150">
                <ele>1.580000</ele>
                <time>2015-10-31T09:40:22Z</time>
            </trkpt>
            <trkpt lon="100.872243" lat="12.767645">
                <ele>1.100000</ele>
                <time>2015-10-31T09:40:36Z</time>
            </trkpt>
            <trkpt lon="100.872487" lat="12.767006">
                <ele>2.060000</ele>
                <time>2015-10-31T09:40:53Z</time>
            </trkpt>
            <trkpt lon="100.872674" lat="12.766584">
                <ele>2.540000</ele>
                <time>2015-10-31T09:41:07Z</time>
            </trkpt>
            <trkpt lon="100.873073" lat="12.766154">
                <ele>2.060000</ele>
                <time>2015-10-31T09:41:22Z</time>
            </trkpt>
            <trkpt lon="100.873174" lat="12.766038">
                <ele>2.060000</ele>
                <time>2015-10-31T09:41:31Z</time>
            </trkpt>
            <trkpt lon="100.873188" lat="12.766010">
                <ele>2.540000</ele>
                <time>2015-10-31T09:41:47Z</time>
            </trkpt>
            <trkpt lon="100.873196" lat="12.766001">
                <ele>2.060000</ele>
                <time>2015-10-31T09:41:52Z</time>
            </trkpt>
            <trkpt lon="100.873276" lat="12.765905">
                <ele>2.540000</ele>
                <time>2015-10-31T09:41:59Z</time>
            </trkpt>
            <trkpt lon="100.873718" lat="12.765606">
                <ele>3.020000</ele>
                <time>2015-10-31T09:42:16Z</time>
            </trkpt>
            <trkpt lon="100.874063" lat="12.765440">
                <ele>2.540000</ele>
                <time>2015-10-31T09:42:26Z</time>
            </trkpt>
            <trkpt lon="100.874588" lat="12.765081">
                <ele>3.500000</ele>
                <time>2015-10-31T09:42:43Z</time>
            </trkpt>
            <trkpt lon="100.875017" lat="12.764695">
                <ele>3.980000</ele>
                <time>2015-10-31T09:42:57Z</time>
            </trkpt>
            <trkpt lon="100.875295" lat="12.764215">
                <ele>3.020000</ele>
                <time>2015-10-31T09:43:10Z</time>
            </trkpt>
            <trkpt lon="100.875485" lat="12.763286">
                <ele>1.580000</ele>
                <time>2015-10-31T09:43:29Z</time>
            </trkpt>
            <trkpt lon="100.875675" lat="12.762380">
                <ele>2.540000</ele>
                <time>2015-10-31T09:43:48Z</time>
            </trkpt>
            <trkpt lon="100.875865" lat="12.761861">
                <ele>2.540000</ele>
                <time>2015-10-31T09:44:02Z</time>
            </trkpt>
            <trkpt lon="100.876227" lat="12.761655">
                <ele>2.060000</ele>
                <time>2015-10-31T09:44:13Z</time>
            </trkpt>
            <trkpt lon="100.876718" lat="12.761258">
                <ele>2.540000</ele>
                <time>2015-10-31T09:44:28Z</time>
            </trkpt>
            <trkpt lon="100.876850" lat="12.761095">
                <ele>2.540000</ele>
                <time>2015-10-31T09:44:33Z</time>
            </trkpt>
            <trkpt lon="100.876874" lat="12.761060">
                <ele>2.540000</ele>
                <time>2015-10-31T09:44:34Z</time>
            </trkpt>
            <trkpt lon="100.876902" lat="12.761027">
                <ele>2.540000</ele>
                <time>2015-10-31T09:44:35Z</time>
            </trkpt>
            <trkpt lon="100.876932" lat="12.760996">
                <ele>2.540000</ele>
                <time>2015-10-31T09:44:36Z</time>
            </trkpt>
            <trkpt lon="100.876965" lat="12.760966">
                <ele>2.540000</ele>
                <time>2015-10-31T09:44:37Z</time>
            </trkpt>
            <trkpt lon="100.877379" lat="12.760466">
                <ele>2.540000</ele>
                <time>2015-10-31T09:44:53Z</time>
            </trkpt>
            <trkpt lon="100.877537" lat="12.760265">
                <ele>3.500000</ele>
                <time>2015-10-31T09:45:00Z</time>
            </trkpt>
            <trkpt lon="100.877573" lat="12.760240">
                <ele>3.020000</ele>
                <time>2015-10-31T09:45:01Z</time>
            </trkpt>
            <trkpt lon="100.878195" lat="12.760004">
                <ele>3.980000</ele>
                <time>2015-10-31T09:45:16Z</time>
            </trkpt>
            <trkpt lon="100.878458" lat="12.759951">
                <ele>3.500000</ele>
                <time>2015-10-31T09:45:23Z</time>
            </trkpt>
            <trkpt lon="100.878501" lat="12.759950">
                <ele>3.500000</ele>
                <time>2015-10-31T09:45:24Z</time>
            </trkpt>
            <trkpt lon="100.878542" lat="12.759951">
                <ele>3.500000</ele>
                <time>2015-10-31T09:45:25Z</time>
            </trkpt>
            <trkpt lon="100.879142" lat="12.759969">
                <ele>2.540000</ele>
                <time>2015-10-31T09:45:38Z</time>
            </trkpt>
            <trkpt lon="100.879196" lat="12.759972">
                <ele>2.540000</ele>
                <time>2015-10-31T09:45:39Z</time>
            </trkpt>
            <trkpt lon="100.879415" lat="12.759980">
                <ele>2.060000</ele>
                <time>2015-10-31T09:45:43Z</time>
            </trkpt>
            <trkpt lon="100.879977" lat="12.759984">
                <ele>2.540000</ele>
                <time>2015-10-31T09:45:54Z</time>
            </trkpt>
            <trkpt lon="100.880022" lat="12.759975">
                <ele>2.060000</ele>
                <time>2015-10-31T09:45:55Z</time>
            </trkpt>
            <trkpt lon="100.880060" lat="12.759953">
                <ele>3.020000</ele>
                <time>2015-10-31T09:45:56Z</time>
            </trkpt>
            <trkpt lon="100.880089" lat="12.759920">
                <ele>3.020000</ele>
                <time>2015-10-31T09:45:57Z</time>
            </trkpt>
            <trkpt lon="100.880108" lat="12.759881">
                <ele>3.020000</ele>
                <time>2015-10-31T09:45:58Z</time>
            </trkpt>
            <trkpt lon="100.880117" lat="12.759840">
                <ele>3.020000</ele>
                <time>2015-10-31T09:45:59Z</time>
            </trkpt>
            <trkpt lon="100.880121" lat="12.759798">
                <ele>2.540000</ele>
                <time>2015-10-31T09:46:00Z</time>
            </trkpt>
            <trkpt lon="100.880122" lat="12.759757">
                <ele>2.540000</ele>
                <time>2015-10-31T09:46:01Z</time>
            </trkpt>
            <trkpt lon="100.880140" lat="12.759641">
                <ele>3.020000</ele>
                <time>2015-10-31T09:46:04Z</time>
            </trkpt>
            <trkpt lon="100.880167" lat="12.759616">
                <ele>2.540000</ele>
                <time>2015-10-31T09:46:05Z</time>
            </trkpt>
            <trkpt lon="100.880204" lat="12.759602">
                <ele>2.540000</ele>
                <time>2015-10-31T09:46:06Z</time>
            </trkpt>
            <trkpt lon="100.880247" lat="12.759592">
                <ele>2.540000</ele>
                <time>2015-10-31T09:46:07Z</time>
            </trkpt>
            <trkpt lon="100.880291" lat="12.759582">
                <ele>2.540000</ele>
                <time>2015-10-31T09:46:08Z</time>
            </trkpt>
            <trkpt lon="100.880336" lat="12.759574">
                <ele>2.060000</ele>
                <time>2015-10-31T09:46:09Z</time>
            </trkpt>
            <trkpt lon="100.880379" lat="12.759570">
                <ele>3.020000</ele>
                <time>2015-10-31T09:46:10Z</time>
            </trkpt>
            <trkpt lon="100.880866" lat="12.759488">
                <ele>3.020000</ele>
                <time>2015-10-31T09:46:23Z</time>
            </trkpt>
            <trkpt lon="100.881459" lat="12.759374">
                <ele>3.500000</ele>
                <time>2015-10-31T09:46:39Z</time>
            </trkpt>
            <trkpt lon="100.881469" lat="12.759373">
                <ele>0.140000</ele>
                <time>2015-10-31T09:46:45Z</time>
            </trkpt>
            <trkpt lon="100.881469" lat="12.759373">
                <ele>4.460000</ele>
                <time>2015-10-31T09:46:46Z</time>
            </trkpt>
            <trkpt lon="100.881469" lat="12.759373">
                <ele>-2.270000</ele>
                <time>2015-10-31T09:46:47Z</time>
            </trkpt>
            <trkpt lon="100.881469" lat="12.759373">
                <ele>5.420000</ele>
                <time>2015-10-31T09:46:48Z</time>
            </trkpt>
            <trkpt lon="100.881469" lat="12.759373">
                <ele>1.100000</ele>
                <time>2015-10-31T09:46:50Z</time>
            </trkpt>
            <trkpt lon="100.881469" lat="12.759373">
                <ele>2.060000</ele>
                <time>2015-10-31T09:46:51Z</time>
            </trkpt>
            <trkpt lon="100.881469" lat="12.759373">
                <ele>5.910000</ele>
                <time>2015-10-31T09:46:53Z</time>
            </trkpt>
            <trkpt lon="100.881469" lat="12.759373">
                <ele>4.460000</ele>
                <time>2015-10-31T09:46:59Z</time>
            </trkpt>
            <trkpt lon="100.881469" lat="12.759373">
                <ele>-1.300000</ele>
                <time>2015-10-31T09:47:01Z</time>
            </trkpt>
            <trkpt lon="100.881469" lat="12.759373">
                <ele>3.980000</ele>
                <time>2015-10-31T09:47:02Z</time>
            </trkpt>
            <trkpt lon="100.881469" lat="12.759373">
                <ele>-1.300000</ele>
                <time>2015-10-31T09:47:13Z</time>
            </trkpt>
            <trkpt lon="100.881469" lat="12.759373">
                <ele>4.940000</ele>
                <time>2015-10-31T09:47:14Z</time>
            </trkpt>
            <trkpt lon="100.881469" lat="12.759373">
                <ele>4.460000</ele>
                <time>2015-10-31T09:47:15Z</time>
            </trkpt>
            <trkpt lon="100.881469" lat="12.759375">
                <ele>-0.340000</ele>
                <time>2015-10-31T09:47:27Z</time>
            </trkpt>
            <trkpt lon="100.881469" lat="12.759375">
                <ele>5.910000</ele>
                <time>2015-10-31T09:47:29Z</time>
            </trkpt>
            <trkpt lon="100.881469" lat="12.759375">
                <ele>5.420000</ele>
                <time>2015-10-31T09:47:30Z</time>
            </trkpt>
            <trkpt lon="100.881469" lat="12.759375">
                <ele>2.540000</ele>
                <time>2015-10-31T09:47:44Z</time>
            </trkpt>
            <trkpt lon="100.881469" lat="12.759375">
                <ele>-1.300000</ele>
                <time>2015-10-31T09:47:48Z</time>
            </trkpt>
            <trkpt lon="100.881469" lat="12.759375">
                <ele>5.910000</ele>
                <time>2015-10-31T09:47:49Z</time>
            </trkpt>
            <trkpt lon="100.881469" lat="12.759375">
                <ele>5.420000</ele>
                <time>2015-10-31T09:47:50Z</time>
            </trkpt>
            <trkpt lon="100.881469" lat="12.759375">
                <ele>4.460000</ele>
                <time>2015-10-31T09:47:53Z</time>
            </trkpt>
            <trkpt lon="100.881490" lat="12.759366">
                <ele>3.500000</ele>
                <time>2015-10-31T09:48:02Z</time>
            </trkpt>
            <trkpt lon="100.881503" lat="12.759356">
                <ele>3.500000</ele>
                <time>2015-10-31T09:48:03Z</time>
            </trkpt>
            <trkpt lon="100.881516" lat="12.759344">
                <ele>3.020000</ele>
                <time>2015-10-31T09:48:04Z</time>
            </trkpt>
            <trkpt lon="100.881534" lat="12.759331">
                <ele>3.500000</ele>
                <time>2015-10-31T09:48:05Z</time>
            </trkpt>
            <trkpt lon="100.881553" lat="12.759317">
                <ele>3.500000</ele>
                <time>2015-10-31T09:48:06Z</time>
            </trkpt>
            <trkpt lon="100.881576" lat="12.759301">
                <ele>3.500000</ele>
                <time>2015-10-31T09:48:07Z</time>
            </trkpt>
            <trkpt lon="100.881598" lat="12.759279">
                <ele>3.500000</ele>
                <time>2015-10-31T09:48:08Z</time>
            </trkpt>
            <trkpt lon="100.881624" lat="12.759254">
                <ele>3.500000</ele>
                <time>2015-10-31T09:48:09Z</time>
            </trkpt>
            <trkpt lon="100.881654" lat="12.759235">
                <ele>3.500000</ele>
                <time>2015-10-31T09:48:10Z</time>
            </trkpt>
            <trkpt lon="100.881689" lat="12.759218">
                <ele>3.500000</ele>
                <time>2015-10-31T09:48:11Z</time>
            </trkpt>
            <trkpt lon="100.881725" lat="12.759201">
                <ele>3.500000</ele>
                <time>2015-10-31T09:48:12Z</time>
            </trkpt>
            <trkpt lon="100.881758" lat="12.759176">
                <ele>3.020000</ele>
                <time>2015-10-31T09:48:13Z</time>
            </trkpt>
            <trkpt lon="100.881787" lat="12.759147">
                <ele>3.500000</ele>
                <time>2015-10-31T09:48:14Z</time>
            </trkpt>
            <trkpt lon="100.881814" lat="12.759115">
                <ele>3.500000</ele>
                <time>2015-10-31T09:48:15Z</time>
            </trkpt>
            <trkpt lon="100.881846" lat="12.759082">
                <ele>3.500000</ele>
                <time>2015-10-31T09:48:16Z</time>
            </trkpt>
            <trkpt lon="100.881879" lat="12.759048">
                <ele>3.500000</ele>
                <time>2015-10-31T09:48:17Z</time>
            </trkpt>
            <trkpt lon="100.882198" lat="12.758687">
                <ele>4.460000</ele>
                <time>2015-10-31T09:48:27Z</time>
            </trkpt>
            <trkpt lon="100.882233" lat="12.758658">
                <ele>4.940000</ele>
                <time>2015-10-31T09:48:28Z</time>
            </trkpt>
            <trkpt lon="100.882425" lat="12.758534">
                <ele>4.460000</ele>
                <time>2015-10-31T09:48:33Z</time>
            </trkpt>
            <trkpt lon="100.882465" lat="12.758512">
                <ele>4.940000</ele>
                <time>2015-10-31T09:48:34Z</time>
            </trkpt>
            <trkpt lon="100.882700" lat="12.758378">
                <ele>4.940000</ele>
                <time>2015-10-31T09:48:40Z</time>
            </trkpt>
            <trkpt lon="100.882768" lat="12.758332">
                <ele>5.420000</ele>
                <time>2015-10-31T09:48:42Z</time>
            </trkpt>
            <trkpt lon="100.882810" lat="12.758315">
                <ele>4.940000</ele>
                <time>2015-10-31T09:48:43Z</time>
            </trkpt>
            <trkpt lon="100.882852" lat="12.758304">
                <ele>5.420000</ele>
                <time>2015-10-31T09:48:44Z</time>
            </trkpt>
            <trkpt lon="100.883473" lat="12.758245">
                <ele>4.940000</ele>
                <time>2015-10-31T09:48:58Z</time>
            </trkpt>
            <trkpt lon="100.883796" lat="12.758220">
                <ele>5.420000</ele>
                <time>2015-10-31T09:49:05Z</time>
            </trkpt>
            <trkpt lon="100.883882" lat="12.758205">
                <ele>5.420000</ele>
                <time>2015-10-31T09:49:07Z</time>
            </trkpt>
            <trkpt lon="100.884361" lat="12.758079">
                <ele>5.910000</ele>
                <time>2015-10-31T09:49:20Z</time>
            </trkpt>
            <trkpt lon="100.884861" lat="12.757924">
                <ele>5.910000</ele>
                <time>2015-10-31T09:49:35Z</time>
            </trkpt>
            <trkpt lon="100.885187" lat="12.758062">
                <ele>5.420000</ele>
                <time>2015-10-31T09:49:43Z</time>
            </trkpt>
            <trkpt lon="100.885469" lat="12.758263">
                <ele>5.910000</ele>
                <time>2015-10-31T09:49:50Z</time>
            </trkpt>
            <trkpt lon="100.886160" lat="12.758704">
                <ele>4.940000</ele>
                <time>2015-10-31T09:50:05Z</time>
            </trkpt>
            <trkpt lon="100.886283" lat="12.758813">
                <ele>5.420000</ele>
                <time>2015-10-31T09:50:08Z</time>
            </trkpt>
            <trkpt lon="100.886301" lat="12.758859">
                <ele>5.420000</ele>
                <time>2015-10-31T09:50:09Z</time>
            </trkpt>
            <trkpt lon="100.886343" lat="12.759103">
                <ele>4.940000</ele>
                <time>2015-10-31T09:50:14Z</time>
            </trkpt>
            <trkpt lon="100.886368" lat="12.759150">
                <ele>5.420000</ele>
                <time>2015-10-31T09:50:15Z</time>
            </trkpt>
            <trkpt lon="100.886398" lat="12.759195">
                <ele>4.940000</ele>
                <time>2015-10-31T09:50:16Z</time>
            </trkpt>
            <trkpt lon="100.886644" lat="12.759567">
                <ele>4.940000</ele>
                <time>2015-10-31T09:50:24Z</time>
            </trkpt>
            <trkpt lon="100.886668" lat="12.759620">
                <ele>4.460000</ele>
                <time>2015-10-31T09:50:25Z</time>
            </trkpt>
            <trkpt lon="100.886726" lat="12.759781">
                <ele>3.980000</ele>
                <time>2015-10-31T09:50:28Z</time>
            </trkpt>
            <trkpt lon="100.886796" lat="12.760045">
                <ele>4.460000</ele>
                <time>2015-10-31T09:50:33Z</time>
            </trkpt>
            <trkpt lon="100.886821" lat="12.760094">
                <ele>4.460000</ele>
                <time>2015-10-31T09:50:34Z</time>
            </trkpt>
            <trkpt lon="100.886851" lat="12.760139">
                <ele>4.460000</ele>
                <time>2015-10-31T09:50:35Z</time>
            </trkpt>
            <trkpt lon="100.886886" lat="12.760180">
                <ele>3.980000</ele>
                <time>2015-10-31T09:50:36Z</time>
            </trkpt>
            <trkpt lon="100.886927" lat="12.760216">
                <ele>4.460000</ele>
                <time>2015-10-31T09:50:37Z</time>
            </trkpt>
            <trkpt lon="100.886972" lat="12.760248">
                <ele>3.980000</ele>
                <time>2015-10-31T09:50:38Z</time>
            </trkpt>
            <trkpt lon="100.887575" lat="12.760690">
                <ele>3.980000</ele>
                <time>2015-10-31T09:50:53Z</time>
            </trkpt>
            <trkpt lon="100.887845" lat="12.760937">
                <ele>3.500000</ele>
                <time>2015-10-31T09:51:00Z</time>
            </trkpt>
            <trkpt lon="100.887996" lat="12.761094">
                <ele>3.980000</ele>
                <time>2015-10-31T09:51:04Z</time>
            </trkpt>
            <trkpt lon="100.888023" lat="12.761139">
                <ele>3.500000</ele>
                <time>2015-10-31T09:51:05Z</time>
            </trkpt>
            <trkpt lon="100.888043" lat="12.761188">
                <ele>3.500000</ele>
                <time>2015-10-31T09:51:06Z</time>
            </trkpt>
            <trkpt lon="100.888055" lat="12.761237">
                <ele>3.500000</ele>
                <time>2015-10-31T09:51:07Z</time>
            </trkpt>
            <trkpt lon="100.888061" lat="12.761286">
                <ele>3.020000</ele>
                <time>2015-10-31T09:51:08Z</time>
            </trkpt>
            <trkpt lon="100.888061" lat="12.761334">
                <ele>3.500000</ele>
                <time>2015-10-31T09:51:09Z</time>
            </trkpt>
            <trkpt lon="100.888052" lat="12.761379">
                <ele>3.500000</ele>
                <time>2015-10-31T09:51:10Z</time>
            </trkpt>
            <trkpt lon="100.888037" lat="12.761421">
                <ele>3.500000</ele>
                <time>2015-10-31T09:51:11Z</time>
            </trkpt>
            <trkpt lon="100.888018" lat="12.761462">
                <ele>3.500000</ele>
                <time>2015-10-31T09:51:12Z</time>
            </trkpt>
            <trkpt lon="100.887997" lat="12.761499">
                <ele>3.500000</ele>
                <time>2015-10-31T09:51:13Z</time>
            </trkpt>
            <trkpt lon="100.887975" lat="12.761535">
                <ele>3.500000</ele>
                <time>2015-10-31T09:51:14Z</time>
            </trkpt>
            <trkpt lon="100.887834" lat="12.761751">
                <ele>5.420000</ele>
                <time>2015-10-31T09:51:26Z</time>
            </trkpt>
            <trkpt lon="100.887834" lat="12.761791">
                <ele>5.420000</ele>
                <time>2015-10-31T09:51:31Z</time>
            </trkpt>
            <trkpt lon="100.887848" lat="12.761802">
                <ele>5.420000</ele>
                <time>2015-10-31T09:51:32Z</time>
            </trkpt>
            <trkpt lon="100.887873" lat="12.761817">
                <ele>5.420000</ele>
                <time>2015-10-31T09:51:34Z</time>
            </trkpt>
            <trkpt lon="100.887881" lat="12.761825">
                <ele>5.910000</ele>
                <time>2015-10-31T09:51:35Z</time>
            </trkpt>
            <trkpt lon="100.887892" lat="12.761829">
                <ele>5.910000</ele>
                <time>2015-10-31T09:51:36Z</time>
            </trkpt>
            <trkpt lon="100.887900" lat="12.761823">
                <ele>5.910000</ele>
                <time>2015-10-31T09:51:38Z</time>
            </trkpt>
            <trkpt lon="100.887886" lat="12.761809">
                <ele>5.910000</ele>
                <time>2015-10-31T09:51:39Z</time>
            </trkpt>
            <trkpt lon="100.887868" lat="12.761798">
                <ele>5.420000</ele>
                <time>2015-10-31T09:51:40Z</time>
            </trkpt>
            <trkpt lon="100.887848" lat="12.761787">
                <ele>4.940000</ele>
                <time>2015-10-31T09:51:41Z</time>
            </trkpt>
            <trkpt lon="100.887827" lat="12.761777">
                <ele>5.420000</ele>
                <time>2015-10-31T09:51:42Z</time>
            </trkpt>
            <trkpt lon="100.887804" lat="12.761767">
                <ele>5.420000</ele>
                <time>2015-10-31T09:51:43Z</time>
            </trkpt>
            <trkpt lon="100.887514" lat="12.761652">
                <ele>4.940000</ele>
                <time>2015-10-31T09:51:58Z</time>
            </trkpt>
            <trkpt lon="100.887495" lat="12.761643">
                <ele>5.910000</ele>
                <time>2015-10-31T09:52:10Z</time>
            </trkpt>
            <trkpt lon="100.887489" lat="12.761650">
                <ele>5.910000</ele>
                <time>2015-10-31T09:52:13Z</time>
            </trkpt>
            <trkpt lon="100.887488" lat="12.761664">
                <ele>5.910000</ele>
                <time>2015-10-31T09:52:14Z</time>
            </trkpt>
            <trkpt lon="100.887496" lat="12.761679">
                <ele>5.910000</ele>
                <time>2015-10-31T09:52:15Z</time>
            </trkpt>
            <trkpt lon="100.887513" lat="12.761691">
                <ele>5.420000</ele>
                <time>2015-10-31T09:52:16Z</time>
            </trkpt>
            <trkpt lon="100.887537" lat="12.761699">
                <ele>5.420000</ele>
                <time>2015-10-31T09:52:17Z</time>
            </trkpt>
            <trkpt lon="100.887565" lat="12.761707">
                <ele>5.420000</ele>
                <time>2015-10-31T09:52:18Z</time>
            </trkpt>
            <trkpt lon="100.888007" lat="12.761869">
                <ele>5.420000</ele>
                <time>2015-10-31T09:52:31Z</time>
            </trkpt>
            <trkpt lon="100.888403" lat="12.762028">
                <ele>5.420000</ele>
                <time>2015-10-31T09:52:43Z</time>
            </trkpt>
            <trkpt lon="100.889058" lat="12.762373">
                <ele>5.420000</ele>
                <time>2015-10-31T09:52:58Z</time>
            </trkpt>
            <trkpt lon="100.889136" lat="12.762411">
                <ele>5.420000</ele>
                <time>2015-10-31T09:53:00Z</time>
            </trkpt>
            <trkpt lon="100.889176" lat="12.762428">
                <ele>5.910000</ele>
                <time>2015-10-31T09:53:01Z</time>
            </trkpt>
            <trkpt lon="100.889558" lat="12.762666">
                <ele>5.910000</ele>
                <time>2015-10-31T09:53:13Z</time>
            </trkpt>
            <trkpt lon="100.889993" lat="12.763000">
                <ele>5.910000</ele>
                <time>2015-10-31T09:53:26Z</time>
            </trkpt>
            <trkpt lon="100.890038" lat="12.763019">
                <ele>6.390000</ele>
                <time>2015-10-31T09:53:27Z</time>
            </trkpt>
            <trkpt lon="100.890550" lat="12.763282">
                <ele>5.910000</ele>
                <time>2015-10-31T09:53:40Z</time>
            </trkpt>
            <trkpt lon="100.890580" lat="12.763311">
                <ele>5.910000</ele>
                <time>2015-10-31T09:53:49Z</time>
            </trkpt>
            <trkpt lon="100.890580" lat="12.763311">
                <ele>6.870000</ele>
                <time>2015-10-31T09:53:54Z</time>
            </trkpt>
            <trkpt lon="100.890591" lat="12.763314">
                <ele>6.390000</ele>
                <time>2015-10-31T09:53:55Z</time>
            </trkpt>
            <trkpt lon="100.890610" lat="12.763317">
                <ele>5.910000</ele>
                <time>2015-10-31T09:53:56Z</time>
            </trkpt>
            <trkpt lon="100.890632" lat="12.763324">
                <ele>6.390000</ele>
                <time>2015-10-31T09:53:57Z</time>
            </trkpt>
            <trkpt lon="100.890656" lat="12.763335">
                <ele>6.390000</ele>
                <time>2015-10-31T09:53:58Z</time>
            </trkpt>
            <trkpt lon="100.891097" lat="12.763572">
                <ele>6.390000</ele>
                <time>2015-10-31T09:54:12Z</time>
            </trkpt>
            <trkpt lon="100.891242" lat="12.763691">
                <ele>6.390000</ele>
                <time>2015-10-31T09:54:21Z</time>
            </trkpt>
            <trkpt lon="100.891257" lat="12.763703">
                <ele>6.390000</ele>
                <time>2015-10-31T09:54:29Z</time>
            </trkpt>
            <trkpt lon="100.891310" lat="12.763722">
                <ele>6.390000</ele>
                <time>2015-10-31T09:54:32Z</time>
            </trkpt>
            <trkpt lon="100.891335" lat="12.763717">
                <ele>5.910000</ele>
                <time>2015-10-31T09:54:33Z</time>
            </trkpt>
            <trkpt lon="100.891361" lat="12.763704">
                <ele>5.910000</ele>
                <time>2015-10-31T09:54:34Z</time>
            </trkpt>
            <trkpt lon="100.891777" lat="12.763401">
                <ele>4.460000</ele>
                <time>2015-10-31T09:54:45Z</time>
            </trkpt>
            <trkpt lon="100.892247" lat="12.762917">
                <ele>4.460000</ele>
                <time>2015-10-31T09:55:02Z</time>
            </trkpt>
            <trkpt lon="100.892588" lat="12.762855">
                <ele>4.940000</ele>
                <time>2015-10-31T09:55:12Z</time>
            </trkpt>
            <trkpt lon="100.892910" lat="12.762782">
                <ele>5.420000</ele>
                <time>2015-10-31T09:55:22Z</time>
            </trkpt>
            <trkpt lon="100.893226" lat="12.762824">
                <ele>4.460000</ele>
                <time>2015-10-31T09:55:31Z</time>
            </trkpt>
            <trkpt lon="100.893287" lat="12.762840">
                <ele>4.940000</ele>
                <time>2015-10-31T09:55:34Z</time>
            </trkpt>
            <trkpt lon="100.893303" lat="12.762840">
                <ele>4.940000</ele>
                <time>2015-10-31T09:55:35Z</time>
            </trkpt>
            <trkpt lon="100.893323" lat="12.762842">
                <ele>4.940000</ele>
                <time>2015-10-31T09:55:36Z</time>
            </trkpt>
            <trkpt lon="100.893352" lat="12.762850">
                <ele>4.940000</ele>
                <time>2015-10-31T09:55:37Z</time>
            </trkpt>
            <trkpt lon="100.893390" lat="12.762866">
                <ele>5.420000</ele>
                <time>2015-10-31T09:55:38Z</time>
            </trkpt>
            <trkpt lon="100.893435" lat="12.762886">
                <ele>5.420000</ele>
                <time>2015-10-31T09:55:39Z</time>
            </trkpt>
            <trkpt lon="100.893486" lat="12.762908">
                <ele>4.940000</ele>
                <time>2015-10-31T09:55:40Z</time>
            </trkpt>
            <trkpt lon="100.893544" lat="12.762931">
                <ele>4.460000</ele>
                <time>2015-10-31T09:55:41Z</time>
            </trkpt>
            <trkpt lon="100.893816" lat="12.763041">
                <ele>4.940000</ele>
                <time>2015-10-31T09:55:46Z</time>
            </trkpt>
            <trkpt lon="100.893958" lat="12.763078">
                <ele>5.420000</ele>
                <time>2015-10-31T09:55:49Z</time>
            </trkpt>
            <trkpt lon="100.894003" lat="12.763076">
                <ele>5.420000</ele>
                <time>2015-10-31T09:55:50Z</time>
            </trkpt>
            <trkpt lon="100.894044" lat="12.763068">
                <ele>5.420000</ele>
                <time>2015-10-31T09:55:51Z</time>
            </trkpt>
            <trkpt lon="100.894549" lat="12.762919">
                <ele>5.910000</ele>
                <time>2015-10-31T09:56:05Z</time>
            </trkpt>
            <trkpt lon="100.895051" lat="12.762750">
                <ele>5.910000</ele>
                <time>2015-10-31T09:56:19Z</time>
            </trkpt>
            <trkpt lon="100.895208" lat="12.762712">
                <ele>5.910000</ele>
                <time>2015-10-31T09:56:23Z</time>
            </trkpt>
            <trkpt lon="100.895903" lat="12.762474">
                <ele>5.910000</ele>
                <time>2015-10-31T09:56:38Z</time>
            </trkpt>
            <trkpt lon="100.896637" lat="12.762220">
                <ele>6.390000</ele>
                <time>2015-10-31T09:56:55Z</time>
            </trkpt>
            <trkpt lon="100.897258" lat="12.761964">
                <ele>6.390000</ele>
                <time>2015-10-31T09:57:11Z</time>
            </trkpt>
            <trkpt lon="100.897637" lat="12.761876">
                <ele>6.870000</ele>
                <time>2015-10-31T09:57:22Z</time>
            </trkpt>
            <trkpt lon="100.897662" lat="12.761904">
                <ele>6.390000</ele>
                <time>2015-10-31T09:57:23Z</time>
            </trkpt>
            <trkpt lon="100.897681" lat="12.761933">
                <ele>6.390000</ele>
                <time>2015-10-31T09:57:24Z</time>
            </trkpt>
            <trkpt lon="100.897697" lat="12.761965">
                <ele>6.870000</ele>
                <time>2015-10-31T09:57:25Z</time>
            </trkpt>
            <trkpt lon="100.897713" lat="12.762001">
                <ele>6.870000</ele>
                <time>2015-10-31T09:57:26Z</time>
            </trkpt>
            <trkpt lon="100.897888" lat="12.762346">
                <ele>6.870000</ele>
                <time>2015-10-31T09:57:35Z</time>
            </trkpt>
            <trkpt lon="100.897959" lat="12.762475">
                <ele>6.870000</ele>
                <time>2015-10-31T09:57:38Z</time>
            </trkpt>
            <trkpt lon="100.898216" lat="12.762844">
                <ele>6.390000</ele>
                <time>2015-10-31T09:57:46Z</time>
            </trkpt>
            <trkpt lon="100.898243" lat="12.762893">
                <ele>6.390000</ele>
                <time>2015-10-31T09:57:47Z</time>
            </trkpt>
            <trkpt lon="100.898263" lat="12.762944">
                <ele>6.870000</ele>
                <time>2015-10-31T09:57:48Z</time>
            </trkpt>
            <trkpt lon="100.898292" lat="12.763045">
                <ele>6.390000</ele>
                <time>2015-10-31T09:57:50Z</time>
            </trkpt>
            <trkpt lon="100.898304" lat="12.763138">
                <ele>6.390000</ele>
                <time>2015-10-31T09:57:52Z</time>
            </trkpt>
            <trkpt lon="100.898300" lat="12.763182">
                <ele>6.870000</ele>
                <time>2015-10-31T09:57:53Z</time>
            </trkpt>
            <trkpt lon="100.898283" lat="12.763271">
                <ele>6.390000</ele>
                <time>2015-10-31T09:57:55Z</time>
            </trkpt>
            <trkpt lon="100.898280" lat="12.763316">
                <ele>6.390000</ele>
                <time>2015-10-31T09:57:56Z</time>
            </trkpt>
            <trkpt lon="100.898286" lat="12.763358">
                <ele>6.390000</ele>
                <time>2015-10-31T09:57:57Z</time>
            </trkpt>
            <trkpt lon="100.898302" lat="12.763395">
                <ele>6.390000</ele>
                <time>2015-10-31T09:57:58Z</time>
            </trkpt>
            <trkpt lon="100.898326" lat="12.763428">
                <ele>6.390000</ele>
                <time>2015-10-31T09:57:59Z</time>
            </trkpt>
            <trkpt lon="100.898355" lat="12.763460">
                <ele>6.390000</ele>
                <time>2015-10-31T09:58:00Z</time>
            </trkpt>
            <trkpt lon="100.898387" lat="12.763491">
                <ele>6.870000</ele>
                <time>2015-10-31T09:58:01Z</time>
            </trkpt>
            <trkpt lon="100.898548" lat="12.763601">
                <ele>7.350000</ele>
                <time>2015-10-31T09:58:06Z</time>
            </trkpt>
            <trkpt lon="100.898576" lat="12.763594">
                <ele>6.870000</ele>
                <time>2015-10-31T09:58:07Z</time>
            </trkpt>
            <trkpt lon="100.898591" lat="12.763580">
                <ele>6.870000</ele>
                <time>2015-10-31T09:58:08Z</time>
            </trkpt>
            <trkpt lon="100.898598" lat="12.763568">
                <ele>7.350000</ele>
                <time>2015-10-31T09:58:09Z</time>
            </trkpt>
            <trkpt lon="100.898584" lat="12.763564">
                <ele>6.870000</ele>
                <time>2015-10-31T09:58:12Z</time>
            </trkpt>
            <trkpt lon="100.898570" lat="12.763581">
                <ele>6.870000</ele>
                <time>2015-10-31T09:58:13Z</time>
            </trkpt>
            <trkpt lon="100.898559" lat="12.763608">
                <ele>6.870000</ele>
                <time>2015-10-31T09:58:14Z</time>
            </trkpt>
            <trkpt lon="100.898552" lat="12.763640">
                <ele>6.870000</ele>
                <time>2015-10-31T09:58:15Z</time>
            </trkpt>
            <trkpt lon="100.898545" lat="12.763670">
                <ele>6.870000</ele>
                <time>2015-10-31T09:58:16Z</time>
            </trkpt>
            <trkpt lon="100.898539" lat="12.763700">
                <ele>7.350000</ele>
                <time>2015-10-31T09:58:17Z</time>
            </trkpt>
            <trkpt lon="100.898534" lat="12.763734">
                <ele>6.390000</ele>
                <time>2015-10-31T09:58:18Z</time>
            </trkpt>
            <trkpt lon="100.898524" lat="12.763773">
                <ele>6.870000</ele>
                <time>2015-10-31T09:58:19Z</time>
            </trkpt>
            <trkpt lon="100.898512" lat="12.763808">
                <ele>6.870000</ele>
                <time>2015-10-31T09:58:20Z</time>
            </trkpt>
            <trkpt lon="100.898496" lat="12.763843">
                <ele>6.870000</ele>
                <time>2015-10-31T09:58:21Z</time>
            </trkpt>
            <trkpt lon="100.898223" lat="12.764238">
                <ele>6.870000</ele>
                <time>2015-10-31T09:58:34Z</time>
            </trkpt>
            <trkpt lon="100.897925" lat="12.764617">
                <ele>6.870000</ele>
                <time>2015-10-31T09:58:49Z</time>
            </trkpt>
            <trkpt lon="100.897905" lat="12.764617">
                <ele>6.870000</ele>
                <time>2015-10-31T09:58:50Z</time>
            </trkpt>
            <trkpt lon="100.897892" lat="12.764584">
                <ele>7.350000</ele>
                <time>2015-10-31T09:59:00Z</time>
            </trkpt>
            <trkpt lon="100.897903" lat="12.764561">
                <ele>7.350000</ele>
                <time>2015-10-31T09:59:13Z</time>
            </trkpt>
            <trkpt lon="100.897903" lat="12.764561">
                <ele>7.350000</ele>
                <time>2015-10-31T09:59:35Z</time>
            </trkpt>
            <trkpt lon="100.897902" lat="12.764560">
                <ele>6.870000</ele>
                <time>2015-10-31T09:59:57Z</time>
            </trkpt>
            <trkpt lon="100.897880" lat="12.764497">
                <ele>7.350000</ele>
                <time>2015-10-31T10:00:16Z</time>
            </trkpt>
            <trkpt lon="100.897920" lat="12.764341">
                <ele>7.350000</ele>
                <time>2015-10-31T10:00:32Z</time>
            </trkpt>
            <trkpt lon="100.897917" lat="12.764323">
                <ele>6.870000</ele>
                <time>2015-10-31T10:00:48Z</time>
            </trkpt>
        </trkseg>
    </trk>
</gpx>